<?xml version="1.0" encoding="UTF-8" standalone="no" ?>
<gpx xmlns="http://www.topografix.com/GPX/1/1" xmlns:xsi="http://www.w3.org/2001/XMLSchema-instance" xsi:schemaLocation="http://www.topografix.com/GPX/1/1 http://www.topografix.com/GPX/1/1/gpx.xsd" version="1.1" creator="VisuGPX - https://www.visugpx.com">
  <metadata>
    <name>83-CD-la Martre</name>
    <desc><![CDATA[83-CD-la Martre : Château Vieux]]></desc>
  </metadata>
  <trk>
    <name><![CDATA[2015-05-03-CD-la martre]]></name>
    <trkseg>
      <trkpt lat="43.77078" lon="6.5999">
        <ele>951.7</ele>
        <time>2015-05-03T07:27:19Z</time>
      </trkpt>
      <trkpt lat="43.77086" lon="6.59995">
        <ele>950.1</ele>
        <time>2015-05-03T07:27:53Z</time>
      </trkpt>
      <trkpt lat="43.77086" lon="6.59995">
        <ele>949.9</ele>
        <time>2015-05-03T07:27:54Z</time>
      </trkpt>
      <trkpt lat="43.77082" lon="6.59982">
        <ele>950.2</ele>
        <time>2015-05-03T07:29:09Z</time>
      </trkpt>
      <trkpt lat="43.7708" lon="6.59961">
        <ele>951.7</ele>
        <time>2015-05-03T07:30:40Z</time>
      </trkpt>
      <trkpt lat="43.7708" lon="6.59959">
        <ele>951.4</ele>
        <time>2015-05-03T07:30:41Z</time>
      </trkpt>
      <trkpt lat="43.77077" lon="6.59938">
        <ele>953.2</ele>
        <time>2015-05-03T07:30:59Z</time>
      </trkpt>
      <trkpt lat="43.77078" lon="6.59926">
        <ele>952.6</ele>
        <time>2015-05-03T07:31:11Z</time>
      </trkpt>
      <trkpt lat="43.77084" lon="6.59918">
        <ele>952.2</ele>
        <time>2015-05-03T07:31:20Z</time>
      </trkpt>
      <trkpt lat="43.77092" lon="6.59912">
        <ele>953.7</ele>
        <time>2015-05-03T07:31:34Z</time>
      </trkpt>
      <trkpt lat="43.771" lon="6.59907">
        <ele>953.4</ele>
        <time>2015-05-03T07:31:44Z</time>
      </trkpt>
      <trkpt lat="43.771" lon="6.59907">
        <ele>953.9</ele>
        <time>2015-05-03T07:31:45Z</time>
      </trkpt>
      <trkpt lat="43.77115" lon="6.59897">
        <ele>955.5</ele>
        <time>2015-05-03T07:32:03Z</time>
      </trkpt>
      <trkpt lat="43.77123" lon="6.59895">
        <ele>954.7</ele>
        <time>2015-05-03T07:32:22Z</time>
      </trkpt>
      <trkpt lat="43.77131" lon="6.59889">
        <ele>956.4</ele>
        <time>2015-05-03T07:32:57Z</time>
      </trkpt>
      <trkpt lat="43.77131" lon="6.59889">
        <ele>956.1</ele>
        <time>2015-05-03T07:32:58Z</time>
      </trkpt>
      <trkpt lat="43.77146" lon="6.59882">
        <ele>960.2</ele>
        <time>2015-05-03T07:33:18Z</time>
      </trkpt>
      <trkpt lat="43.77155" lon="6.59881">
        <ele>963</ele>
        <time>2015-05-03T07:33:36Z</time>
      </trkpt>
      <trkpt lat="43.77157" lon="6.59892">
        <ele>964.7</ele>
        <time>2015-05-03T07:34:46Z</time>
      </trkpt>
      <trkpt lat="43.77157" lon="6.59894">
        <ele>964.7</ele>
        <time>2015-05-03T07:34:47Z</time>
      </trkpt>
      <trkpt lat="43.77147" lon="6.5991">
        <ele>964.7</ele>
        <time>2015-05-03T07:35:03Z</time>
      </trkpt>
      <trkpt lat="43.77143" lon="6.5992">
        <ele>965.1</ele>
        <time>2015-05-03T07:35:31Z</time>
      </trkpt>
      <trkpt lat="43.77144" lon="6.59932">
        <ele>966.4</ele>
        <time>2015-05-03T07:35:51Z</time>
      </trkpt>
      <trkpt lat="43.77144" lon="6.59933">
        <ele>966.3</ele>
        <time>2015-05-03T07:35:52Z</time>
      </trkpt>
      <trkpt lat="43.77158" lon="6.5994">
        <ele>970.3</ele>
        <time>2015-05-03T07:36:20Z</time>
      </trkpt>
      <trkpt lat="43.77163" lon="6.5995">
        <ele>973.1</ele>
        <time>2015-05-03T07:36:37Z</time>
      </trkpt>
      <trkpt lat="43.77165" lon="6.59962">
        <ele>973.8</ele>
        <time>2015-05-03T07:36:48Z</time>
      </trkpt>
      <trkpt lat="43.77165" lon="6.59973">
        <ele>974.5</ele>
        <time>2015-05-03T07:36:59Z</time>
      </trkpt>
      <trkpt lat="43.77164" lon="6.59974">
        <ele>974.9</ele>
        <time>2015-05-03T07:37:00Z</time>
      </trkpt>
      <trkpt lat="43.7717" lon="6.59994">
        <ele>975</ele>
        <time>2015-05-03T07:37:16Z</time>
      </trkpt>
      <trkpt lat="43.77178" lon="6.59999">
        <ele>975.3</ele>
        <time>2015-05-03T07:38:08Z</time>
      </trkpt>
      <trkpt lat="43.77178" lon="6.59999">
        <ele>975.5</ele>
        <time>2015-05-03T07:38:09Z</time>
      </trkpt>
      <trkpt lat="43.77172" lon="6.59977">
        <ele>975.8</ele>
        <time>2015-05-03T07:39:07Z</time>
      </trkpt>
      <trkpt lat="43.77169" lon="6.59965">
        <ele>975.3</ele>
        <time>2015-05-03T07:39:16Z</time>
      </trkpt>
      <trkpt lat="43.77168" lon="6.59964">
        <ele>975.1</ele>
        <time>2015-05-03T07:39:17Z</time>
      </trkpt>
      <trkpt lat="43.77168" lon="6.59943">
        <ele>975.5</ele>
        <time>2015-05-03T07:39:30Z</time>
      </trkpt>
      <trkpt lat="43.77172" lon="6.59932">
        <ele>974.4</ele>
        <time>2015-05-03T07:39:43Z</time>
      </trkpt>
      <trkpt lat="43.77181" lon="6.59936">
        <ele>977.9</ele>
        <time>2015-05-03T07:40:12Z</time>
      </trkpt>
      <trkpt lat="43.77184" lon="6.59947">
        <ele>978.8</ele>
        <time>2015-05-03T07:40:23Z</time>
      </trkpt>
      <trkpt lat="43.77184" lon="6.59948">
        <ele>978.9</ele>
        <time>2015-05-03T07:40:24Z</time>
      </trkpt>
      <trkpt lat="43.77194" lon="6.59966">
        <ele>981.7</ele>
        <time>2015-05-03T07:40:44Z</time>
      </trkpt>
      <trkpt lat="43.772" lon="6.59975">
        <ele>982.7</ele>
        <time>2015-05-03T07:40:55Z</time>
      </trkpt>
      <trkpt lat="43.77203" lon="6.59985">
        <ele>983</ele>
        <time>2015-05-03T07:41:04Z</time>
      </trkpt>
      <trkpt lat="43.77208" lon="6.59994">
        <ele>984.9</ele>
        <time>2015-05-03T07:41:09Z</time>
      </trkpt>
      <trkpt lat="43.77212" lon="6.60004">
        <ele>985.1</ele>
        <time>2015-05-03T07:41:19Z</time>
      </trkpt>
      <trkpt lat="43.77216" lon="6.60014">
        <ele>987</ele>
        <time>2015-05-03T07:41:26Z</time>
      </trkpt>
      <trkpt lat="43.77217" lon="6.60015">
        <ele>987.4</ele>
        <time>2015-05-03T07:41:27Z</time>
      </trkpt>
      <trkpt lat="43.7723" lon="6.60027">
        <ele>988.9</ele>
        <time>2015-05-03T07:41:44Z</time>
      </trkpt>
      <trkpt lat="43.77236" lon="6.60036">
        <ele>991.7</ele>
        <time>2015-05-03T07:41:55Z</time>
      </trkpt>
      <trkpt lat="43.77243" lon="6.60043">
        <ele>993.6</ele>
        <time>2015-05-03T07:42:08Z</time>
      </trkpt>
      <trkpt lat="43.7725" lon="6.60049">
        <ele>996.5</ele>
        <time>2015-05-03T07:42:23Z</time>
      </trkpt>
      <trkpt lat="43.77258" lon="6.60054">
        <ele>998.2</ele>
        <time>2015-05-03T07:42:35Z</time>
      </trkpt>
      <trkpt lat="43.77259" lon="6.60054">
        <ele>998.2</ele>
        <time>2015-05-03T07:42:36Z</time>
      </trkpt>
      <trkpt lat="43.77274" lon="6.60063">
        <ele>1003.2</ele>
        <time>2015-05-03T07:43:01Z</time>
      </trkpt>
      <trkpt lat="43.77281" lon="6.60068">
        <ele>1004.7</ele>
        <time>2015-05-03T07:43:12Z</time>
      </trkpt>
      <trkpt lat="43.77288" lon="6.60076">
        <ele>1006.4</ele>
        <time>2015-05-03T07:43:24Z</time>
      </trkpt>
      <trkpt lat="43.77294" lon="6.60084">
        <ele>1007.6</ele>
        <time>2015-05-03T07:43:34Z</time>
      </trkpt>
      <trkpt lat="43.77301" lon="6.6009">
        <ele>1008.5</ele>
        <time>2015-05-03T07:43:43Z</time>
      </trkpt>
      <trkpt lat="43.77302" lon="6.60091">
        <ele>1008.3</ele>
        <time>2015-05-03T07:43:44Z</time>
      </trkpt>
      <trkpt lat="43.77308" lon="6.60099">
        <ele>1010</ele>
        <time>2015-05-03T07:45:06Z</time>
      </trkpt>
      <trkpt lat="43.77318" lon="6.60115">
        <ele>1010.3</ele>
        <time>2015-05-03T07:45:24Z</time>
      </trkpt>
      <trkpt lat="43.77322" lon="6.60125">
        <ele>1010.5</ele>
        <time>2015-05-03T07:45:32Z</time>
      </trkpt>
      <trkpt lat="43.77328" lon="6.60135">
        <ele>1012.1</ele>
        <time>2015-05-03T07:45:40Z</time>
      </trkpt>
      <trkpt lat="43.77334" lon="6.60143">
        <ele>1012.5</ele>
        <time>2015-05-03T07:45:48Z</time>
      </trkpt>
      <trkpt lat="43.77339" lon="6.60151">
        <ele>1013.5</ele>
        <time>2015-05-03T07:45:55Z</time>
      </trkpt>
      <trkpt lat="43.77346" lon="6.60159">
        <ele>1012.7</ele>
        <time>2015-05-03T07:46:01Z</time>
      </trkpt>
      <trkpt lat="43.7735" lon="6.60169">
        <ele>1012.8</ele>
        <time>2015-05-03T07:46:09Z</time>
      </trkpt>
      <trkpt lat="43.7735" lon="6.6017">
        <ele>1013.1</ele>
        <time>2015-05-03T07:46:10Z</time>
      </trkpt>
      <trkpt lat="43.7736" lon="6.60188">
        <ele>1013.8</ele>
        <time>2015-05-03T07:46:24Z</time>
      </trkpt>
      <trkpt lat="43.77364" lon="6.60197">
        <ele>1014.3</ele>
        <time>2015-05-03T07:46:31Z</time>
      </trkpt>
      <trkpt lat="43.77369" lon="6.60207">
        <ele>1014</ele>
        <time>2015-05-03T07:46:38Z</time>
      </trkpt>
      <trkpt lat="43.77374" lon="6.60216">
        <ele>1014.8</ele>
        <time>2015-05-03T07:46:45Z</time>
      </trkpt>
      <trkpt lat="43.77378" lon="6.60227">
        <ele>1014.3</ele>
        <time>2015-05-03T07:46:51Z</time>
      </trkpt>
      <trkpt lat="43.77382" lon="6.60238">
        <ele>1015.4</ele>
        <time>2015-05-03T07:47:01Z</time>
      </trkpt>
      <trkpt lat="43.77385" lon="6.60249">
        <ele>1015.2</ele>
        <time>2015-05-03T07:47:08Z</time>
      </trkpt>
      <trkpt lat="43.77391" lon="6.60259">
        <ele>1014.6</ele>
        <time>2015-05-03T07:47:15Z</time>
      </trkpt>
      <trkpt lat="43.77391" lon="6.6026">
        <ele>1014.7</ele>
        <time>2015-05-03T07:47:16Z</time>
      </trkpt>
      <trkpt lat="43.77399" lon="6.60279">
        <ele>1016.4</ele>
        <time>2015-05-03T07:47:29Z</time>
      </trkpt>
      <trkpt lat="43.77405" lon="6.60288">
        <ele>1016.6</ele>
        <time>2015-05-03T07:47:36Z</time>
      </trkpt>
      <trkpt lat="43.7741" lon="6.60298">
        <ele>1017</ele>
        <time>2015-05-03T07:47:43Z</time>
      </trkpt>
      <trkpt lat="43.77415" lon="6.60306">
        <ele>1016</ele>
        <time>2015-05-03T07:47:50Z</time>
      </trkpt>
      <trkpt lat="43.7742" lon="6.60314">
        <ele>1016.3</ele>
        <time>2015-05-03T07:47:58Z</time>
      </trkpt>
      <trkpt lat="43.77425" lon="6.60324">
        <ele>1016.5</ele>
        <time>2015-05-03T07:48:05Z</time>
      </trkpt>
      <trkpt lat="43.77428" lon="6.60335">
        <ele>1016</ele>
        <time>2015-05-03T07:48:11Z</time>
      </trkpt>
      <trkpt lat="43.77433" lon="6.60344">
        <ele>1015.9</ele>
        <time>2015-05-03T07:48:18Z</time>
      </trkpt>
      <trkpt lat="43.77433" lon="6.60346">
        <ele>1015.5</ele>
        <time>2015-05-03T07:48:19Z</time>
      </trkpt>
      <trkpt lat="43.77445" lon="6.60361">
        <ele>1016.1</ele>
        <time>2015-05-03T07:48:38Z</time>
      </trkpt>
      <trkpt lat="43.77451" lon="6.60368">
        <ele>1016</ele>
        <time>2015-05-03T07:48:44Z</time>
      </trkpt>
      <trkpt lat="43.77457" lon="6.60377">
        <ele>1016.4</ele>
        <time>2015-05-03T07:48:53Z</time>
      </trkpt>
      <trkpt lat="43.77459" lon="6.60387">
        <ele>1017.8</ele>
        <time>2015-05-03T07:49:04Z</time>
      </trkpt>
      <trkpt lat="43.77464" lon="6.60397">
        <ele>1018.4</ele>
        <time>2015-05-03T07:49:12Z</time>
      </trkpt>
      <trkpt lat="43.77468" lon="6.60408">
        <ele>1019.3</ele>
        <time>2015-05-03T07:49:20Z</time>
      </trkpt>
      <trkpt lat="43.77468" lon="6.60409">
        <ele>1019.4</ele>
        <time>2015-05-03T07:49:21Z</time>
      </trkpt>
      <trkpt lat="43.77473" lon="6.60432">
        <ele>1020.8</ele>
        <time>2015-05-03T07:49:39Z</time>
      </trkpt>
      <trkpt lat="43.77476" lon="6.60442">
        <ele>1021.5</ele>
        <time>2015-05-03T07:49:46Z</time>
      </trkpt>
      <trkpt lat="43.77479" lon="6.60452">
        <ele>1022.1</ele>
        <time>2015-05-03T07:49:53Z</time>
      </trkpt>
      <trkpt lat="43.77484" lon="6.60462">
        <ele>1021.8</ele>
        <time>2015-05-03T07:50:00Z</time>
      </trkpt>
      <trkpt lat="43.77488" lon="6.60471">
        <ele>1021.9</ele>
        <time>2015-05-03T07:50:08Z</time>
      </trkpt>
      <trkpt lat="43.77493" lon="6.60481">
        <ele>1023.1</ele>
        <time>2015-05-03T07:50:17Z</time>
      </trkpt>
      <trkpt lat="43.77499" lon="6.60489">
        <ele>1023</ele>
        <time>2015-05-03T07:50:24Z</time>
      </trkpt>
      <trkpt lat="43.77501" lon="6.6049">
        <ele>1023.5</ele>
        <time>2015-05-03T07:50:25Z</time>
      </trkpt>
      <trkpt lat="43.77511" lon="6.60506">
        <ele>1024.6</ele>
        <time>2015-05-03T07:50:39Z</time>
      </trkpt>
      <trkpt lat="43.77512" lon="6.60518">
        <ele>1025.5</ele>
        <time>2015-05-03T07:50:49Z</time>
      </trkpt>
      <trkpt lat="43.77514" lon="6.6053">
        <ele>1026</ele>
        <time>2015-05-03T07:51:01Z</time>
      </trkpt>
      <trkpt lat="43.77518" lon="6.60538">
        <ele>1027</ele>
        <time>2015-05-03T07:51:08Z</time>
      </trkpt>
      <trkpt lat="43.77523" lon="6.60549">
        <ele>1027.5</ele>
        <time>2015-05-03T07:51:16Z</time>
      </trkpt>
      <trkpt lat="43.77526" lon="6.60561">
        <ele>1027.9</ele>
        <time>2015-05-03T07:51:25Z</time>
      </trkpt>
      <trkpt lat="43.77526" lon="6.60562">
        <ele>1028.1</ele>
        <time>2015-05-03T07:51:26Z</time>
      </trkpt>
      <trkpt lat="43.77531" lon="6.60584">
        <ele>1028.5</ele>
        <time>2015-05-03T07:51:41Z</time>
      </trkpt>
      <trkpt lat="43.77533" lon="6.60595">
        <ele>1028.4</ele>
        <time>2015-05-03T07:51:48Z</time>
      </trkpt>
      <trkpt lat="43.7754" lon="6.60602">
        <ele>1028.7</ele>
        <time>2015-05-03T07:51:55Z</time>
      </trkpt>
      <trkpt lat="43.77545" lon="6.60612">
        <ele>1029.4</ele>
        <time>2015-05-03T07:52:02Z</time>
      </trkpt>
      <trkpt lat="43.77548" lon="6.60623">
        <ele>1029.1</ele>
        <time>2015-05-03T07:52:09Z</time>
      </trkpt>
      <trkpt lat="43.77552" lon="6.60633">
        <ele>1029.7</ele>
        <time>2015-05-03T07:52:17Z</time>
      </trkpt>
      <trkpt lat="43.77555" lon="6.60644">
        <ele>1030.4</ele>
        <time>2015-05-03T07:52:26Z</time>
      </trkpt>
      <trkpt lat="43.77557" lon="6.60656">
        <ele>1031.1</ele>
        <time>2015-05-03T07:52:34Z</time>
      </trkpt>
      <trkpt lat="43.77558" lon="6.60657">
        <ele>1031.5</ele>
        <time>2015-05-03T07:52:35Z</time>
      </trkpt>
      <trkpt lat="43.77557" lon="6.60679">
        <ele>1032.2</ele>
        <time>2015-05-03T07:52:54Z</time>
      </trkpt>
      <trkpt lat="43.77552" lon="6.60689">
        <ele>1033.9</ele>
        <time>2015-05-03T07:53:06Z</time>
      </trkpt>
      <trkpt lat="43.77553" lon="6.60701">
        <ele>1034.5</ele>
        <time>2015-05-03T07:53:21Z</time>
      </trkpt>
      <trkpt lat="43.77555" lon="6.60713">
        <ele>1034.3</ele>
        <time>2015-05-03T07:53:28Z</time>
      </trkpt>
      <trkpt lat="43.77553" lon="6.60725">
        <ele>1035</ele>
        <time>2015-05-03T07:53:35Z</time>
      </trkpt>
      <trkpt lat="43.77553" lon="6.60726">
        <ele>1035.2</ele>
        <time>2015-05-03T07:53:36Z</time>
      </trkpt>
      <trkpt lat="43.77555" lon="6.60748">
        <ele>1036.4</ele>
        <time>2015-05-03T07:53:56Z</time>
      </trkpt>
      <trkpt lat="43.77563" lon="6.60755">
        <ele>1039</ele>
        <time>2015-05-03T07:57:06Z</time>
      </trkpt>
      <trkpt lat="43.77563" lon="6.60755">
        <ele>1038.9</ele>
        <time>2015-05-03T07:57:07Z</time>
      </trkpt>
      <trkpt lat="43.77561" lon="6.60767">
        <ele>1042.3</ele>
        <time>2015-05-03T08:00:33Z</time>
      </trkpt>
      <trkpt lat="43.77556" lon="6.60787">
        <ele>1041.9</ele>
        <time>2015-05-03T08:00:50Z</time>
      </trkpt>
      <trkpt lat="43.77556" lon="6.60799">
        <ele>1041.6</ele>
        <time>2015-05-03T08:00:57Z</time>
      </trkpt>
      <trkpt lat="43.77554" lon="6.60811">
        <ele>1041.3</ele>
        <time>2015-05-03T08:01:06Z</time>
      </trkpt>
      <trkpt lat="43.77553" lon="6.60822">
        <ele>1041.6</ele>
        <time>2015-05-03T08:01:13Z</time>
      </trkpt>
      <trkpt lat="43.77552" lon="6.60833">
        <ele>1040.4</ele>
        <time>2015-05-03T08:01:20Z</time>
      </trkpt>
      <trkpt lat="43.7755" lon="6.60845">
        <ele>1040.6</ele>
        <time>2015-05-03T08:01:27Z</time>
      </trkpt>
      <trkpt lat="43.77548" lon="6.60856">
        <ele>1041</ele>
        <time>2015-05-03T08:01:34Z</time>
      </trkpt>
      <trkpt lat="43.77548" lon="6.60858">
        <ele>1041.3</ele>
        <time>2015-05-03T08:01:35Z</time>
      </trkpt>
      <trkpt lat="43.77543" lon="6.60877">
        <ele>1040.5</ele>
        <time>2015-05-03T08:01:47Z</time>
      </trkpt>
      <trkpt lat="43.77539" lon="6.60887">
        <ele>1041.1</ele>
        <time>2015-05-03T08:01:54Z</time>
      </trkpt>
      <trkpt lat="43.77536" lon="6.60898">
        <ele>1041.5</ele>
        <time>2015-05-03T08:02:01Z</time>
      </trkpt>
      <trkpt lat="43.77533" lon="6.60908">
        <ele>1042.1</ele>
        <time>2015-05-03T08:02:08Z</time>
      </trkpt>
      <trkpt lat="43.77527" lon="6.60918">
        <ele>1043.4</ele>
        <time>2015-05-03T08:02:16Z</time>
      </trkpt>
      <trkpt lat="43.77523" lon="6.60928">
        <ele>1043.5</ele>
        <time>2015-05-03T08:02:24Z</time>
      </trkpt>
      <trkpt lat="43.77517" lon="6.60937">
        <ele>1044.9</ele>
        <time>2015-05-03T08:02:34Z</time>
      </trkpt>
      <trkpt lat="43.7751" lon="6.60944">
        <ele>1045.9</ele>
        <time>2015-05-03T08:02:43Z</time>
      </trkpt>
      <trkpt lat="43.7751" lon="6.60945">
        <ele>1045.9</ele>
        <time>2015-05-03T08:02:44Z</time>
      </trkpt>
      <trkpt lat="43.77505" lon="6.60967">
        <ele>1047.3</ele>
        <time>2015-05-03T08:03:01Z</time>
      </trkpt>
      <trkpt lat="43.77504" lon="6.60979">
        <ele>1048.1</ele>
        <time>2015-05-03T08:03:11Z</time>
      </trkpt>
      <trkpt lat="43.77503" lon="6.60991">
        <ele>1049.5</ele>
        <time>2015-05-03T08:03:20Z</time>
      </trkpt>
      <trkpt lat="43.77501" lon="6.61002">
        <ele>1050.9</ele>
        <time>2015-05-03T08:03:30Z</time>
      </trkpt>
      <trkpt lat="43.77497" lon="6.61012">
        <ele>1051.3</ele>
        <time>2015-05-03T08:03:38Z</time>
      </trkpt>
      <trkpt lat="43.77493" lon="6.61022">
        <ele>1051.7</ele>
        <time>2015-05-03T08:03:47Z</time>
      </trkpt>
      <trkpt lat="43.77493" lon="6.61024">
        <ele>1051.9</ele>
        <time>2015-05-03T08:03:48Z</time>
      </trkpt>
      <trkpt lat="43.77489" lon="6.61045">
        <ele>1051.7</ele>
        <time>2015-05-03T08:04:02Z</time>
      </trkpt>
      <trkpt lat="43.77488" lon="6.61057">
        <ele>1052.3</ele>
        <time>2015-05-03T08:04:08Z</time>
      </trkpt>
      <trkpt lat="43.77488" lon="6.61069">
        <ele>1052.3</ele>
        <time>2015-05-03T08:04:14Z</time>
      </trkpt>
      <trkpt lat="43.77488" lon="6.61079">
        <ele>1052.3</ele>
        <time>2015-05-03T08:04:20Z</time>
      </trkpt>
      <trkpt lat="43.77486" lon="6.61091">
        <ele>1051.8</ele>
        <time>2015-05-03T08:04:27Z</time>
      </trkpt>
      <trkpt lat="43.77483" lon="6.61102">
        <ele>1052.5</ele>
        <time>2015-05-03T08:04:34Z</time>
      </trkpt>
      <trkpt lat="43.77482" lon="6.61114">
        <ele>1051.7</ele>
        <time>2015-05-03T08:04:42Z</time>
      </trkpt>
      <trkpt lat="43.7748" lon="6.61125">
        <ele>1052</ele>
        <time>2015-05-03T08:04:49Z</time>
      </trkpt>
      <trkpt lat="43.77479" lon="6.61126">
        <ele>1052.2</ele>
        <time>2015-05-03T08:04:50Z</time>
      </trkpt>
      <trkpt lat="43.77476" lon="6.61148">
        <ele>1052.2</ele>
        <time>2015-05-03T08:05:04Z</time>
      </trkpt>
      <trkpt lat="43.77475" lon="6.6116">
        <ele>1052.7</ele>
        <time>2015-05-03T08:05:12Z</time>
      </trkpt>
      <trkpt lat="43.77473" lon="6.61172">
        <ele>1054.2</ele>
        <time>2015-05-03T08:05:20Z</time>
      </trkpt>
      <trkpt lat="43.7747" lon="6.61183">
        <ele>1053.1</ele>
        <time>2015-05-03T08:05:28Z</time>
      </trkpt>
      <trkpt lat="43.77465" lon="6.61194">
        <ele>1053.5</ele>
        <time>2015-05-03T08:05:36Z</time>
      </trkpt>
      <trkpt lat="43.7746" lon="6.61202">
        <ele>1052.8</ele>
        <time>2015-05-03T08:05:48Z</time>
      </trkpt>
      <trkpt lat="43.77451" lon="6.61204">
        <ele>1055</ele>
        <time>2015-05-03T08:05:59Z</time>
      </trkpt>
      <trkpt lat="43.7745" lon="6.61204">
        <ele>1054.9</ele>
        <time>2015-05-03T08:06:00Z</time>
      </trkpt>
      <trkpt lat="43.77436" lon="6.61214">
        <ele>1057.6</ele>
        <time>2015-05-03T08:06:24Z</time>
      </trkpt>
      <trkpt lat="43.77432" lon="6.61225">
        <ele>1058.6</ele>
        <time>2015-05-03T08:06:33Z</time>
      </trkpt>
      <trkpt lat="43.77431" lon="6.61237">
        <ele>1058.3</ele>
        <time>2015-05-03T08:06:42Z</time>
      </trkpt>
      <trkpt lat="43.77426" lon="6.61248">
        <ele>1059.5</ele>
        <time>2015-05-03T08:07:04Z</time>
      </trkpt>
      <trkpt lat="43.77425" lon="6.61249">
        <ele>1059.7</ele>
        <time>2015-05-03T08:07:05Z</time>
      </trkpt>
      <trkpt lat="43.77414" lon="6.61263">
        <ele>1060.1</ele>
        <time>2015-05-03T08:07:21Z</time>
      </trkpt>
      <trkpt lat="43.7741" lon="6.61274">
        <ele>1060.1</ele>
        <time>2015-05-03T08:07:28Z</time>
      </trkpt>
      <trkpt lat="43.77406" lon="6.61284">
        <ele>1060.1</ele>
        <time>2015-05-03T08:07:35Z</time>
      </trkpt>
      <trkpt lat="43.77407" lon="6.61295">
        <ele>1060.2</ele>
        <time>2015-05-03T08:07:41Z</time>
      </trkpt>
      <trkpt lat="43.77407" lon="6.61307">
        <ele>1060.3</ele>
        <time>2015-05-03T08:07:47Z</time>
      </trkpt>
      <trkpt lat="43.77407" lon="6.61319">
        <ele>1060.3</ele>
        <time>2015-05-03T08:07:54Z</time>
      </trkpt>
      <trkpt lat="43.77404" lon="6.6133">
        <ele>1060.2</ele>
        <time>2015-05-03T08:08:01Z</time>
      </trkpt>
      <trkpt lat="43.77399" lon="6.6134">
        <ele>1058.8</ele>
        <time>2015-05-03T08:08:08Z</time>
      </trkpt>
      <trkpt lat="43.77399" lon="6.61342">
        <ele>1058.8</ele>
        <time>2015-05-03T08:08:09Z</time>
      </trkpt>
      <trkpt lat="43.77392" lon="6.61362">
        <ele>1058.9</ele>
        <time>2015-05-03T08:08:21Z</time>
      </trkpt>
      <trkpt lat="43.77388" lon="6.61371">
        <ele>1057.6</ele>
        <time>2015-05-03T08:08:29Z</time>
      </trkpt>
      <trkpt lat="43.77382" lon="6.61379">
        <ele>1057.1</ele>
        <time>2015-05-03T08:08:36Z</time>
      </trkpt>
      <trkpt lat="43.77376" lon="6.61385">
        <ele>1057.5</ele>
        <time>2015-05-03T08:08:41Z</time>
      </trkpt>
      <trkpt lat="43.7737" lon="6.61393">
        <ele>1057</ele>
        <time>2015-05-03T08:08:48Z</time>
      </trkpt>
      <trkpt lat="43.77362" lon="6.614">
        <ele>1055.1</ele>
        <time>2015-05-03T08:08:55Z</time>
      </trkpt>
      <trkpt lat="43.77355" lon="6.61406">
        <ele>1055</ele>
        <time>2015-05-03T08:09:03Z</time>
      </trkpt>
      <trkpt lat="43.77347" lon="6.61412">
        <ele>1055</ele>
        <time>2015-05-03T08:09:11Z</time>
      </trkpt>
      <trkpt lat="43.77346" lon="6.61412">
        <ele>1054.8</ele>
        <time>2015-05-03T08:09:12Z</time>
      </trkpt>
      <trkpt lat="43.77334" lon="6.61423">
        <ele>1053.6</ele>
        <time>2015-05-03T08:09:28Z</time>
      </trkpt>
      <trkpt lat="43.77327" lon="6.6143">
        <ele>1052</ele>
        <time>2015-05-03T08:09:36Z</time>
      </trkpt>
      <trkpt lat="43.77322" lon="6.61438">
        <ele>1051.7</ele>
        <time>2015-05-03T08:09:43Z</time>
      </trkpt>
      <trkpt lat="43.77317" lon="6.61449">
        <ele>1052.4</ele>
        <time>2015-05-03T08:09:50Z</time>
      </trkpt>
      <trkpt lat="43.77312" lon="6.61458">
        <ele>1051.8</ele>
        <time>2015-05-03T08:09:57Z</time>
      </trkpt>
      <trkpt lat="43.77307" lon="6.61467">
        <ele>1051.1</ele>
        <time>2015-05-03T08:10:06Z</time>
      </trkpt>
      <trkpt lat="43.77301" lon="6.61476">
        <ele>1049.9</ele>
        <time>2015-05-03T08:10:15Z</time>
      </trkpt>
      <trkpt lat="43.773" lon="6.61477">
        <ele>1049.8</ele>
        <time>2015-05-03T08:10:16Z</time>
      </trkpt>
      <trkpt lat="43.77288" lon="6.61492">
        <ele>1048.9</ele>
        <time>2015-05-03T08:10:39Z</time>
      </trkpt>
      <trkpt lat="43.77282" lon="6.615">
        <ele>1048</ele>
        <time>2015-05-03T08:10:48Z</time>
      </trkpt>
      <trkpt lat="43.77278" lon="6.61509">
        <ele>1048.4</ele>
        <time>2015-05-03T08:10:56Z</time>
      </trkpt>
      <trkpt lat="43.77273" lon="6.61518">
        <ele>1047.8</ele>
        <time>2015-05-03T08:11:04Z</time>
      </trkpt>
      <trkpt lat="43.77267" lon="6.61526">
        <ele>1048.2</ele>
        <time>2015-05-03T08:11:12Z</time>
      </trkpt>
      <trkpt lat="43.77262" lon="6.61535">
        <ele>1047.4</ele>
        <time>2015-05-03T08:11:20Z</time>
      </trkpt>
      <trkpt lat="43.77261" lon="6.61536">
        <ele>1047.1</ele>
        <time>2015-05-03T08:11:21Z</time>
      </trkpt>
      <trkpt lat="43.77249" lon="6.6155">
        <ele>1047.7</ele>
        <time>2015-05-03T08:11:35Z</time>
      </trkpt>
      <trkpt lat="43.77245" lon="6.6156">
        <ele>1047.8</ele>
        <time>2015-05-03T08:11:42Z</time>
      </trkpt>
      <trkpt lat="43.7724" lon="6.6157">
        <ele>1047</ele>
        <time>2015-05-03T08:11:48Z</time>
      </trkpt>
      <trkpt lat="43.77236" lon="6.61579">
        <ele>1046.8</ele>
        <time>2015-05-03T08:11:54Z</time>
      </trkpt>
      <trkpt lat="43.77232" lon="6.6159">
        <ele>1046.3</ele>
        <time>2015-05-03T08:12:02Z</time>
      </trkpt>
      <trkpt lat="43.77227" lon="6.61599">
        <ele>1045.5</ele>
        <time>2015-05-03T08:12:10Z</time>
      </trkpt>
      <trkpt lat="43.77223" lon="6.6161">
        <ele>1044.9</ele>
        <time>2015-05-03T08:12:19Z</time>
      </trkpt>
      <trkpt lat="43.77218" lon="6.61619">
        <ele>1043.9</ele>
        <time>2015-05-03T08:12:28Z</time>
      </trkpt>
      <trkpt lat="43.77217" lon="6.6162">
        <ele>1044</ele>
        <time>2015-05-03T08:12:29Z</time>
      </trkpt>
      <trkpt lat="43.77209" lon="6.61639">
        <ele>1043.5</ele>
        <time>2015-05-03T08:12:47Z</time>
      </trkpt>
      <trkpt lat="43.77204" lon="6.61648">
        <ele>1043.2</ele>
        <time>2015-05-03T08:12:53Z</time>
      </trkpt>
      <trkpt lat="43.77197" lon="6.61655">
        <ele>1042.8</ele>
        <time>2015-05-03T08:13:00Z</time>
      </trkpt>
      <trkpt lat="43.77191" lon="6.61664">
        <ele>1042</ele>
        <time>2015-05-03T08:13:07Z</time>
      </trkpt>
      <trkpt lat="43.77187" lon="6.61673">
        <ele>1041.2</ele>
        <time>2015-05-03T08:13:14Z</time>
      </trkpt>
      <trkpt lat="43.77182" lon="6.61683">
        <ele>1040.9</ele>
        <time>2015-05-03T08:13:22Z</time>
      </trkpt>
      <trkpt lat="43.77176" lon="6.61691">
        <ele>1040.7</ele>
        <time>2015-05-03T08:13:29Z</time>
      </trkpt>
      <trkpt lat="43.77175" lon="6.61692">
        <ele>1040.4</ele>
        <time>2015-05-03T08:13:30Z</time>
      </trkpt>
      <trkpt lat="43.77164" lon="6.61705">
        <ele>1040.8</ele>
        <time>2015-05-03T08:13:45Z</time>
      </trkpt>
      <trkpt lat="43.77156" lon="6.61707">
        <ele>1039</ele>
        <time>2015-05-03T08:13:51Z</time>
      </trkpt>
      <trkpt lat="43.77147" lon="6.6171">
        <ele>1039.1</ele>
        <time>2015-05-03T08:14:10Z</time>
      </trkpt>
      <trkpt lat="43.77138" lon="6.61712">
        <ele>1039</ele>
        <time>2015-05-03T08:14:25Z</time>
      </trkpt>
      <trkpt lat="43.7713" lon="6.61712">
        <ele>1038.8</ele>
        <time>2015-05-03T08:14:32Z</time>
      </trkpt>
      <trkpt lat="43.77129" lon="6.61712">
        <ele>1038.8</ele>
        <time>2015-05-03T08:14:33Z</time>
      </trkpt>
      <trkpt lat="43.77114" lon="6.6171">
        <ele>1038.8</ele>
        <time>2015-05-03T08:14:47Z</time>
      </trkpt>
      <trkpt lat="43.77106" lon="6.61709">
        <ele>1038.6</ele>
        <time>2015-05-03T08:14:55Z</time>
      </trkpt>
      <trkpt lat="43.77098" lon="6.61709">
        <ele>1037.8</ele>
        <time>2015-05-03T08:15:03Z</time>
      </trkpt>
      <trkpt lat="43.77089" lon="6.6171">
        <ele>1037.1</ele>
        <time>2015-05-03T08:15:12Z</time>
      </trkpt>
      <trkpt lat="43.77081" lon="6.61709">
        <ele>1037</ele>
        <time>2015-05-03T08:15:20Z</time>
      </trkpt>
      <trkpt lat="43.77073" lon="6.61709">
        <ele>1037.5</ele>
        <time>2015-05-03T08:15:29Z</time>
      </trkpt>
      <trkpt lat="43.77065" lon="6.61705">
        <ele>1038</ele>
        <time>2015-05-03T08:15:36Z</time>
      </trkpt>
      <trkpt lat="43.77064" lon="6.61704">
        <ele>1038</ele>
        <time>2015-05-03T08:15:37Z</time>
      </trkpt>
      <trkpt lat="43.7705" lon="6.61694">
        <ele>1037.6</ele>
        <time>2015-05-03T08:15:49Z</time>
      </trkpt>
      <trkpt lat="43.77043" lon="6.61689">
        <ele>1037.2</ele>
        <time>2015-05-03T08:15:54Z</time>
      </trkpt>
      <trkpt lat="43.77036" lon="6.61681">
        <ele>1037.5</ele>
        <time>2015-05-03T08:16:01Z</time>
      </trkpt>
      <trkpt lat="43.77029" lon="6.61676">
        <ele>1037.9</ele>
        <time>2015-05-03T08:16:09Z</time>
      </trkpt>
      <trkpt lat="43.7702" lon="6.61672">
        <ele>1039.2</ele>
        <time>2015-05-03T08:16:20Z</time>
      </trkpt>
      <trkpt lat="43.77013" lon="6.61676">
        <ele>1038.5</ele>
        <time>2015-05-03T08:16:27Z</time>
      </trkpt>
      <trkpt lat="43.77004" lon="6.6168">
        <ele>1039.4</ele>
        <time>2015-05-03T08:16:34Z</time>
      </trkpt>
      <trkpt lat="43.76996" lon="6.61681">
        <ele>1038.3</ele>
        <time>2015-05-03T08:16:41Z</time>
      </trkpt>
      <trkpt lat="43.76995" lon="6.61681">
        <ele>1038.4</ele>
        <time>2015-05-03T08:16:42Z</time>
      </trkpt>
      <trkpt lat="43.76979" lon="6.61688">
        <ele>1039.5</ele>
        <time>2015-05-03T08:16:57Z</time>
      </trkpt>
      <trkpt lat="43.76972" lon="6.61694">
        <ele>1038.8</ele>
        <time>2015-05-03T08:17:04Z</time>
      </trkpt>
      <trkpt lat="43.76964" lon="6.61699">
        <ele>1037.4</ele>
        <time>2015-05-03T08:17:13Z</time>
      </trkpt>
      <trkpt lat="43.76955" lon="6.61702">
        <ele>1036.5</ele>
        <time>2015-05-03T08:17:21Z</time>
      </trkpt>
      <trkpt lat="43.76948" lon="6.61707">
        <ele>1035.8</ele>
        <time>2015-05-03T08:17:29Z</time>
      </trkpt>
      <trkpt lat="43.7694" lon="6.61711">
        <ele>1036.7</ele>
        <time>2015-05-03T08:17:36Z</time>
      </trkpt>
      <trkpt lat="43.76932" lon="6.61712">
        <ele>1037</ele>
        <time>2015-05-03T08:17:42Z</time>
      </trkpt>
      <trkpt lat="43.7693" lon="6.61712">
        <ele>1036.7</ele>
        <time>2015-05-03T08:17:43Z</time>
      </trkpt>
      <trkpt lat="43.76915" lon="6.61711">
        <ele>1035.9</ele>
        <time>2015-05-03T08:17:56Z</time>
      </trkpt>
      <trkpt lat="43.76907" lon="6.61715">
        <ele>1036</ele>
        <time>2015-05-03T08:18:03Z</time>
      </trkpt>
      <trkpt lat="43.76899" lon="6.61717">
        <ele>1035.5</ele>
        <time>2015-05-03T08:18:11Z</time>
      </trkpt>
      <trkpt lat="43.76892" lon="6.61712">
        <ele>1035.9</ele>
        <time>2015-05-03T08:18:22Z</time>
      </trkpt>
      <trkpt lat="43.76883" lon="6.61709">
        <ele>1035.9</ele>
        <time>2015-05-03T08:18:30Z</time>
      </trkpt>
      <trkpt lat="43.76875" lon="6.61706">
        <ele>1035.9</ele>
        <time>2015-05-03T08:18:38Z</time>
      </trkpt>
      <trkpt lat="43.76867" lon="6.61702">
        <ele>1035.2</ele>
        <time>2015-05-03T08:18:45Z</time>
      </trkpt>
      <trkpt lat="43.76866" lon="6.61703">
        <ele>1035.1</ele>
        <time>2015-05-03T08:18:46Z</time>
      </trkpt>
      <trkpt lat="43.7685" lon="6.61693">
        <ele>1036.2</ele>
        <time>2015-05-03T08:19:01Z</time>
      </trkpt>
      <trkpt lat="43.76843" lon="6.6169">
        <ele>1037</ele>
        <time>2015-05-03T08:19:08Z</time>
      </trkpt>
      <trkpt lat="43.76835" lon="6.61687">
        <ele>1036.2</ele>
        <time>2015-05-03T08:19:14Z</time>
      </trkpt>
      <trkpt lat="43.76826" lon="6.61685">
        <ele>1036.3</ele>
        <time>2015-05-03T08:19:23Z</time>
      </trkpt>
      <trkpt lat="43.76817" lon="6.61686">
        <ele>1035.6</ele>
        <time>2015-05-03T08:19:31Z</time>
      </trkpt>
      <trkpt lat="43.7681" lon="6.61686">
        <ele>1035.7</ele>
        <time>2015-05-03T08:19:38Z</time>
      </trkpt>
      <trkpt lat="43.76801" lon="6.61685">
        <ele>1035.9</ele>
        <time>2015-05-03T08:19:44Z</time>
      </trkpt>
      <trkpt lat="43.76793" lon="6.61685">
        <ele>1035.9</ele>
        <time>2015-05-03T08:19:51Z</time>
      </trkpt>
      <trkpt lat="43.76792" lon="6.61685">
        <ele>1035</ele>
        <time>2015-05-03T08:19:52Z</time>
      </trkpt>
      <trkpt lat="43.76778" lon="6.61686">
        <ele>1035.6</ele>
        <time>2015-05-03T08:20:04Z</time>
      </trkpt>
      <trkpt lat="43.7677" lon="6.61685">
        <ele>1035.1</ele>
        <time>2015-05-03T08:20:10Z</time>
      </trkpt>
      <trkpt lat="43.76761" lon="6.61685">
        <ele>1035</ele>
        <time>2015-05-03T08:20:18Z</time>
      </trkpt>
      <trkpt lat="43.76754" lon="6.61678">
        <ele>1033.7</ele>
        <time>2015-05-03T08:20:25Z</time>
      </trkpt>
      <trkpt lat="43.76748" lon="6.61671">
        <ele>1034.1</ele>
        <time>2015-05-03T08:20:31Z</time>
      </trkpt>
      <trkpt lat="43.76739" lon="6.61668">
        <ele>1034.5</ele>
        <time>2015-05-03T08:20:39Z</time>
      </trkpt>
      <trkpt lat="43.76731" lon="6.61668">
        <ele>1033.3</ele>
        <time>2015-05-03T08:20:49Z</time>
      </trkpt>
      <trkpt lat="43.76722" lon="6.61667">
        <ele>1034.2</ele>
        <time>2015-05-03T08:20:55Z</time>
      </trkpt>
      <trkpt lat="43.7672" lon="6.61665">
        <ele>1034.3</ele>
        <time>2015-05-03T08:20:56Z</time>
      </trkpt>
      <trkpt lat="43.76706" lon="6.61664">
        <ele>1033.9</ele>
        <time>2015-05-03T08:21:05Z</time>
      </trkpt>
      <trkpt lat="43.76698" lon="6.61666">
        <ele>1034.1</ele>
        <time>2015-05-03T08:21:14Z</time>
      </trkpt>
      <trkpt lat="43.7669" lon="6.6167">
        <ele>1033.3</ele>
        <time>2015-05-03T08:21:35Z</time>
      </trkpt>
      <trkpt lat="43.76685" lon="6.6168">
        <ele>1033.5</ele>
        <time>2015-05-03T08:22:09Z</time>
      </trkpt>
      <trkpt lat="43.76684" lon="6.6168">
        <ele>1033.1</ele>
        <time>2015-05-03T08:22:10Z</time>
      </trkpt>
      <trkpt lat="43.76669" lon="6.61686">
        <ele>1030.9</ele>
        <time>2015-05-03T08:22:27Z</time>
      </trkpt>
      <trkpt lat="43.7666" lon="6.61687">
        <ele>1030.4</ele>
        <time>2015-05-03T08:22:33Z</time>
      </trkpt>
      <trkpt lat="43.76652" lon="6.61689">
        <ele>1030.2</ele>
        <time>2015-05-03T08:22:40Z</time>
      </trkpt>
      <trkpt lat="43.76645" lon="6.61695">
        <ele>1029.1</ele>
        <time>2015-05-03T08:22:47Z</time>
      </trkpt>
      <trkpt lat="43.76637" lon="6.61702">
        <ele>1028.7</ele>
        <time>2015-05-03T08:22:54Z</time>
      </trkpt>
      <trkpt lat="43.7663" lon="6.61708">
        <ele>1027.3</ele>
        <time>2015-05-03T08:23:01Z</time>
      </trkpt>
      <trkpt lat="43.76622" lon="6.61712">
        <ele>1025.4</ele>
        <time>2015-05-03T08:23:10Z</time>
      </trkpt>
      <trkpt lat="43.7662" lon="6.61713">
        <ele>1025</ele>
        <time>2015-05-03T08:23:11Z</time>
      </trkpt>
      <trkpt lat="43.76611" lon="6.61729">
        <ele>1022.9</ele>
        <time>2015-05-03T08:23:25Z</time>
      </trkpt>
      <trkpt lat="43.76606" lon="6.61739">
        <ele>1022.2</ele>
        <time>2015-05-03T08:23:33Z</time>
      </trkpt>
      <trkpt lat="43.766" lon="6.61746">
        <ele>1020.6</ele>
        <time>2015-05-03T08:23:40Z</time>
      </trkpt>
      <trkpt lat="43.76592" lon="6.61746">
        <ele>1020</ele>
        <time>2015-05-03T08:23:49Z</time>
      </trkpt>
      <trkpt lat="43.76598" lon="6.61739">
        <ele>1018.5</ele>
        <time>2015-05-03T08:24:24Z</time>
      </trkpt>
      <trkpt lat="43.766" lon="6.6174">
        <ele>1018.4</ele>
        <time>2015-05-03T08:24:25Z</time>
      </trkpt>
      <trkpt lat="43.76603" lon="6.61728">
        <ele>1019.4</ele>
        <time>2015-05-03T08:26:18Z</time>
      </trkpt>
      <trkpt lat="43.76605" lon="6.61706">
        <ele>1020.5</ele>
        <time>2015-05-03T08:26:54Z</time>
      </trkpt>
      <trkpt lat="43.7661" lon="6.61696">
        <ele>1020.9</ele>
        <time>2015-05-03T08:27:02Z</time>
      </trkpt>
      <trkpt lat="43.76611" lon="6.61685">
        <ele>1020.9</ele>
        <time>2015-05-03T08:27:12Z</time>
      </trkpt>
      <trkpt lat="43.76614" lon="6.61675">
        <ele>1020.4</ele>
        <time>2015-05-03T08:27:19Z</time>
      </trkpt>
      <trkpt lat="43.76615" lon="6.61673">
        <ele>1020.1</ele>
        <time>2015-05-03T08:27:20Z</time>
      </trkpt>
      <trkpt lat="43.76617" lon="6.61651">
        <ele>1020.8</ele>
        <time>2015-05-03T08:27:36Z</time>
      </trkpt>
      <trkpt lat="43.76618" lon="6.6164">
        <ele>1022.2</ele>
        <time>2015-05-03T08:27:45Z</time>
      </trkpt>
      <trkpt lat="43.7662" lon="6.61629">
        <ele>1022.6</ele>
        <time>2015-05-03T08:27:53Z</time>
      </trkpt>
      <trkpt lat="43.76619" lon="6.61617">
        <ele>1022.9</ele>
        <time>2015-05-03T08:28:00Z</time>
      </trkpt>
      <trkpt lat="43.76617" lon="6.61605">
        <ele>1022.9</ele>
        <time>2015-05-03T08:28:06Z</time>
      </trkpt>
      <trkpt lat="43.76619" lon="6.61594">
        <ele>1022.8</ele>
        <time>2015-05-03T08:28:13Z</time>
      </trkpt>
      <trkpt lat="43.76618" lon="6.61583">
        <ele>1023.6</ele>
        <time>2015-05-03T08:28:23Z</time>
      </trkpt>
      <trkpt lat="43.76618" lon="6.61581">
        <ele>1023.7</ele>
        <time>2015-05-03T08:28:24Z</time>
      </trkpt>
      <trkpt lat="43.76621" lon="6.61561">
        <ele>1023.4</ele>
        <time>2015-05-03T08:28:39Z</time>
      </trkpt>
      <trkpt lat="43.76622" lon="6.61549">
        <ele>1024.2</ele>
        <time>2015-05-03T08:28:46Z</time>
      </trkpt>
      <trkpt lat="43.76623" lon="6.61539">
        <ele>1024</ele>
        <time>2015-05-03T08:28:54Z</time>
      </trkpt>
      <trkpt lat="43.76625" lon="6.61527">
        <ele>1024.6</ele>
        <time>2015-05-03T08:29:02Z</time>
      </trkpt>
      <trkpt lat="43.76627" lon="6.61515">
        <ele>1024.3</ele>
        <time>2015-05-03T08:29:11Z</time>
      </trkpt>
      <trkpt lat="43.76629" lon="6.61504">
        <ele>1024.1</ele>
        <time>2015-05-03T08:29:19Z</time>
      </trkpt>
      <trkpt lat="43.76626" lon="6.61492">
        <ele>1024.8</ele>
        <time>2015-05-03T08:29:29Z</time>
      </trkpt>
      <trkpt lat="43.76627" lon="6.61491">
        <ele>1025</ele>
        <time>2015-05-03T08:29:30Z</time>
      </trkpt>
      <trkpt lat="43.76629" lon="6.61469">
        <ele>1026.1</ele>
        <time>2015-05-03T08:29:46Z</time>
      </trkpt>
      <trkpt lat="43.76628" lon="6.61457">
        <ele>1026.9</ele>
        <time>2015-05-03T08:29:55Z</time>
      </trkpt>
      <trkpt lat="43.7663" lon="6.61445">
        <ele>1027.5</ele>
        <time>2015-05-03T08:30:05Z</time>
      </trkpt>
      <trkpt lat="43.76636" lon="6.61435">
        <ele>1028.5</ele>
        <time>2015-05-03T08:30:16Z</time>
      </trkpt>
      <trkpt lat="43.76641" lon="6.61425">
        <ele>1029</ele>
        <time>2015-05-03T08:30:26Z</time>
      </trkpt>
      <trkpt lat="43.76643" lon="6.61415">
        <ele>1029.9</ele>
        <time>2015-05-03T08:30:35Z</time>
      </trkpt>
      <trkpt lat="43.76643" lon="6.61413">
        <ele>1029.5</ele>
        <time>2015-05-03T08:30:36Z</time>
      </trkpt>
      <trkpt lat="43.76646" lon="6.61392">
        <ele>1030.8</ele>
        <time>2015-05-03T08:30:51Z</time>
      </trkpt>
      <trkpt lat="43.76649" lon="6.61381">
        <ele>1031.9</ele>
        <time>2015-05-03T08:31:13Z</time>
      </trkpt>
      <trkpt lat="43.76649" lon="6.6137">
        <ele>1032.2</ele>
        <time>2015-05-03T08:31:21Z</time>
      </trkpt>
      <trkpt lat="43.7665" lon="6.61358">
        <ele>1032.8</ele>
        <time>2015-05-03T08:31:30Z</time>
      </trkpt>
      <trkpt lat="43.76648" lon="6.61346">
        <ele>1032.9</ele>
        <time>2015-05-03T08:31:43Z</time>
      </trkpt>
      <trkpt lat="43.76649" lon="6.61345">
        <ele>1032.6</ele>
        <time>2015-05-03T08:31:44Z</time>
      </trkpt>
      <trkpt lat="43.76653" lon="6.61324">
        <ele>1032.7</ele>
        <time>2015-05-03T08:32:12Z</time>
      </trkpt>
      <trkpt lat="43.76657" lon="6.61313">
        <ele>1034</ele>
        <time>2015-05-03T08:32:19Z</time>
      </trkpt>
      <trkpt lat="43.76655" lon="6.61303">
        <ele>1034.2</ele>
        <time>2015-05-03T08:32:25Z</time>
      </trkpt>
      <trkpt lat="43.76653" lon="6.61292">
        <ele>1034.1</ele>
        <time>2015-05-03T08:32:32Z</time>
      </trkpt>
      <trkpt lat="43.76652" lon="6.6128">
        <ele>1034.3</ele>
        <time>2015-05-03T08:32:41Z</time>
      </trkpt>
      <trkpt lat="43.76651" lon="6.61268">
        <ele>1034.8</ele>
        <time>2015-05-03T08:32:52Z</time>
      </trkpt>
      <trkpt lat="43.76652" lon="6.61266">
        <ele>1035</ele>
        <time>2015-05-03T08:32:53Z</time>
      </trkpt>
      <trkpt lat="43.76655" lon="6.61245">
        <ele>1036.5</ele>
        <time>2015-05-03T08:33:07Z</time>
      </trkpt>
      <trkpt lat="43.76653" lon="6.61234">
        <ele>1035.7</ele>
        <time>2015-05-03T08:33:16Z</time>
      </trkpt>
      <trkpt lat="43.76653" lon="6.61222">
        <ele>1036.8</ele>
        <time>2015-05-03T08:33:23Z</time>
      </trkpt>
      <trkpt lat="43.76654" lon="6.6121">
        <ele>1036.7</ele>
        <time>2015-05-03T08:33:33Z</time>
      </trkpt>
      <trkpt lat="43.76659" lon="6.61201">
        <ele>1037.1</ele>
        <time>2015-05-03T08:33:42Z</time>
      </trkpt>
      <trkpt lat="43.76663" lon="6.61191">
        <ele>1038.6</ele>
        <time>2015-05-03T08:33:49Z</time>
      </trkpt>
      <trkpt lat="43.76663" lon="6.61179">
        <ele>1037.8</ele>
        <time>2015-05-03T08:33:56Z</time>
      </trkpt>
      <trkpt lat="43.76664" lon="6.61178">
        <ele>1038</ele>
        <time>2015-05-03T08:33:57Z</time>
      </trkpt>
      <trkpt lat="43.76663" lon="6.61156">
        <ele>1038.8</ele>
        <time>2015-05-03T08:34:13Z</time>
      </trkpt>
      <trkpt lat="43.76661" lon="6.61145">
        <ele>1038.8</ele>
        <time>2015-05-03T08:34:20Z</time>
      </trkpt>
      <trkpt lat="43.76665" lon="6.61134">
        <ele>1038.5</ele>
        <time>2015-05-03T08:34:28Z</time>
      </trkpt>
      <trkpt lat="43.76666" lon="6.61123">
        <ele>1039.7</ele>
        <time>2015-05-03T08:34:37Z</time>
      </trkpt>
      <trkpt lat="43.76662" lon="6.61112">
        <ele>1039.5</ele>
        <time>2015-05-03T08:34:43Z</time>
      </trkpt>
      <trkpt lat="43.76661" lon="6.61101">
        <ele>1040.5</ele>
        <time>2015-05-03T08:34:50Z</time>
      </trkpt>
      <trkpt lat="43.76661" lon="6.6109">
        <ele>1041.5</ele>
        <time>2015-05-03T08:34:57Z</time>
      </trkpt>
      <trkpt lat="43.76661" lon="6.61089">
        <ele>1041.4</ele>
        <time>2015-05-03T08:34:58Z</time>
      </trkpt>
      <trkpt lat="43.76658" lon="6.61068">
        <ele>1040.8</ele>
        <time>2015-05-03T08:35:15Z</time>
      </trkpt>
      <trkpt lat="43.76656" lon="6.61056">
        <ele>1040.9</ele>
        <time>2015-05-03T08:35:23Z</time>
      </trkpt>
      <trkpt lat="43.76658" lon="6.61045">
        <ele>1041.8</ele>
        <time>2015-05-03T08:35:33Z</time>
      </trkpt>
      <trkpt lat="43.76659" lon="6.61033">
        <ele>1041.7</ele>
        <time>2015-05-03T08:35:42Z</time>
      </trkpt>
      <trkpt lat="43.76661" lon="6.61021">
        <ele>1042.5</ele>
        <time>2015-05-03T08:35:49Z</time>
      </trkpt>
      <trkpt lat="43.7666" lon="6.61009">
        <ele>1041.9</ele>
        <time>2015-05-03T08:35:56Z</time>
      </trkpt>
      <trkpt lat="43.7666" lon="6.60999">
        <ele>1041.9</ele>
        <time>2015-05-03T08:36:04Z</time>
      </trkpt>
      <trkpt lat="43.7666" lon="6.60997">
        <ele>1041.7</ele>
        <time>2015-05-03T08:36:05Z</time>
      </trkpt>
      <trkpt lat="43.76659" lon="6.60977">
        <ele>1042.7</ele>
        <time>2015-05-03T08:36:18Z</time>
      </trkpt>
      <trkpt lat="43.76661" lon="6.60962">
        <ele>1043</ele>
        <time>2015-05-03T08:36:26Z</time>
      </trkpt>
      <trkpt lat="43.76661" lon="6.60951">
        <ele>1043.2</ele>
        <time>2015-05-03T08:36:33Z</time>
      </trkpt>
      <trkpt lat="43.76664" lon="6.6094">
        <ele>1043.4</ele>
        <time>2015-05-03T08:36:41Z</time>
      </trkpt>
      <trkpt lat="43.76662" lon="6.60929">
        <ele>1044.6</ele>
        <time>2015-05-03T08:36:48Z</time>
      </trkpt>
      <trkpt lat="43.76656" lon="6.60921">
        <ele>1045.2</ele>
        <time>2015-05-03T08:36:55Z</time>
      </trkpt>
      <trkpt lat="43.76653" lon="6.60909">
        <ele>1045.3</ele>
        <time>2015-05-03T08:37:02Z</time>
      </trkpt>
      <trkpt lat="43.76653" lon="6.60897">
        <ele>1045.6</ele>
        <time>2015-05-03T08:37:10Z</time>
      </trkpt>
      <trkpt lat="43.76652" lon="6.60896">
        <ele>1045.9</ele>
        <time>2015-05-03T08:37:11Z</time>
      </trkpt>
      <trkpt lat="43.76655" lon="6.60877">
        <ele>1045.8</ele>
        <time>2015-05-03T08:37:24Z</time>
      </trkpt>
      <trkpt lat="43.76654" lon="6.60865">
        <ele>1047.5</ele>
        <time>2015-05-03T08:37:34Z</time>
      </trkpt>
      <trkpt lat="43.76657" lon="6.60854">
        <ele>1047.5</ele>
        <time>2015-05-03T08:37:41Z</time>
      </trkpt>
      <trkpt lat="43.76657" lon="6.60843">
        <ele>1046.5</ele>
        <time>2015-05-03T08:37:48Z</time>
      </trkpt>
      <trkpt lat="43.76659" lon="6.60831">
        <ele>1046.9</ele>
        <time>2015-05-03T08:38:02Z</time>
      </trkpt>
      <trkpt lat="43.76653" lon="6.60839">
        <ele>1047.3</ele>
        <time>2015-05-03T08:40:22Z</time>
      </trkpt>
      <trkpt lat="43.76653" lon="6.60842">
        <ele>1047.3</ele>
        <time>2015-05-03T08:40:23Z</time>
      </trkpt>
      <trkpt lat="43.76655" lon="6.60816">
        <ele>1046.6</ele>
        <time>2015-05-03T08:43:13Z</time>
      </trkpt>
      <trkpt lat="43.76654" lon="6.60815">
        <ele>1046.6</ele>
        <time>2015-05-03T08:43:14Z</time>
      </trkpt>
      <trkpt lat="43.7666" lon="6.60805">
        <ele>1047.5</ele>
        <time>2015-05-03T08:45:35Z</time>
      </trkpt>
      <trkpt lat="43.76646" lon="6.6082">
        <ele>1047</ele>
        <time>2015-05-03T08:46:43Z</time>
      </trkpt>
      <trkpt lat="43.76645" lon="6.6082">
        <ele>1046.9</ele>
        <time>2015-05-03T08:46:47Z</time>
      </trkpt>
      <trkpt lat="43.76654" lon="6.60814">
        <ele>1045.5</ele>
        <time>2015-05-03T08:48:10Z</time>
      </trkpt>
      <trkpt lat="43.76658" lon="6.60793">
        <ele>1044.2</ele>
        <time>2015-05-03T08:48:32Z</time>
      </trkpt>
      <trkpt lat="43.76657" lon="6.60781">
        <ele>1043.3</ele>
        <time>2015-05-03T08:48:47Z</time>
      </trkpt>
      <trkpt lat="43.76659" lon="6.6077">
        <ele>1043.2</ele>
        <time>2015-05-03T08:48:53Z</time>
      </trkpt>
      <trkpt lat="43.76662" lon="6.60759">
        <ele>1042.8</ele>
        <time>2015-05-03T08:49:01Z</time>
      </trkpt>
      <trkpt lat="43.7666" lon="6.60749">
        <ele>1041.5</ele>
        <time>2015-05-03T08:49:09Z</time>
      </trkpt>
      <trkpt lat="43.76657" lon="6.60737">
        <ele>1041.2</ele>
        <time>2015-05-03T08:49:17Z</time>
      </trkpt>
      <trkpt lat="43.76657" lon="6.60736">
        <ele>1040.9</ele>
        <time>2015-05-03T08:49:18Z</time>
      </trkpt>
      <trkpt lat="43.76655" lon="6.60713">
        <ele>1039.2</ele>
        <time>2015-05-03T08:49:38Z</time>
      </trkpt>
      <trkpt lat="43.76651" lon="6.60702">
        <ele>1038.9</ele>
        <time>2015-05-03T08:49:47Z</time>
      </trkpt>
      <trkpt lat="43.7665" lon="6.6069">
        <ele>1038</ele>
        <time>2015-05-03T08:49:56Z</time>
      </trkpt>
      <trkpt lat="43.76648" lon="6.60679">
        <ele>1037.3</ele>
        <time>2015-05-03T08:50:03Z</time>
      </trkpt>
      <trkpt lat="43.76646" lon="6.60668">
        <ele>1036.5</ele>
        <time>2015-05-03T08:50:12Z</time>
      </trkpt>
      <trkpt lat="43.76644" lon="6.60657">
        <ele>1035.3</ele>
        <time>2015-05-03T08:50:20Z</time>
      </trkpt>
      <trkpt lat="43.76644" lon="6.60654">
        <ele>1035.1</ele>
        <time>2015-05-03T08:50:21Z</time>
      </trkpt>
      <trkpt lat="43.76642" lon="6.60635">
        <ele>1033.5</ele>
        <time>2015-05-03T08:50:34Z</time>
      </trkpt>
      <trkpt lat="43.7664" lon="6.60624">
        <ele>1032.7</ele>
        <time>2015-05-03T08:50:43Z</time>
      </trkpt>
      <trkpt lat="43.76637" lon="6.60612">
        <ele>1031.8</ele>
        <time>2015-05-03T08:50:53Z</time>
      </trkpt>
      <trkpt lat="43.76638" lon="6.60601">
        <ele>1031.5</ele>
        <time>2015-05-03T08:51:01Z</time>
      </trkpt>
      <trkpt lat="43.76639" lon="6.60589">
        <ele>1030.4</ele>
        <time>2015-05-03T08:51:08Z</time>
      </trkpt>
      <trkpt lat="43.76638" lon="6.60577">
        <ele>1030.6</ele>
        <time>2015-05-03T08:51:15Z</time>
      </trkpt>
      <trkpt lat="43.76639" lon="6.60567">
        <ele>1029.3</ele>
        <time>2015-05-03T08:51:20Z</time>
      </trkpt>
      <trkpt lat="43.7664" lon="6.60555">
        <ele>1029</ele>
        <time>2015-05-03T08:51:27Z</time>
      </trkpt>
      <trkpt lat="43.7664" lon="6.60554">
        <ele>1029</ele>
        <time>2015-05-03T08:51:28Z</time>
      </trkpt>
      <trkpt lat="43.76638" lon="6.60534">
        <ele>1027.7</ele>
        <time>2015-05-03T08:51:44Z</time>
      </trkpt>
      <trkpt lat="43.76642" lon="6.60524">
        <ele>1026.3</ele>
        <time>2015-05-03T08:51:49Z</time>
      </trkpt>
      <trkpt lat="43.76639" lon="6.60514">
        <ele>1026.6</ele>
        <time>2015-05-03T08:51:56Z</time>
      </trkpt>
      <trkpt lat="43.76637" lon="6.60502">
        <ele>1026.2</ele>
        <time>2015-05-03T08:52:04Z</time>
      </trkpt>
      <trkpt lat="43.76634" lon="6.60492">
        <ele>1025.4</ele>
        <time>2015-05-03T08:52:11Z</time>
      </trkpt>
      <trkpt lat="43.76634" lon="6.60481">
        <ele>1024.9</ele>
        <time>2015-05-03T08:52:19Z</time>
      </trkpt>
      <trkpt lat="43.76635" lon="6.60469">
        <ele>1024.2</ele>
        <time>2015-05-03T08:52:28Z</time>
      </trkpt>
      <trkpt lat="43.76635" lon="6.60469">
        <ele>1024.3</ele>
        <time>2015-05-03T08:52:29Z</time>
      </trkpt>
      <trkpt lat="43.76636" lon="6.60446">
        <ele>1021</ele>
        <time>2015-05-03T08:52:47Z</time>
      </trkpt>
      <trkpt lat="43.76634" lon="6.60435">
        <ele>1020.3</ele>
        <time>2015-05-03T08:52:54Z</time>
      </trkpt>
      <trkpt lat="43.76635" lon="6.60423">
        <ele>1018.9</ele>
        <time>2015-05-03T08:53:02Z</time>
      </trkpt>
      <trkpt lat="43.7663" lon="6.60413">
        <ele>1018.5</ele>
        <time>2015-05-03T08:53:08Z</time>
      </trkpt>
      <trkpt lat="43.76629" lon="6.60402">
        <ele>1017</ele>
        <time>2015-05-03T08:53:17Z</time>
      </trkpt>
      <trkpt lat="43.7663" lon="6.60389">
        <ele>1017.8</ele>
        <time>2015-05-03T08:53:24Z</time>
      </trkpt>
      <trkpt lat="43.76628" lon="6.60378">
        <ele>1017</ele>
        <time>2015-05-03T08:53:32Z</time>
      </trkpt>
      <trkpt lat="43.76627" lon="6.60376">
        <ele>1017.3</ele>
        <time>2015-05-03T08:53:33Z</time>
      </trkpt>
      <trkpt lat="43.76626" lon="6.60355">
        <ele>1016</ele>
        <time>2015-05-03T08:53:48Z</time>
      </trkpt>
      <trkpt lat="43.76628" lon="6.60343">
        <ele>1015.2</ele>
        <time>2015-05-03T08:53:56Z</time>
      </trkpt>
      <trkpt lat="43.76628" lon="6.60331">
        <ele>1014.9</ele>
        <time>2015-05-03T08:54:03Z</time>
      </trkpt>
      <trkpt lat="43.76627" lon="6.60321">
        <ele>1014.4</ele>
        <time>2015-05-03T08:54:11Z</time>
      </trkpt>
      <trkpt lat="43.76623" lon="6.60311">
        <ele>1013.2</ele>
        <time>2015-05-03T08:54:19Z</time>
      </trkpt>
      <trkpt lat="43.76624" lon="6.60299">
        <ele>1013</ele>
        <time>2015-05-03T08:54:27Z</time>
      </trkpt>
      <trkpt lat="43.76622" lon="6.60287">
        <ele>1012</ele>
        <time>2015-05-03T08:54:37Z</time>
      </trkpt>
      <trkpt lat="43.76622" lon="6.60285">
        <ele>1011.9</ele>
        <time>2015-05-03T08:54:38Z</time>
      </trkpt>
      <trkpt lat="43.76619" lon="6.60265">
        <ele>1011.2</ele>
        <time>2015-05-03T08:54:54Z</time>
      </trkpt>
      <trkpt lat="43.76616" lon="6.60254">
        <ele>1009.8</ele>
        <time>2015-05-03T08:55:02Z</time>
      </trkpt>
      <trkpt lat="43.76618" lon="6.60244">
        <ele>1009.3</ele>
        <time>2015-05-03T08:55:09Z</time>
      </trkpt>
      <trkpt lat="43.7662" lon="6.60232">
        <ele>1008.8</ele>
        <time>2015-05-03T08:55:18Z</time>
      </trkpt>
      <trkpt lat="43.76617" lon="6.60222">
        <ele>1010.3</ele>
        <time>2015-05-03T08:55:27Z</time>
      </trkpt>
      <trkpt lat="43.76614" lon="6.6021">
        <ele>1009.2</ele>
        <time>2015-05-03T08:55:35Z</time>
      </trkpt>
      <trkpt lat="43.76613" lon="6.60198">
        <ele>1008.2</ele>
        <time>2015-05-03T08:55:44Z</time>
      </trkpt>
      <trkpt lat="43.76613" lon="6.60197">
        <ele>1008.4</ele>
        <time>2015-05-03T08:55:45Z</time>
      </trkpt>
      <trkpt lat="43.76614" lon="6.60175">
        <ele>1007.1</ele>
        <time>2015-05-03T08:56:03Z</time>
      </trkpt>
      <trkpt lat="43.76615" lon="6.60163">
        <ele>1006.1</ele>
        <time>2015-05-03T08:56:15Z</time>
      </trkpt>
      <trkpt lat="43.7662" lon="6.60153">
        <ele>1005.2</ele>
        <time>2015-05-03T08:56:24Z</time>
      </trkpt>
      <trkpt lat="43.76619" lon="6.60142">
        <ele>1003.8</ele>
        <time>2015-05-03T08:56:37Z</time>
      </trkpt>
      <trkpt lat="43.76616" lon="6.60131">
        <ele>1002.9</ele>
        <time>2015-05-03T08:56:46Z</time>
      </trkpt>
      <trkpt lat="43.76615" lon="6.6013">
        <ele>1002.5</ele>
        <time>2015-05-03T08:56:47Z</time>
      </trkpt>
      <trkpt lat="43.76618" lon="6.60109">
        <ele>1000.1</ele>
        <time>2015-05-03T08:57:05Z</time>
      </trkpt>
      <trkpt lat="43.76619" lon="6.60097">
        <ele>999.6</ele>
        <time>2015-05-03T08:57:14Z</time>
      </trkpt>
      <trkpt lat="43.76622" lon="6.60088">
        <ele>999.2</ele>
        <time>2015-05-03T08:57:24Z</time>
      </trkpt>
      <trkpt lat="43.76623" lon="6.60076">
        <ele>997.6</ele>
        <time>2015-05-03T08:57:31Z</time>
      </trkpt>
      <trkpt lat="43.76625" lon="6.60064">
        <ele>997</ele>
        <time>2015-05-03T08:57:42Z</time>
      </trkpt>
      <trkpt lat="43.76625" lon="6.60053">
        <ele>996.2</ele>
        <time>2015-05-03T08:57:49Z</time>
      </trkpt>
      <trkpt lat="43.76626" lon="6.60051">
        <ele>996.1</ele>
        <time>2015-05-03T08:57:50Z</time>
      </trkpt>
      <trkpt lat="43.76625" lon="6.6003">
        <ele>994.1</ele>
        <time>2015-05-03T08:58:09Z</time>
      </trkpt>
      <trkpt lat="43.76623" lon="6.60019">
        <ele>993.8</ele>
        <time>2015-05-03T08:58:19Z</time>
      </trkpt>
      <trkpt lat="43.76622" lon="6.60007">
        <ele>993.4</ele>
        <time>2015-05-03T08:58:27Z</time>
      </trkpt>
      <trkpt lat="43.76621" lon="6.59995">
        <ele>992.7</ele>
        <time>2015-05-03T08:58:35Z</time>
      </trkpt>
      <trkpt lat="43.76623" lon="6.59984">
        <ele>992.5</ele>
        <time>2015-05-03T08:58:42Z</time>
      </trkpt>
      <trkpt lat="43.76622" lon="6.59973">
        <ele>993</ele>
        <time>2015-05-03T08:58:50Z</time>
      </trkpt>
      <trkpt lat="43.76621" lon="6.59972">
        <ele>992.8</ele>
        <time>2015-05-03T08:58:51Z</time>
      </trkpt>
      <trkpt lat="43.76616" lon="6.59951">
        <ele>992.3</ele>
        <time>2015-05-03T08:59:06Z</time>
      </trkpt>
      <trkpt lat="43.76614" lon="6.59939">
        <ele>991.8</ele>
        <time>2015-05-03T08:59:14Z</time>
      </trkpt>
      <trkpt lat="43.76612" lon="6.59928">
        <ele>991.2</ele>
        <time>2015-05-03T08:59:23Z</time>
      </trkpt>
      <trkpt lat="43.76607" lon="6.59919">
        <ele>991.5</ele>
        <time>2015-05-03T08:59:33Z</time>
      </trkpt>
      <trkpt lat="43.76604" lon="6.59908">
        <ele>991.7</ele>
        <time>2015-05-03T08:59:40Z</time>
      </trkpt>
      <trkpt lat="43.76601" lon="6.59898">
        <ele>991.1</ele>
        <time>2015-05-03T08:59:46Z</time>
      </trkpt>
      <trkpt lat="43.76598" lon="6.59887">
        <ele>990.2</ele>
        <time>2015-05-03T08:59:52Z</time>
      </trkpt>
      <trkpt lat="43.76598" lon="6.59884">
        <ele>990.2</ele>
        <time>2015-05-03T08:59:53Z</time>
      </trkpt>
      <trkpt lat="43.7659" lon="6.59866">
        <ele>989.1</ele>
        <time>2015-05-03T09:00:13Z</time>
      </trkpt>
      <trkpt lat="43.76587" lon="6.59854">
        <ele>988.2</ele>
        <time>2015-05-03T09:00:24Z</time>
      </trkpt>
      <trkpt lat="43.76593" lon="6.59845">
        <ele>986.9</ele>
        <time>2015-05-03T09:00:34Z</time>
      </trkpt>
      <trkpt lat="43.76591" lon="6.59832">
        <ele>986.5</ele>
        <time>2015-05-03T09:00:46Z</time>
      </trkpt>
      <trkpt lat="43.76593" lon="6.59821">
        <ele>986.2</ele>
        <time>2015-05-03T09:00:52Z</time>
      </trkpt>
      <trkpt lat="43.76588" lon="6.59812">
        <ele>984.6</ele>
        <time>2015-05-03T09:01:04Z</time>
      </trkpt>
      <trkpt lat="43.76587" lon="6.5981">
        <ele>984.6</ele>
        <time>2015-05-03T09:01:05Z</time>
      </trkpt>
      <trkpt lat="43.76585" lon="6.59791">
        <ele>984.3</ele>
        <time>2015-05-03T09:01:13Z</time>
      </trkpt>
      <trkpt lat="43.76586" lon="6.5978">
        <ele>984.4</ele>
        <time>2015-05-03T09:01:21Z</time>
      </trkpt>
      <trkpt lat="43.76583" lon="6.59768">
        <ele>983.5</ele>
        <time>2015-05-03T09:01:29Z</time>
      </trkpt>
      <trkpt lat="43.76581" lon="6.59757">
        <ele>984.1</ele>
        <time>2015-05-03T09:01:37Z</time>
      </trkpt>
      <trkpt lat="43.76578" lon="6.59746">
        <ele>983.8</ele>
        <time>2015-05-03T09:01:46Z</time>
      </trkpt>
      <trkpt lat="43.76574" lon="6.59735">
        <ele>983.7</ele>
        <time>2015-05-03T09:01:57Z</time>
      </trkpt>
      <trkpt lat="43.76572" lon="6.59724">
        <ele>983.4</ele>
        <time>2015-05-03T09:02:05Z</time>
      </trkpt>
      <trkpt lat="43.76571" lon="6.59722">
        <ele>983.9</ele>
        <time>2015-05-03T09:02:06Z</time>
      </trkpt>
      <trkpt lat="43.76574" lon="6.597">
        <ele>984</ele>
        <time>2015-05-03T09:02:17Z</time>
      </trkpt>
      <trkpt lat="43.76569" lon="6.5969">
        <ele>984</ele>
        <time>2015-05-03T09:02:24Z</time>
      </trkpt>
      <trkpt lat="43.76566" lon="6.59679">
        <ele>983.5</ele>
        <time>2015-05-03T09:02:30Z</time>
      </trkpt>
      <trkpt lat="43.76559" lon="6.59671">
        <ele>983.3</ele>
        <time>2015-05-03T09:02:37Z</time>
      </trkpt>
      <trkpt lat="43.7656" lon="6.59659">
        <ele>984.1</ele>
        <time>2015-05-03T09:02:46Z</time>
      </trkpt>
      <trkpt lat="43.7656" lon="6.59648">
        <ele>983.3</ele>
        <time>2015-05-03T09:02:52Z</time>
      </trkpt>
      <trkpt lat="43.76559" lon="6.59638">
        <ele>983.4</ele>
        <time>2015-05-03T09:02:58Z</time>
      </trkpt>
      <trkpt lat="43.76558" lon="6.59627">
        <ele>983</ele>
        <time>2015-05-03T09:03:05Z</time>
      </trkpt>
      <trkpt lat="43.76552" lon="6.59619">
        <ele>983.7</ele>
        <time>2015-05-03T09:03:12Z</time>
      </trkpt>
      <trkpt lat="43.76551" lon="6.59618">
        <ele>984.1</ele>
        <time>2015-05-03T09:03:13Z</time>
      </trkpt>
      <trkpt lat="43.76545" lon="6.59598">
        <ele>985.1</ele>
        <time>2015-05-03T09:03:27Z</time>
      </trkpt>
      <trkpt lat="43.76542" lon="6.59588">
        <ele>984.1</ele>
        <time>2015-05-03T09:03:35Z</time>
      </trkpt>
      <trkpt lat="43.76537" lon="6.59578">
        <ele>984.3</ele>
        <time>2015-05-03T09:03:41Z</time>
      </trkpt>
      <trkpt lat="43.76533" lon="6.59567">
        <ele>983.9</ele>
        <time>2015-05-03T09:03:48Z</time>
      </trkpt>
      <trkpt lat="43.76531" lon="6.59556">
        <ele>984.6</ele>
        <time>2015-05-03T09:03:58Z</time>
      </trkpt>
      <trkpt lat="43.76528" lon="6.59544">
        <ele>983.9</ele>
        <time>2015-05-03T09:04:05Z</time>
      </trkpt>
      <trkpt lat="43.76525" lon="6.59533">
        <ele>984</ele>
        <time>2015-05-03T09:04:11Z</time>
      </trkpt>
      <trkpt lat="43.76521" lon="6.59522">
        <ele>984.1</ele>
        <time>2015-05-03T09:04:20Z</time>
      </trkpt>
      <trkpt lat="43.7652" lon="6.5952">
        <ele>984.6</ele>
        <time>2015-05-03T09:04:21Z</time>
      </trkpt>
      <trkpt lat="43.76517" lon="6.59499">
        <ele>984.7</ele>
        <time>2015-05-03T09:04:36Z</time>
      </trkpt>
      <trkpt lat="43.76519" lon="6.59488">
        <ele>985.5</ele>
        <time>2015-05-03T09:04:48Z</time>
      </trkpt>
      <trkpt lat="43.76522" lon="6.59476">
        <ele>985.2</ele>
        <time>2015-05-03T09:04:56Z</time>
      </trkpt>
      <trkpt lat="43.76523" lon="6.59464">
        <ele>986.2</ele>
        <time>2015-05-03T09:05:06Z</time>
      </trkpt>
      <trkpt lat="43.76525" lon="6.59452">
        <ele>986.6</ele>
        <time>2015-05-03T09:05:15Z</time>
      </trkpt>
      <trkpt lat="43.76525" lon="6.5944">
        <ele>986.5</ele>
        <time>2015-05-03T09:05:24Z</time>
      </trkpt>
      <trkpt lat="43.76525" lon="6.59438">
        <ele>986.4</ele>
        <time>2015-05-03T09:05:25Z</time>
      </trkpt>
      <trkpt lat="43.76527" lon="6.59418">
        <ele>987.5</ele>
        <time>2015-05-03T09:05:38Z</time>
      </trkpt>
      <trkpt lat="43.76527" lon="6.59407">
        <ele>987.2</ele>
        <time>2015-05-03T09:05:46Z</time>
      </trkpt>
      <trkpt lat="43.76527" lon="6.59396">
        <ele>987.7</ele>
        <time>2015-05-03T09:05:53Z</time>
      </trkpt>
      <trkpt lat="43.76526" lon="6.59384">
        <ele>987.3</ele>
        <time>2015-05-03T09:06:03Z</time>
      </trkpt>
      <trkpt lat="43.76526" lon="6.59372">
        <ele>989</ele>
        <time>2015-05-03T09:06:12Z</time>
      </trkpt>
      <trkpt lat="43.76526" lon="6.59361">
        <ele>988.9</ele>
        <time>2015-05-03T09:06:20Z</time>
      </trkpt>
      <trkpt lat="43.76527" lon="6.5935">
        <ele>990.4</ele>
        <time>2015-05-03T09:06:30Z</time>
      </trkpt>
      <trkpt lat="43.76528" lon="6.59348">
        <ele>990.5</ele>
        <time>2015-05-03T09:06:31Z</time>
      </trkpt>
      <trkpt lat="43.7653" lon="6.59329">
        <ele>988.6</ele>
        <time>2015-05-03T09:06:47Z</time>
      </trkpt>
      <trkpt lat="43.76527" lon="6.59318">
        <ele>988</ele>
        <time>2015-05-03T09:06:55Z</time>
      </trkpt>
      <trkpt lat="43.76524" lon="6.59307">
        <ele>987.6</ele>
        <time>2015-05-03T09:07:01Z</time>
      </trkpt>
      <trkpt lat="43.7652" lon="6.59296">
        <ele>987.4</ele>
        <time>2015-05-03T09:07:09Z</time>
      </trkpt>
      <trkpt lat="43.76517" lon="6.59284">
        <ele>985.1</ele>
        <time>2015-05-03T09:07:17Z</time>
      </trkpt>
      <trkpt lat="43.76516" lon="6.59273">
        <ele>983.8</ele>
        <time>2015-05-03T09:07:25Z</time>
      </trkpt>
      <trkpt lat="43.76514" lon="6.59261">
        <ele>983.8</ele>
        <time>2015-05-03T09:07:32Z</time>
      </trkpt>
      <trkpt lat="43.76514" lon="6.5926">
        <ele>983.5</ele>
        <time>2015-05-03T09:07:33Z</time>
      </trkpt>
      <trkpt lat="43.76508" lon="6.5924">
        <ele>981.9</ele>
        <time>2015-05-03T09:07:54Z</time>
      </trkpt>
      <trkpt lat="43.76507" lon="6.59227">
        <ele>981</ele>
        <time>2015-05-03T09:08:02Z</time>
      </trkpt>
      <trkpt lat="43.76506" lon="6.59215">
        <ele>980.5</ele>
        <time>2015-05-03T09:08:12Z</time>
      </trkpt>
      <trkpt lat="43.7651" lon="6.59205">
        <ele>979.2</ele>
        <time>2015-05-03T09:08:20Z</time>
      </trkpt>
      <trkpt lat="43.76512" lon="6.59193">
        <ele>980.2</ele>
        <time>2015-05-03T09:08:30Z</time>
      </trkpt>
      <trkpt lat="43.76512" lon="6.59181">
        <ele>978.9</ele>
        <time>2015-05-03T09:08:38Z</time>
      </trkpt>
      <trkpt lat="43.76512" lon="6.59181">
        <ele>979.5</ele>
        <time>2015-05-03T09:08:39Z</time>
      </trkpt>
      <trkpt lat="43.76511" lon="6.59158">
        <ele>977.7</ele>
        <time>2015-05-03T09:08:58Z</time>
      </trkpt>
      <trkpt lat="43.7651" lon="6.59146">
        <ele>976.6</ele>
        <time>2015-05-03T09:09:05Z</time>
      </trkpt>
      <trkpt lat="43.7651" lon="6.59135">
        <ele>975.9</ele>
        <time>2015-05-03T09:09:14Z</time>
      </trkpt>
      <trkpt lat="43.76508" lon="6.59123">
        <ele>975.5</ele>
        <time>2015-05-03T09:09:22Z</time>
      </trkpt>
      <trkpt lat="43.76505" lon="6.59112">
        <ele>975.1</ele>
        <time>2015-05-03T09:09:32Z</time>
      </trkpt>
      <trkpt lat="43.76502" lon="6.59101">
        <ele>975.1</ele>
        <time>2015-05-03T09:09:39Z</time>
      </trkpt>
      <trkpt lat="43.76501" lon="6.59099">
        <ele>975.3</ele>
        <time>2015-05-03T09:09:40Z</time>
      </trkpt>
      <trkpt lat="43.76497" lon="6.59078">
        <ele>976.7</ele>
        <time>2015-05-03T09:09:54Z</time>
      </trkpt>
      <trkpt lat="43.76498" lon="6.59067">
        <ele>975.3</ele>
        <time>2015-05-03T09:10:06Z</time>
      </trkpt>
      <trkpt lat="43.76497" lon="6.59055">
        <ele>972.9</ele>
        <time>2015-05-03T09:10:17Z</time>
      </trkpt>
      <trkpt lat="43.76492" lon="6.59044">
        <ele>972.7</ele>
        <time>2015-05-03T09:10:26Z</time>
      </trkpt>
      <trkpt lat="43.76494" lon="6.59033">
        <ele>970.9</ele>
        <time>2015-05-03T09:10:34Z</time>
      </trkpt>
      <trkpt lat="43.76493" lon="6.59022">
        <ele>970.3</ele>
        <time>2015-05-03T09:10:40Z</time>
      </trkpt>
      <trkpt lat="43.76493" lon="6.59021">
        <ele>970.1</ele>
        <time>2015-05-03T09:10:41Z</time>
      </trkpt>
      <trkpt lat="43.76491" lon="6.58999">
        <ele>969.7</ele>
        <time>2015-05-03T09:10:56Z</time>
      </trkpt>
      <trkpt lat="43.76493" lon="6.58989">
        <ele>969.4</ele>
        <time>2015-05-03T09:11:07Z</time>
      </trkpt>
      <trkpt lat="43.76494" lon="6.58977">
        <ele>969.5</ele>
        <time>2015-05-03T09:11:16Z</time>
      </trkpt>
      <trkpt lat="43.76492" lon="6.58965">
        <ele>968.6</ele>
        <time>2015-05-03T09:11:27Z</time>
      </trkpt>
      <trkpt lat="43.7649" lon="6.58953">
        <ele>967.5</ele>
        <time>2015-05-03T09:11:36Z</time>
      </trkpt>
      <trkpt lat="43.76488" lon="6.58943">
        <ele>967.3</ele>
        <time>2015-05-03T09:11:42Z</time>
      </trkpt>
      <trkpt lat="43.76487" lon="6.58941">
        <ele>966.8</ele>
        <time>2015-05-03T09:11:43Z</time>
      </trkpt>
      <trkpt lat="43.76483" lon="6.5892">
        <ele>965.2</ele>
        <time>2015-05-03T09:11:59Z</time>
      </trkpt>
      <trkpt lat="43.76481" lon="6.58908">
        <ele>965.4</ele>
        <time>2015-05-03T09:12:10Z</time>
      </trkpt>
      <trkpt lat="43.7648" lon="6.58897">
        <ele>963.9</ele>
        <time>2015-05-03T09:12:16Z</time>
      </trkpt>
      <trkpt lat="43.76478" lon="6.58885">
        <ele>964</ele>
        <time>2015-05-03T09:12:25Z</time>
      </trkpt>
      <trkpt lat="43.76478" lon="6.58873">
        <ele>963.8</ele>
        <time>2015-05-03T09:12:34Z</time>
      </trkpt>
      <trkpt lat="43.76478" lon="6.58861">
        <ele>963</ele>
        <time>2015-05-03T09:12:44Z</time>
      </trkpt>
      <trkpt lat="43.76478" lon="6.5886">
        <ele>962.6</ele>
        <time>2015-05-03T09:12:45Z</time>
      </trkpt>
      <trkpt lat="43.76475" lon="6.58838">
        <ele>961.2</ele>
        <time>2015-05-03T09:13:01Z</time>
      </trkpt>
      <trkpt lat="43.76474" lon="6.58826">
        <ele>960.7</ele>
        <time>2015-05-03T09:13:09Z</time>
      </trkpt>
      <trkpt lat="43.76472" lon="6.58815">
        <ele>960.6</ele>
        <time>2015-05-03T09:13:17Z</time>
      </trkpt>
      <trkpt lat="43.76473" lon="6.58803">
        <ele>959.9</ele>
        <time>2015-05-03T09:13:24Z</time>
      </trkpt>
      <trkpt lat="43.76472" lon="6.58792">
        <ele>958.4</ele>
        <time>2015-05-03T09:13:32Z</time>
      </trkpt>
      <trkpt lat="43.76471" lon="6.5878">
        <ele>958.5</ele>
        <time>2015-05-03T09:13:41Z</time>
      </trkpt>
      <trkpt lat="43.76469" lon="6.58769">
        <ele>956.2</ele>
        <time>2015-05-03T09:13:48Z</time>
      </trkpt>
      <trkpt lat="43.76469" lon="6.58767">
        <ele>955.8</ele>
        <time>2015-05-03T09:13:49Z</time>
      </trkpt>
      <trkpt lat="43.76466" lon="6.58745">
        <ele>956.1</ele>
        <time>2015-05-03T09:14:03Z</time>
      </trkpt>
      <trkpt lat="43.76466" lon="6.58733">
        <ele>955.3</ele>
        <time>2015-05-03T09:14:13Z</time>
      </trkpt>
      <trkpt lat="43.76462" lon="6.58723">
        <ele>956.2</ele>
        <time>2015-05-03T09:14:22Z</time>
      </trkpt>
      <trkpt lat="43.76458" lon="6.58713">
        <ele>955.2</ele>
        <time>2015-05-03T09:14:31Z</time>
      </trkpt>
      <trkpt lat="43.76455" lon="6.58701">
        <ele>955.1</ele>
        <time>2015-05-03T09:14:39Z</time>
      </trkpt>
      <trkpt lat="43.76453" lon="6.5869">
        <ele>956</ele>
        <time>2015-05-03T09:14:46Z</time>
      </trkpt>
      <trkpt lat="43.76451" lon="6.58679">
        <ele>956.3</ele>
        <time>2015-05-03T09:14:54Z</time>
      </trkpt>
      <trkpt lat="43.76451" lon="6.58678">
        <ele>955.8</ele>
        <time>2015-05-03T09:14:55Z</time>
      </trkpt>
      <trkpt lat="43.76449" lon="6.58656">
        <ele>956.4</ele>
        <time>2015-05-03T09:15:08Z</time>
      </trkpt>
      <trkpt lat="43.76446" lon="6.58645">
        <ele>957.9</ele>
        <time>2015-05-03T09:15:15Z</time>
      </trkpt>
      <trkpt lat="43.76443" lon="6.58634">
        <ele>956.8</ele>
        <time>2015-05-03T09:15:22Z</time>
      </trkpt>
      <trkpt lat="43.7644" lon="6.58623">
        <ele>956.7</ele>
        <time>2015-05-03T09:15:29Z</time>
      </trkpt>
      <trkpt lat="43.7644" lon="6.58611">
        <ele>957.9</ele>
        <time>2015-05-03T09:15:37Z</time>
      </trkpt>
      <trkpt lat="43.76439" lon="6.58599">
        <ele>957.9</ele>
        <time>2015-05-03T09:15:45Z</time>
      </trkpt>
      <trkpt lat="43.76438" lon="6.58587">
        <ele>955.8</ele>
        <time>2015-05-03T09:15:52Z</time>
      </trkpt>
      <trkpt lat="43.76436" lon="6.58576">
        <ele>956.3</ele>
        <time>2015-05-03T09:15:59Z</time>
      </trkpt>
      <trkpt lat="43.76435" lon="6.58574">
        <ele>957</ele>
        <time>2015-05-03T09:16:00Z</time>
      </trkpt>
      <trkpt lat="43.76432" lon="6.58555">
        <ele>955.7</ele>
        <time>2015-05-03T09:16:14Z</time>
      </trkpt>
      <trkpt lat="43.76429" lon="6.58544">
        <ele>955.3</ele>
        <time>2015-05-03T09:16:21Z</time>
      </trkpt>
      <trkpt lat="43.76427" lon="6.58532">
        <ele>955</ele>
        <time>2015-05-03T09:16:28Z</time>
      </trkpt>
      <trkpt lat="43.76425" lon="6.58522">
        <ele>954.8</ele>
        <time>2015-05-03T09:16:34Z</time>
      </trkpt>
      <trkpt lat="43.76422" lon="6.58511">
        <ele>954.2</ele>
        <time>2015-05-03T09:16:43Z</time>
      </trkpt>
      <trkpt lat="43.76419" lon="6.585">
        <ele>952.9</ele>
        <time>2015-05-03T09:16:51Z</time>
      </trkpt>
      <trkpt lat="43.76415" lon="6.5849">
        <ele>953.8</ele>
        <time>2015-05-03T09:16:58Z</time>
      </trkpt>
      <trkpt lat="43.76413" lon="6.5848">
        <ele>952.8</ele>
        <time>2015-05-03T09:17:03Z</time>
      </trkpt>
      <trkpt lat="43.76413" lon="6.58478">
        <ele>952.5</ele>
        <time>2015-05-03T09:17:04Z</time>
      </trkpt>
      <trkpt lat="43.76408" lon="6.58458">
        <ele>953.3</ele>
        <time>2015-05-03T09:17:18Z</time>
      </trkpt>
      <trkpt lat="43.76406" lon="6.58448">
        <ele>952</ele>
        <time>2015-05-03T09:17:24Z</time>
      </trkpt>
      <trkpt lat="43.76402" lon="6.58436">
        <ele>952.1</ele>
        <time>2015-05-03T09:17:34Z</time>
      </trkpt>
      <trkpt lat="43.76398" lon="6.58426">
        <ele>952.4</ele>
        <time>2015-05-03T09:17:43Z</time>
      </trkpt>
      <trkpt lat="43.76393" lon="6.58416">
        <ele>952.2</ele>
        <time>2015-05-03T09:17:51Z</time>
      </trkpt>
      <trkpt lat="43.76389" lon="6.58407">
        <ele>953.4</ele>
        <time>2015-05-03T09:17:57Z</time>
      </trkpt>
      <trkpt lat="43.76386" lon="6.58396">
        <ele>952.6</ele>
        <time>2015-05-03T09:18:03Z</time>
      </trkpt>
      <trkpt lat="43.76385" lon="6.58384">
        <ele>953.7</ele>
        <time>2015-05-03T09:18:09Z</time>
      </trkpt>
      <trkpt lat="43.76385" lon="6.58383">
        <ele>953.4</ele>
        <time>2015-05-03T09:18:10Z</time>
      </trkpt>
      <trkpt lat="43.76379" lon="6.58362">
        <ele>953</ele>
        <time>2015-05-03T09:18:25Z</time>
      </trkpt>
      <trkpt lat="43.76376" lon="6.58352">
        <ele>953.8</ele>
        <time>2015-05-03T09:18:32Z</time>
      </trkpt>
      <trkpt lat="43.76371" lon="6.58342">
        <ele>954.5</ele>
        <time>2015-05-03T09:18:38Z</time>
      </trkpt>
      <trkpt lat="43.76368" lon="6.58331">
        <ele>953.4</ele>
        <time>2015-05-03T09:18:47Z</time>
      </trkpt>
      <trkpt lat="43.76365" lon="6.58321">
        <ele>955</ele>
        <time>2015-05-03T09:18:54Z</time>
      </trkpt>
      <trkpt lat="43.76362" lon="6.5831">
        <ele>954.2</ele>
        <time>2015-05-03T09:19:01Z</time>
      </trkpt>
      <trkpt lat="43.76358" lon="6.583">
        <ele>954</ele>
        <time>2015-05-03T09:19:09Z</time>
      </trkpt>
      <trkpt lat="43.76354" lon="6.5829">
        <ele>953.1</ele>
        <time>2015-05-03T09:19:18Z</time>
      </trkpt>
      <trkpt lat="43.76353" lon="6.58288">
        <ele>952.9</ele>
        <time>2015-05-03T09:19:19Z</time>
      </trkpt>
      <trkpt lat="43.76351" lon="6.58268">
        <ele>952.2</ele>
        <time>2015-05-03T09:19:32Z</time>
      </trkpt>
      <trkpt lat="43.76347" lon="6.58257">
        <ele>951.7</ele>
        <time>2015-05-03T09:19:39Z</time>
      </trkpt>
      <trkpt lat="43.76345" lon="6.58245">
        <ele>951</ele>
        <time>2015-05-03T09:19:48Z</time>
      </trkpt>
      <trkpt lat="43.7634" lon="6.58235">
        <ele>950.8</ele>
        <time>2015-05-03T09:19:55Z</time>
      </trkpt>
      <trkpt lat="43.76336" lon="6.58225">
        <ele>951.1</ele>
        <time>2015-05-03T09:20:03Z</time>
      </trkpt>
      <trkpt lat="43.76332" lon="6.58214">
        <ele>950.4</ele>
        <time>2015-05-03T09:20:12Z</time>
      </trkpt>
      <trkpt lat="43.76327" lon="6.58204">
        <ele>951</ele>
        <time>2015-05-03T09:20:19Z</time>
      </trkpt>
      <trkpt lat="43.76327" lon="6.58202">
        <ele>950.8</ele>
        <time>2015-05-03T09:20:20Z</time>
      </trkpt>
      <trkpt lat="43.76319" lon="6.58183">
        <ele>950.3</ele>
        <time>2015-05-03T09:20:33Z</time>
      </trkpt>
      <trkpt lat="43.76316" lon="6.58172">
        <ele>948.6</ele>
        <time>2015-05-03T09:20:42Z</time>
      </trkpt>
      <trkpt lat="43.76311" lon="6.58162">
        <ele>948.4</ele>
        <time>2015-05-03T09:20:49Z</time>
      </trkpt>
      <trkpt lat="43.76304" lon="6.58155">
        <ele>949.1</ele>
        <time>2015-05-03T09:20:56Z</time>
      </trkpt>
      <trkpt lat="43.76297" lon="6.58148">
        <ele>948.3</ele>
        <time>2015-05-03T09:21:06Z</time>
      </trkpt>
      <trkpt lat="43.76294" lon="6.58137">
        <ele>948</ele>
        <time>2015-05-03T09:21:13Z</time>
      </trkpt>
      <trkpt lat="43.76289" lon="6.58127">
        <ele>947.6</ele>
        <time>2015-05-03T09:21:20Z</time>
      </trkpt>
      <trkpt lat="43.76289" lon="6.58125">
        <ele>947.9</ele>
        <time>2015-05-03T09:21:21Z</time>
      </trkpt>
      <trkpt lat="43.76279" lon="6.5811">
        <ele>948.4</ele>
        <time>2015-05-03T09:21:40Z</time>
      </trkpt>
      <trkpt lat="43.76272" lon="6.58103">
        <ele>947.9</ele>
        <time>2015-05-03T09:21:46Z</time>
      </trkpt>
      <trkpt lat="43.76267" lon="6.58094">
        <ele>946.8</ele>
        <time>2015-05-03T09:21:52Z</time>
      </trkpt>
      <trkpt lat="43.76259" lon="6.58088">
        <ele>947.2</ele>
        <time>2015-05-03T09:22:00Z</time>
      </trkpt>
      <trkpt lat="43.76251" lon="6.58082">
        <ele>947.2</ele>
        <time>2015-05-03T09:22:07Z</time>
      </trkpt>
      <trkpt lat="43.76244" lon="6.58076">
        <ele>946.2</ele>
        <time>2015-05-03T09:22:15Z</time>
      </trkpt>
      <trkpt lat="43.76236" lon="6.58072">
        <ele>946.1</ele>
        <time>2015-05-03T09:22:21Z</time>
      </trkpt>
      <trkpt lat="43.76228" lon="6.5807">
        <ele>945.7</ele>
        <time>2015-05-03T09:22:58Z</time>
      </trkpt>
      <trkpt lat="43.76227" lon="6.58071">
        <ele>945.3</ele>
        <time>2015-05-03T09:22:59Z</time>
      </trkpt>
      <trkpt lat="43.76213" lon="6.58078">
        <ele>945</ele>
        <time>2015-05-03T09:23:12Z</time>
      </trkpt>
      <trkpt lat="43.76205" lon="6.58083">
        <ele>945.1</ele>
        <time>2015-05-03T09:23:19Z</time>
      </trkpt>
      <trkpt lat="43.76198" lon="6.5809">
        <ele>944.9</ele>
        <time>2015-05-03T09:23:49Z</time>
      </trkpt>
      <trkpt lat="43.7619" lon="6.5809">
        <ele>944.1</ele>
        <time>2015-05-03T09:24:10Z</time>
      </trkpt>
      <trkpt lat="43.76189" lon="6.5809">
        <ele>944.3</ele>
        <time>2015-05-03T09:24:11Z</time>
      </trkpt>
      <trkpt lat="43.76173" lon="6.581">
        <ele>943.2</ele>
        <time>2015-05-03T09:24:30Z</time>
      </trkpt>
      <trkpt lat="43.76171" lon="6.58112">
        <ele>943.6</ele>
        <time>2015-05-03T09:24:41Z</time>
      </trkpt>
      <trkpt lat="43.76164" lon="6.58115">
        <ele>943.8</ele>
        <time>2015-05-03T09:25:12Z</time>
      </trkpt>
      <trkpt lat="43.76163" lon="6.58115">
        <ele>943.4</ele>
        <time>2015-05-03T09:25:13Z</time>
      </trkpt>
      <trkpt lat="43.76148" lon="6.58121">
        <ele>943.3</ele>
        <time>2015-05-03T09:25:27Z</time>
      </trkpt>
      <trkpt lat="43.76141" lon="6.58129">
        <ele>942.5</ele>
        <time>2015-05-03T09:25:33Z</time>
      </trkpt>
      <trkpt lat="43.76133" lon="6.58133">
        <ele>941.3</ele>
        <time>2015-05-03T09:25:40Z</time>
      </trkpt>
      <trkpt lat="43.76127" lon="6.5814">
        <ele>941.2</ele>
        <time>2015-05-03T09:25:46Z</time>
      </trkpt>
      <trkpt lat="43.76121" lon="6.58148">
        <ele>941.6</ele>
        <time>2015-05-03T09:25:52Z</time>
      </trkpt>
      <trkpt lat="43.76112" lon="6.58152">
        <ele>940.2</ele>
        <time>2015-05-03T09:26:00Z</time>
      </trkpt>
      <trkpt lat="43.76105" lon="6.5816">
        <ele>940.1</ele>
        <time>2015-05-03T09:26:07Z</time>
      </trkpt>
      <trkpt lat="43.76099" lon="6.58165">
        <ele>939.1</ele>
        <time>2015-05-03T09:26:15Z</time>
      </trkpt>
      <trkpt lat="43.76097" lon="6.58167">
        <ele>939.2</ele>
        <time>2015-05-03T09:26:16Z</time>
      </trkpt>
      <trkpt lat="43.76084" lon="6.58178">
        <ele>940.9</ele>
        <time>2015-05-03T09:26:28Z</time>
      </trkpt>
      <trkpt lat="43.76076" lon="6.58182">
        <ele>941</ele>
        <time>2015-05-03T09:26:36Z</time>
      </trkpt>
      <trkpt lat="43.76068" lon="6.58187">
        <ele>938.6</ele>
        <time>2015-05-03T09:26:44Z</time>
      </trkpt>
      <trkpt lat="43.76061" lon="6.58193">
        <ele>939.2</ele>
        <time>2015-05-03T09:26:51Z</time>
      </trkpt>
      <trkpt lat="43.76058" lon="6.58204">
        <ele>939.9</ele>
        <time>2015-05-03T09:26:58Z</time>
      </trkpt>
      <trkpt lat="43.76051" lon="6.58212">
        <ele>938.5</ele>
        <time>2015-05-03T09:27:04Z</time>
      </trkpt>
      <trkpt lat="43.76044" lon="6.58218">
        <ele>938.4</ele>
        <time>2015-05-03T09:27:11Z</time>
      </trkpt>
      <trkpt lat="43.76036" lon="6.58219">
        <ele>939.7</ele>
        <time>2015-05-03T09:27:25Z</time>
      </trkpt>
      <trkpt lat="43.76035" lon="6.58219">
        <ele>939.6</ele>
        <time>2015-05-03T09:27:26Z</time>
      </trkpt>
      <trkpt lat="43.76019" lon="6.58216">
        <ele>939.8</ele>
        <time>2015-05-03T09:27:39Z</time>
      </trkpt>
      <trkpt lat="43.7601" lon="6.58215">
        <ele>939.4</ele>
        <time>2015-05-03T09:27:44Z</time>
      </trkpt>
      <trkpt lat="43.76003" lon="6.5822">
        <ele>939.3</ele>
        <time>2015-05-03T09:27:51Z</time>
      </trkpt>
      <trkpt lat="43.75997" lon="6.58226">
        <ele>939</ele>
        <time>2015-05-03T09:27:58Z</time>
      </trkpt>
      <trkpt lat="43.7599" lon="6.58232">
        <ele>939.7</ele>
        <time>2015-05-03T09:28:04Z</time>
      </trkpt>
      <trkpt lat="43.75985" lon="6.58241">
        <ele>939.8</ele>
        <time>2015-05-03T09:28:13Z</time>
      </trkpt>
      <trkpt lat="43.75981" lon="6.58252">
        <ele>939.5</ele>
        <time>2015-05-03T09:28:32Z</time>
      </trkpt>
      <trkpt lat="43.75981" lon="6.58253">
        <ele>939.5</ele>
        <time>2015-05-03T09:28:33Z</time>
      </trkpt>
      <trkpt lat="43.75975" lon="6.58274">
        <ele>938.3</ele>
        <time>2015-05-03T09:29:51Z</time>
      </trkpt>
      <trkpt lat="43.75975" lon="6.58274">
        <ele>938.3</ele>
        <time>2015-05-03T09:29:52Z</time>
      </trkpt>
      <trkpt lat="43.75961" lon="6.58287">
        <ele>937.9</ele>
        <time>2015-05-03T09:30:16Z</time>
      </trkpt>
      <trkpt lat="43.75958" lon="6.58298">
        <ele>937.6</ele>
        <time>2015-05-03T09:30:35Z</time>
      </trkpt>
      <trkpt lat="43.75965" lon="6.58306">
        <ele>936.3</ele>
        <time>2015-05-03T09:31:07Z</time>
      </trkpt>
      <trkpt lat="43.75966" lon="6.58305">
        <ele>936.1</ele>
        <time>2015-05-03T09:31:08Z</time>
      </trkpt>
      <trkpt lat="43.75963" lon="6.58284">
        <ele>936.2</ele>
        <time>2015-05-03T09:32:09Z</time>
      </trkpt>
      <trkpt lat="43.75962" lon="6.58284">
        <ele>936.3</ele>
        <time>2015-05-03T09:32:10Z</time>
      </trkpt>
      <trkpt lat="43.75947" lon="6.58282">
        <ele>936.3</ele>
        <time>2015-05-03T09:32:43Z</time>
      </trkpt>
      <trkpt lat="43.75939" lon="6.58276">
        <ele>937.4</ele>
        <time>2015-05-03T09:32:54Z</time>
      </trkpt>
      <trkpt lat="43.75933" lon="6.58267">
        <ele>937.1</ele>
        <time>2015-05-03T09:33:06Z</time>
      </trkpt>
      <trkpt lat="43.75925" lon="6.58262">
        <ele>937.3</ele>
        <time>2015-05-03T09:33:15Z</time>
      </trkpt>
      <trkpt lat="43.75926" lon="6.58261">
        <ele>937.3</ele>
        <time>2015-05-03T09:33:16Z</time>
      </trkpt>
      <trkpt lat="43.75914" lon="6.58246">
        <ele>933.8</ele>
        <time>2015-05-03T09:33:31Z</time>
      </trkpt>
      <trkpt lat="43.75905" lon="6.58244">
        <ele>934.5</ele>
        <time>2015-05-03T09:33:42Z</time>
      </trkpt>
      <trkpt lat="43.75897" lon="6.58247">
        <ele>933.8</ele>
        <time>2015-05-03T09:33:52Z</time>
      </trkpt>
      <trkpt lat="43.75889" lon="6.5825">
        <ele>934.6</ele>
        <time>2015-05-03T09:33:56Z</time>
      </trkpt>
      <trkpt lat="43.75881" lon="6.58251">
        <ele>934.1</ele>
        <time>2015-05-03T09:34:05Z</time>
      </trkpt>
      <trkpt lat="43.75873" lon="6.58249">
        <ele>935.5</ele>
        <time>2015-05-03T09:34:17Z</time>
      </trkpt>
      <trkpt lat="43.75871" lon="6.5825">
        <ele>935.5</ele>
        <time>2015-05-03T09:34:18Z</time>
      </trkpt>
      <trkpt lat="43.75856" lon="6.58252">
        <ele>937</ele>
        <time>2015-05-03T09:34:36Z</time>
      </trkpt>
      <trkpt lat="43.75851" lon="6.58242">
        <ele>938.7</ele>
        <time>2015-05-03T09:34:49Z</time>
      </trkpt>
      <trkpt lat="43.75847" lon="6.58233">
        <ele>938.5</ele>
        <time>2015-05-03T09:34:58Z</time>
      </trkpt>
      <trkpt lat="43.75844" lon="6.58221">
        <ele>940.5</ele>
        <time>2015-05-03T09:35:09Z</time>
      </trkpt>
      <trkpt lat="43.75841" lon="6.5821">
        <ele>940.6</ele>
        <time>2015-05-03T09:35:19Z</time>
      </trkpt>
      <trkpt lat="43.75842" lon="6.58209">
        <ele>940.8</ele>
        <time>2015-05-03T09:35:20Z</time>
      </trkpt>
      <trkpt lat="43.7584" lon="6.58187">
        <ele>943.4</ele>
        <time>2015-05-03T09:35:40Z</time>
      </trkpt>
      <trkpt lat="43.7584" lon="6.58175">
        <ele>945.1</ele>
        <time>2015-05-03T09:35:51Z</time>
      </trkpt>
      <trkpt lat="43.75838" lon="6.58164">
        <ele>945.3</ele>
        <time>2015-05-03T09:36:01Z</time>
      </trkpt>
      <trkpt lat="43.75841" lon="6.58152">
        <ele>947.2</ele>
        <time>2015-05-03T09:36:12Z</time>
      </trkpt>
      <trkpt lat="43.75843" lon="6.58141">
        <ele>948.9</ele>
        <time>2015-05-03T09:36:19Z</time>
      </trkpt>
      <trkpt lat="43.75844" lon="6.58129">
        <ele>949.1</ele>
        <time>2015-05-03T09:36:28Z</time>
      </trkpt>
      <trkpt lat="43.75846" lon="6.58128">
        <ele>949.1</ele>
        <time>2015-05-03T09:36:29Z</time>
      </trkpt>
      <trkpt lat="43.75846" lon="6.58106">
        <ele>950.2</ele>
        <time>2015-05-03T09:36:46Z</time>
      </trkpt>
      <trkpt lat="43.75851" lon="6.58096">
        <ele>951.5</ele>
        <time>2015-05-03T09:37:00Z</time>
      </trkpt>
      <trkpt lat="43.75855" lon="6.58086">
        <ele>953</ele>
        <time>2015-05-03T09:37:12Z</time>
      </trkpt>
      <trkpt lat="43.75858" lon="6.58076">
        <ele>954.3</ele>
        <time>2015-05-03T09:37:23Z</time>
      </trkpt>
      <trkpt lat="43.75864" lon="6.58067">
        <ele>955.3</ele>
        <time>2015-05-03T09:37:31Z</time>
      </trkpt>
      <trkpt lat="43.75865" lon="6.58066">
        <ele>955.5</ele>
        <time>2015-05-03T09:37:32Z</time>
      </trkpt>
      <trkpt lat="43.75872" lon="6.58047">
        <ele>956.7</ele>
        <time>2015-05-03T09:37:50Z</time>
      </trkpt>
      <trkpt lat="43.75879" lon="6.5804">
        <ele>957.6</ele>
        <time>2015-05-03T09:37:58Z</time>
      </trkpt>
      <trkpt lat="43.75882" lon="6.58029">
        <ele>957.8</ele>
        <time>2015-05-03T09:38:07Z</time>
      </trkpt>
      <trkpt lat="43.75884" lon="6.58019">
        <ele>959.7</ele>
        <time>2015-05-03T09:38:17Z</time>
      </trkpt>
      <trkpt lat="43.75885" lon="6.58007">
        <ele>958.3</ele>
        <time>2015-05-03T09:38:27Z</time>
      </trkpt>
      <trkpt lat="43.75885" lon="6.57995">
        <ele>960.5</ele>
        <time>2015-05-03T09:38:38Z</time>
      </trkpt>
      <trkpt lat="43.75884" lon="6.57994">
        <ele>960.1</ele>
        <time>2015-05-03T09:38:39Z</time>
      </trkpt>
      <trkpt lat="43.75891" lon="6.57975">
        <ele>965</ele>
        <time>2015-05-03T09:39:06Z</time>
      </trkpt>
      <trkpt lat="43.75894" lon="6.57965">
        <ele>966</ele>
        <time>2015-05-03T09:39:15Z</time>
      </trkpt>
      <trkpt lat="43.75899" lon="6.57956">
        <ele>966</ele>
        <time>2015-05-03T09:39:23Z</time>
      </trkpt>
      <trkpt lat="43.75907" lon="6.57961">
        <ele>970.5</ele>
        <time>2015-05-03T09:40:16Z</time>
      </trkpt>
      <trkpt lat="43.75907" lon="6.57963">
        <ele>970.3</ele>
        <time>2015-05-03T09:40:17Z</time>
      </trkpt>
      <trkpt lat="43.75913" lon="6.57982">
        <ele>973.4</ele>
        <time>2015-05-03T09:41:08Z</time>
      </trkpt>
      <trkpt lat="43.75912" lon="6.57993">
        <ele>973.3</ele>
        <time>2015-05-03T09:41:20Z</time>
      </trkpt>
      <trkpt lat="43.75912" lon="6.57995">
        <ele>973.1</ele>
        <time>2015-05-03T09:41:21Z</time>
      </trkpt>
      <trkpt lat="43.75912" lon="6.57994">
        <ele>973.1</ele>
        <time>2015-05-03T09:42:08Z</time>
      </trkpt>
      <trkpt lat="43.75914" lon="6.57981">
        <ele>973</ele>
        <time>2015-05-03T09:43:00Z</time>
      </trkpt>
      <trkpt lat="43.75914" lon="6.57981">
        <ele>974.3</ele>
        <time>2015-05-03T09:43:02Z</time>
      </trkpt>
      <trkpt lat="43.75911" lon="6.57986">
        <ele>973.7</ele>
        <time>2015-05-03T09:44:18Z</time>
      </trkpt>
      <trkpt lat="43.75911" lon="6.57987">
        <ele>973.6</ele>
        <time>2015-05-03T09:44:19Z</time>
      </trkpt>
      <trkpt lat="43.75914" lon="6.57984">
        <ele>973.9</ele>
        <time>2015-05-03T09:44:53Z</time>
      </trkpt>
      <trkpt lat="43.75908" lon="6.57976">
        <ele>971.7</ele>
        <time>2015-05-03T09:46:25Z</time>
      </trkpt>
      <trkpt lat="43.75908" lon="6.57975">
        <ele>971.7</ele>
        <time>2015-05-03T09:46:26Z</time>
      </trkpt>
      <trkpt lat="43.75908" lon="6.57976">
        <ele>970.2</ele>
        <time>2015-05-03T09:49:46Z</time>
      </trkpt>
      <trkpt lat="43.75908" lon="6.57975">
        <ele>970.2</ele>
        <time>2015-05-03T09:49:47Z</time>
      </trkpt>
      <trkpt lat="43.75914" lon="6.57954">
        <ele>968.5</ele>
        <time>2015-05-03T09:50:03Z</time>
      </trkpt>
      <trkpt lat="43.75913" lon="6.57944">
        <ele>967.7</ele>
        <time>2015-05-03T09:50:12Z</time>
      </trkpt>
      <trkpt lat="43.75906" lon="6.57938">
        <ele>966.9</ele>
        <time>2015-05-03T09:50:18Z</time>
      </trkpt>
      <trkpt lat="43.75898" lon="6.57938">
        <ele>966.6</ele>
        <time>2015-05-03T09:50:23Z</time>
      </trkpt>
      <trkpt lat="43.7589" lon="6.57944">
        <ele>966.4</ele>
        <time>2015-05-03T09:50:28Z</time>
      </trkpt>
      <trkpt lat="43.75886" lon="6.57954">
        <ele>965.7</ele>
        <time>2015-05-03T09:50:36Z</time>
      </trkpt>
      <trkpt lat="43.75883" lon="6.57965">
        <ele>965.5</ele>
        <time>2015-05-03T09:50:45Z</time>
      </trkpt>
      <trkpt lat="43.75876" lon="6.57974">
        <ele>963.9</ele>
        <time>2015-05-03T09:51:05Z</time>
      </trkpt>
      <trkpt lat="43.75876" lon="6.57974">
        <ele>963.8</ele>
        <time>2015-05-03T09:51:06Z</time>
      </trkpt>
      <trkpt lat="43.7587" lon="6.57994">
        <ele>960.6</ele>
        <time>2015-05-03T09:51:24Z</time>
      </trkpt>
      <trkpt lat="43.75869" lon="6.58006">
        <ele>960.4</ele>
        <time>2015-05-03T09:51:32Z</time>
      </trkpt>
      <trkpt lat="43.75866" lon="6.58017">
        <ele>959.7</ele>
        <time>2015-05-03T09:51:40Z</time>
      </trkpt>
      <trkpt lat="43.75863" lon="6.58028">
        <ele>959.4</ele>
        <time>2015-05-03T09:51:50Z</time>
      </trkpt>
      <trkpt lat="43.7586" lon="6.58037">
        <ele>959.1</ele>
        <time>2015-05-03T09:51:58Z</time>
      </trkpt>
      <trkpt lat="43.75856" lon="6.58047">
        <ele>958.3</ele>
        <time>2015-05-03T09:52:06Z</time>
      </trkpt>
      <trkpt lat="43.75851" lon="6.58057">
        <ele>957.1</ele>
        <time>2015-05-03T09:52:15Z</time>
      </trkpt>
      <trkpt lat="43.7585" lon="6.58059">
        <ele>956.8</ele>
        <time>2015-05-03T09:52:16Z</time>
      </trkpt>
      <trkpt lat="43.75844" lon="6.58079">
        <ele>955.9</ele>
        <time>2015-05-03T09:52:32Z</time>
      </trkpt>
      <trkpt lat="43.75839" lon="6.5809">
        <ele>954.9</ele>
        <time>2015-05-03T09:52:41Z</time>
      </trkpt>
      <trkpt lat="43.75837" lon="6.58101">
        <ele>952.7</ele>
        <time>2015-05-03T09:52:53Z</time>
      </trkpt>
      <trkpt lat="43.75834" lon="6.58112">
        <ele>951.4</ele>
        <time>2015-05-03T09:53:05Z</time>
      </trkpt>
      <trkpt lat="43.75834" lon="6.58124">
        <ele>950.3</ele>
        <time>2015-05-03T09:53:13Z</time>
      </trkpt>
      <trkpt lat="43.75833" lon="6.58136">
        <ele>950</ele>
        <time>2015-05-03T09:53:23Z</time>
      </trkpt>
      <trkpt lat="43.75832" lon="6.58137">
        <ele>949.2</ele>
        <time>2015-05-03T09:53:24Z</time>
      </trkpt>
      <trkpt lat="43.75829" lon="6.58159">
        <ele>947.2</ele>
        <time>2015-05-03T09:53:42Z</time>
      </trkpt>
      <trkpt lat="43.75829" lon="6.58171">
        <ele>947.9</ele>
        <time>2015-05-03T09:53:54Z</time>
      </trkpt>
      <trkpt lat="43.75828" lon="6.58183">
        <ele>945.9</ele>
        <time>2015-05-03T09:54:07Z</time>
      </trkpt>
      <trkpt lat="43.75828" lon="6.58194">
        <ele>945</ele>
        <time>2015-05-03T09:54:15Z</time>
      </trkpt>
      <trkpt lat="43.75829" lon="6.58206">
        <ele>944.5</ele>
        <time>2015-05-03T09:54:22Z</time>
      </trkpt>
      <trkpt lat="43.7583" lon="6.58217">
        <ele>943.3</ele>
        <time>2015-05-03T09:54:28Z</time>
      </trkpt>
      <trkpt lat="43.75831" lon="6.58218">
        <ele>943.3</ele>
        <time>2015-05-03T09:54:29Z</time>
      </trkpt>
      <trkpt lat="43.75838" lon="6.58236">
        <ele>943</ele>
        <time>2015-05-03T09:54:40Z</time>
      </trkpt>
      <trkpt lat="43.75843" lon="6.58244">
        <ele>941.9</ele>
        <time>2015-05-03T09:54:46Z</time>
      </trkpt>
      <trkpt lat="43.75848" lon="6.58254">
        <ele>941</ele>
        <time>2015-05-03T09:54:58Z</time>
      </trkpt>
      <trkpt lat="43.75856" lon="6.58259">
        <ele>939.1</ele>
        <time>2015-05-03T09:55:21Z</time>
      </trkpt>
      <trkpt lat="43.75863" lon="6.58264">
        <ele>938.4</ele>
        <time>2015-05-03T09:55:34Z</time>
      </trkpt>
      <trkpt lat="43.75864" lon="6.58264">
        <ele>938.3</ele>
        <time>2015-05-03T09:55:35Z</time>
      </trkpt>
      <trkpt lat="43.7588" lon="6.58263">
        <ele>936.7</ele>
        <time>2015-05-03T09:55:51Z</time>
      </trkpt>
      <trkpt lat="43.75888" lon="6.58261">
        <ele>937.2</ele>
        <time>2015-05-03T09:55:58Z</time>
      </trkpt>
      <trkpt lat="43.75897" lon="6.58259">
        <ele>937.3</ele>
        <time>2015-05-03T09:56:06Z</time>
      </trkpt>
      <trkpt lat="43.75905" lon="6.58265">
        <ele>937.2</ele>
        <time>2015-05-03T09:56:15Z</time>
      </trkpt>
      <trkpt lat="43.75911" lon="6.58274">
        <ele>938.1</ele>
        <time>2015-05-03T09:56:33Z</time>
      </trkpt>
      <trkpt lat="43.75916" lon="6.58283">
        <ele>939.8</ele>
        <time>2015-05-03T09:56:45Z</time>
      </trkpt>
      <trkpt lat="43.75916" lon="6.58284">
        <ele>939.8</ele>
        <time>2015-05-03T09:56:46Z</time>
      </trkpt>
      <trkpt lat="43.75929" lon="6.58295">
        <ele>940.1</ele>
        <time>2015-05-03T09:57:00Z</time>
      </trkpt>
      <trkpt lat="43.75937" lon="6.58295">
        <ele>939.3</ele>
        <time>2015-05-03T09:57:06Z</time>
      </trkpt>
      <trkpt lat="43.75945" lon="6.58293">
        <ele>939.3</ele>
        <time>2015-05-03T09:57:13Z</time>
      </trkpt>
      <trkpt lat="43.75954" lon="6.5829">
        <ele>939.6</ele>
        <time>2015-05-03T09:57:21Z</time>
      </trkpt>
      <trkpt lat="43.75962" lon="6.58295">
        <ele>939.3</ele>
        <time>2015-05-03T09:57:33Z</time>
      </trkpt>
      <trkpt lat="43.75959" lon="6.58305">
        <ele>940.7</ele>
        <time>2015-05-03T09:57:47Z</time>
      </trkpt>
      <trkpt lat="43.75958" lon="6.58307">
        <ele>940.7</ele>
        <time>2015-05-03T09:57:48Z</time>
      </trkpt>
      <trkpt lat="43.75952" lon="6.58327">
        <ele>941.1</ele>
        <time>2015-05-03T09:58:25Z</time>
      </trkpt>
      <trkpt lat="43.7595" lon="6.58338">
        <ele>939.9</ele>
        <time>2015-05-03T09:58:33Z</time>
      </trkpt>
      <trkpt lat="43.75947" lon="6.5835">
        <ele>938.8</ele>
        <time>2015-05-03T09:58:44Z</time>
      </trkpt>
      <trkpt lat="43.75956" lon="6.58349">
        <ele>937</ele>
        <time>2015-05-03T10:02:15Z</time>
      </trkpt>
      <trkpt lat="43.75958" lon="6.58349">
        <ele>937.4</ele>
        <time>2015-05-03T10:02:17Z</time>
      </trkpt>
      <trkpt lat="43.7594" lon="6.58349">
        <ele>939.4</ele>
        <time>2015-05-03T10:03:50Z</time>
      </trkpt>
      <trkpt lat="43.7594" lon="6.58349">
        <ele>939.4</ele>
        <time>2015-05-03T10:03:51Z</time>
      </trkpt>
      <trkpt lat="43.75955" lon="6.58345">
        <ele>939</ele>
        <time>2015-05-03T10:05:30Z</time>
      </trkpt>
      <trkpt lat="43.75955" lon="6.58345">
        <ele>939.1</ele>
        <time>2015-05-03T10:05:31Z</time>
      </trkpt>
      <trkpt lat="43.75946" lon="6.58347">
        <ele>938</ele>
        <time>2015-05-03T10:06:42Z</time>
      </trkpt>
      <trkpt lat="43.75937" lon="6.5835">
        <ele>937.7</ele>
        <time>2015-05-03T10:09:37Z</time>
      </trkpt>
      <trkpt lat="43.75939" lon="6.58348">
        <ele>937.7</ele>
        <time>2015-05-03T10:11:13Z</time>
      </trkpt>
      <trkpt lat="43.75937" lon="6.58346">
        <ele>937.5</ele>
        <time>2015-05-03T10:11:14Z</time>
      </trkpt>
      <trkpt lat="43.75954" lon="6.58338">
        <ele>937</ele>
        <time>2015-05-03T10:12:52Z</time>
      </trkpt>
      <trkpt lat="43.75954" lon="6.5834">
        <ele>937.3</ele>
        <time>2015-05-03T10:12:54Z</time>
      </trkpt>
      <trkpt lat="43.75939" lon="6.5835">
        <ele>937</ele>
        <time>2015-05-03T10:13:59Z</time>
      </trkpt>
      <trkpt lat="43.75937" lon="6.58345">
        <ele>937</ele>
        <time>2015-05-03T10:14:03Z</time>
      </trkpt>
      <trkpt lat="43.75947" lon="6.58353">
        <ele>937.7</ele>
        <time>2015-05-03T10:14:57Z</time>
      </trkpt>
      <trkpt lat="43.75953" lon="6.58345">
        <ele>936.2</ele>
        <time>2015-05-03T10:17:00Z</time>
      </trkpt>
      <trkpt lat="43.75953" lon="6.58343">
        <ele>936.4</ele>
        <time>2015-05-03T10:17:01Z</time>
      </trkpt>
      <trkpt lat="43.7594" lon="6.58358">
        <ele>935.4</ele>
        <time>2015-05-03T10:18:26Z</time>
      </trkpt>
      <trkpt lat="43.75938" lon="6.58358">
        <ele>935.5</ele>
        <time>2015-05-03T10:18:27Z</time>
      </trkpt>
      <trkpt lat="43.75979" lon="6.58343">
        <ele>935</ele>
        <time>2015-05-03T10:18:50Z</time>
      </trkpt>
      <trkpt lat="43.75994" lon="6.58338">
        <ele>935</ele>
        <time>2015-05-03T10:18:59Z</time>
      </trkpt>
      <trkpt lat="43.7596" lon="6.58345">
        <ele>935.8</ele>
        <time>2015-05-03T10:19:03Z</time>
      </trkpt>
      <trkpt lat="43.75951" lon="6.58344">
        <ele>936.1</ele>
        <time>2015-05-03T10:19:19Z</time>
      </trkpt>
      <trkpt lat="43.7595" lon="6.58332">
        <ele>935.3</ele>
        <time>2015-05-03T10:20:02Z</time>
      </trkpt>
      <trkpt lat="43.7595" lon="6.58331">
        <ele>935.3</ele>
        <time>2015-05-03T10:20:03Z</time>
      </trkpt>
      <trkpt lat="43.75943" lon="6.58356">
        <ele>934</ele>
        <time>2015-05-03T10:20:39Z</time>
      </trkpt>
      <trkpt lat="43.75946" lon="6.58346">
        <ele>934.7</ele>
        <time>2015-05-03T10:21:13Z</time>
      </trkpt>
      <trkpt lat="43.7595" lon="6.58342">
        <ele>934.8</ele>
        <time>2015-05-03T10:21:14Z</time>
      </trkpt>
      <trkpt lat="43.75942" lon="6.58353">
        <ele>935.6</ele>
        <time>2015-05-03T10:22:08Z</time>
      </trkpt>
      <trkpt lat="43.75933" lon="6.58356">
        <ele>935</ele>
        <time>2015-05-03T10:22:37Z</time>
      </trkpt>
      <trkpt lat="43.75934" lon="6.58349">
        <ele>935.9</ele>
        <time>2015-05-03T10:22:41Z</time>
      </trkpt>
      <trkpt lat="43.75945" lon="6.5835">
        <ele>935</ele>
        <time>2015-05-03T10:23:06Z</time>
      </trkpt>
      <trkpt lat="43.75935" lon="6.58373">
        <ele>935.2</ele>
        <time>2015-05-03T10:23:17Z</time>
      </trkpt>
      <trkpt lat="43.75937" lon="6.58364">
        <ele>935.2</ele>
        <time>2015-05-03T10:23:24Z</time>
      </trkpt>
      <trkpt lat="43.75941" lon="6.58355">
        <ele>935.6</ele>
        <time>2015-05-03T10:23:30Z</time>
      </trkpt>
      <trkpt lat="43.75946" lon="6.58347">
        <ele>935.5</ele>
        <time>2015-05-03T10:23:37Z</time>
      </trkpt>
      <trkpt lat="43.75939" lon="6.58355">
        <ele>934</ele>
        <time>2015-05-03T10:24:29Z</time>
      </trkpt>
      <trkpt lat="43.75939" lon="6.58356">
        <ele>934.7</ele>
        <time>2015-05-03T10:24:33Z</time>
      </trkpt>
      <trkpt lat="43.75948" lon="6.58331">
        <ele>934</ele>
        <time>2015-05-03T10:25:24Z</time>
      </trkpt>
      <trkpt lat="43.75942" lon="6.5834">
        <ele>935</ele>
        <time>2015-05-03T10:25:35Z</time>
      </trkpt>
      <trkpt lat="43.75941" lon="6.58344">
        <ele>935.1</ele>
        <time>2015-05-03T10:25:36Z</time>
      </trkpt>
      <trkpt lat="43.75952" lon="6.58344">
        <ele>935</ele>
        <time>2015-05-03T10:26:15Z</time>
      </trkpt>
      <trkpt lat="43.75956" lon="6.58329">
        <ele>935.2</ele>
        <time>2015-05-03T10:26:23Z</time>
      </trkpt>
      <trkpt lat="43.75936" lon="6.58368">
        <ele>935</ele>
        <time>2015-05-03T10:26:48Z</time>
      </trkpt>
      <trkpt lat="43.75944" lon="6.58349">
        <ele>935.2</ele>
        <time>2015-05-03T10:26:52Z</time>
      </trkpt>
      <trkpt lat="43.75942" lon="6.58364">
        <ele>934</ele>
        <time>2015-05-03T10:27:13Z</time>
      </trkpt>
      <trkpt lat="43.75948" lon="6.58346">
        <ele>935</ele>
        <time>2015-05-03T10:27:26Z</time>
      </trkpt>
      <trkpt lat="43.75933" lon="6.58347">
        <ele>935</ele>
        <time>2015-05-03T10:27:44Z</time>
      </trkpt>
      <trkpt lat="43.75944" lon="6.58347">
        <ele>935</ele>
        <time>2015-05-03T10:28:09Z</time>
      </trkpt>
      <trkpt lat="43.75946" lon="6.5835">
        <ele>935.7</ele>
        <time>2015-05-03T10:28:14Z</time>
      </trkpt>
      <trkpt lat="43.75942" lon="6.58353">
        <ele>936</ele>
        <time>2015-05-03T10:29:57Z</time>
      </trkpt>
      <trkpt lat="43.75941" lon="6.58354">
        <ele>936</ele>
        <time>2015-05-03T10:29:58Z</time>
      </trkpt>
      <trkpt lat="43.7594" lon="6.58349">
        <ele>935</ele>
        <time>2015-05-03T10:31:59Z</time>
      </trkpt>
      <trkpt lat="43.75939" lon="6.5835">
        <ele>935</ele>
        <time>2015-05-03T10:32:00Z</time>
      </trkpt>
      <trkpt lat="43.75935" lon="6.5836">
        <ele>934.9</ele>
        <time>2015-05-03T10:33:04Z</time>
      </trkpt>
      <trkpt lat="43.75933" lon="6.5836">
        <ele>933</ele>
        <time>2015-05-03T10:34:13Z</time>
      </trkpt>
      <trkpt lat="43.75935" lon="6.58358">
        <ele>933.8</ele>
        <time>2015-05-03T10:34:15Z</time>
      </trkpt>
      <trkpt lat="43.7595" lon="6.5833">
        <ele>933</ele>
        <time>2015-05-03T10:35:29Z</time>
      </trkpt>
      <trkpt lat="43.75951" lon="6.5833">
        <ele>933.8</ele>
        <time>2015-05-03T10:35:31Z</time>
      </trkpt>
      <trkpt lat="43.75946" lon="6.58347">
        <ele>934.1</ele>
        <time>2015-05-03T10:36:46Z</time>
      </trkpt>
      <trkpt lat="43.75945" lon="6.58349">
        <ele>934.1</ele>
        <time>2015-05-03T10:36:47Z</time>
      </trkpt>
      <trkpt lat="43.75928" lon="6.58375">
        <ele>934</ele>
        <time>2015-05-03T10:37:23Z</time>
      </trkpt>
      <trkpt lat="43.75918" lon="6.58395">
        <ele>934</ele>
        <time>2015-05-03T10:37:31Z</time>
      </trkpt>
      <trkpt lat="43.75931" lon="6.58375">
        <ele>934</ele>
        <time>2015-05-03T10:37:44Z</time>
      </trkpt>
      <trkpt lat="43.7594" lon="6.58362">
        <ele>934.6</ele>
        <time>2015-05-03T10:37:53Z</time>
      </trkpt>
      <trkpt lat="43.7594" lon="6.5835">
        <ele>933</ele>
        <time>2015-05-03T10:38:28Z</time>
      </trkpt>
      <trkpt lat="43.75925" lon="6.58348">
        <ele>933</ele>
        <time>2015-05-03T10:38:36Z</time>
      </trkpt>
      <trkpt lat="43.75936" lon="6.58346">
        <ele>933</ele>
        <time>2015-05-03T10:38:50Z</time>
      </trkpt>
      <trkpt lat="43.75926" lon="6.58343">
        <ele>933</ele>
        <time>2015-05-03T10:39:13Z</time>
      </trkpt>
      <trkpt lat="43.75929" lon="6.58352">
        <ele>934</ele>
        <time>2015-05-03T10:39:18Z</time>
      </trkpt>
      <trkpt lat="43.75938" lon="6.58353">
        <ele>934.1</ele>
        <time>2015-05-03T10:39:29Z</time>
      </trkpt>
      <trkpt lat="43.75945" lon="6.58346">
        <ele>934.6</ele>
        <time>2015-05-03T10:39:44Z</time>
      </trkpt>
      <trkpt lat="43.75939" lon="6.58356">
        <ele>933</ele>
        <time>2015-05-03T10:40:33Z</time>
      </trkpt>
      <trkpt lat="43.75939" lon="6.58353">
        <ele>934.5</ele>
        <time>2015-05-03T10:40:37Z</time>
      </trkpt>
      <trkpt lat="43.75954" lon="6.58342">
        <ele>933.8</ele>
        <time>2015-05-03T10:41:01Z</time>
      </trkpt>
      <trkpt lat="43.75957" lon="6.58336">
        <ele>934</ele>
        <time>2015-05-03T10:41:02Z</time>
      </trkpt>
      <trkpt lat="43.75951" lon="6.58343">
        <ele>933.8</ele>
        <time>2015-05-03T10:41:14Z</time>
      </trkpt>
      <trkpt lat="43.75963" lon="6.58336">
        <ele>932</ele>
        <time>2015-05-03T10:41:35Z</time>
      </trkpt>
      <trkpt lat="43.75955" lon="6.58333">
        <ele>933.1</ele>
        <time>2015-05-03T10:41:53Z</time>
      </trkpt>
      <trkpt lat="43.75954" lon="6.58335">
        <ele>933.2</ele>
        <time>2015-05-03T10:41:54Z</time>
      </trkpt>
      <trkpt lat="43.75944" lon="6.58349">
        <ele>933.7</ele>
        <time>2015-05-03T10:42:28Z</time>
      </trkpt>
      <trkpt lat="43.75938" lon="6.58357">
        <ele>932.9</ele>
        <time>2015-05-03T10:43:42Z</time>
      </trkpt>
      <trkpt lat="43.75936" lon="6.58358">
        <ele>932.9</ele>
        <time>2015-05-03T10:43:43Z</time>
      </trkpt>
      <trkpt lat="43.75955" lon="6.58347">
        <ele>933.4</ele>
        <time>2015-05-03T10:46:13Z</time>
      </trkpt>
      <trkpt lat="43.75956" lon="6.58347">
        <ele>933.2</ele>
        <time>2015-05-03T10:46:14Z</time>
      </trkpt>
      <trkpt lat="43.75943" lon="6.58359">
        <ele>933.5</ele>
        <time>2015-05-03T10:46:50Z</time>
      </trkpt>
      <trkpt lat="43.75937" lon="6.58367">
        <ele>934.3</ele>
        <time>2015-05-03T10:47:07Z</time>
      </trkpt>
      <trkpt lat="43.75943" lon="6.58359">
        <ele>934.6</ele>
        <time>2015-05-03T10:47:43Z</time>
      </trkpt>
      <trkpt lat="43.75944" lon="6.58358">
        <ele>934.6</ele>
        <time>2015-05-03T10:47:44Z</time>
      </trkpt>
      <trkpt lat="43.75947" lon="6.58347">
        <ele>934.6</ele>
        <time>2015-05-03T10:48:51Z</time>
      </trkpt>
      <trkpt lat="43.75953" lon="6.58338">
        <ele>934</ele>
        <time>2015-05-03T10:52:18Z</time>
      </trkpt>
      <trkpt lat="43.75941" lon="6.58356">
        <ele>933.7</ele>
        <time>2015-05-03T10:52:59Z</time>
      </trkpt>
      <trkpt lat="43.75939" lon="6.58368">
        <ele>934.1</ele>
        <time>2015-05-03T10:53:58Z</time>
      </trkpt>
      <trkpt lat="43.75939" lon="6.58369">
        <ele>934.2</ele>
        <time>2015-05-03T10:53:59Z</time>
      </trkpt>
      <trkpt lat="43.75951" lon="6.58352">
        <ele>935.7</ele>
        <time>2015-05-03T10:54:36Z</time>
      </trkpt>
      <trkpt lat="43.75954" lon="6.58341">
        <ele>937.8</ele>
        <time>2015-05-03T10:54:45Z</time>
      </trkpt>
      <trkpt lat="43.75956" lon="6.5833">
        <ele>937.5</ele>
        <time>2015-05-03T10:54:54Z</time>
      </trkpt>
      <trkpt lat="43.75961" lon="6.5832">
        <ele>937.4</ele>
        <time>2015-05-03T10:55:05Z</time>
      </trkpt>
      <trkpt lat="43.75961" lon="6.58319">
        <ele>937.5</ele>
        <time>2015-05-03T10:55:06Z</time>
      </trkpt>
      <trkpt lat="43.7597" lon="6.583">
        <ele>936.6</ele>
        <time>2015-05-03T10:55:33Z</time>
      </trkpt>
      <trkpt lat="43.75975" lon="6.58292">
        <ele>936.1</ele>
        <time>2015-05-03T10:55:51Z</time>
      </trkpt>
      <trkpt lat="43.75982" lon="6.58283">
        <ele>936.5</ele>
        <time>2015-05-03T10:56:00Z</time>
      </trkpt>
      <trkpt lat="43.75988" lon="6.58276">
        <ele>936.8</ele>
        <time>2015-05-03T10:56:07Z</time>
      </trkpt>
      <trkpt lat="43.75989" lon="6.58275">
        <ele>936.8</ele>
        <time>2015-05-03T10:56:08Z</time>
      </trkpt>
      <trkpt lat="43.75999" lon="6.58256">
        <ele>937</ele>
        <time>2015-05-03T10:56:22Z</time>
      </trkpt>
      <trkpt lat="43.76003" lon="6.58247">
        <ele>936.8</ele>
        <time>2015-05-03T10:56:29Z</time>
      </trkpt>
      <trkpt lat="43.7601" lon="6.58239">
        <ele>936.6</ele>
        <time>2015-05-03T10:56:39Z</time>
      </trkpt>
      <trkpt lat="43.76018" lon="6.58238">
        <ele>936.8</ele>
        <time>2015-05-03T10:56:49Z</time>
      </trkpt>
      <trkpt lat="43.76026" lon="6.58233">
        <ele>937</ele>
        <time>2015-05-03T10:57:00Z</time>
      </trkpt>
      <trkpt lat="43.76033" lon="6.58237">
        <ele>936.8</ele>
        <time>2015-05-03T10:57:09Z</time>
      </trkpt>
      <trkpt lat="43.76035" lon="6.58238">
        <ele>937.1</ele>
        <time>2015-05-03T10:57:10Z</time>
      </trkpt>
      <trkpt lat="43.76049" lon="6.58244">
        <ele>936.3</ele>
        <time>2015-05-03T10:57:24Z</time>
      </trkpt>
      <trkpt lat="43.76055" lon="6.58236">
        <ele>935.9</ele>
        <time>2015-05-03T10:57:31Z</time>
      </trkpt>
      <trkpt lat="43.7606" lon="6.58227">
        <ele>936</ele>
        <time>2015-05-03T10:57:37Z</time>
      </trkpt>
      <trkpt lat="43.76064" lon="6.58217">
        <ele>936.2</ele>
        <time>2015-05-03T10:57:44Z</time>
      </trkpt>
      <trkpt lat="43.76068" lon="6.58206">
        <ele>936.6</ele>
        <time>2015-05-03T10:57:51Z</time>
      </trkpt>
      <trkpt lat="43.76074" lon="6.58197">
        <ele>936.9</ele>
        <time>2015-05-03T10:57:58Z</time>
      </trkpt>
      <trkpt lat="43.76082" lon="6.58193">
        <ele>936.6</ele>
        <time>2015-05-03T10:58:06Z</time>
      </trkpt>
      <trkpt lat="43.7609" lon="6.58187">
        <ele>936.7</ele>
        <time>2015-05-03T10:58:15Z</time>
      </trkpt>
      <trkpt lat="43.76091" lon="6.58186">
        <ele>936.6</ele>
        <time>2015-05-03T10:58:16Z</time>
      </trkpt>
      <trkpt lat="43.76104" lon="6.58173">
        <ele>936.9</ele>
        <time>2015-05-03T10:58:32Z</time>
      </trkpt>
      <trkpt lat="43.76112" lon="6.58168">
        <ele>938.1</ele>
        <time>2015-05-03T10:58:41Z</time>
      </trkpt>
      <trkpt lat="43.76118" lon="6.5816">
        <ele>937.7</ele>
        <time>2015-05-03T10:58:50Z</time>
      </trkpt>
      <trkpt lat="43.76125" lon="6.58153">
        <ele>937.8</ele>
        <time>2015-05-03T10:58:58Z</time>
      </trkpt>
      <trkpt lat="43.76133" lon="6.58148">
        <ele>937.9</ele>
        <time>2015-05-03T10:59:06Z</time>
      </trkpt>
      <trkpt lat="43.7614" lon="6.58141">
        <ele>938.3</ele>
        <time>2015-05-03T10:59:14Z</time>
      </trkpt>
      <trkpt lat="43.76147" lon="6.58136">
        <ele>938.7</ele>
        <time>2015-05-03T10:59:22Z</time>
      </trkpt>
      <trkpt lat="43.76148" lon="6.58135">
        <ele>939</ele>
        <time>2015-05-03T10:59:23Z</time>
      </trkpt>
      <trkpt lat="43.7616" lon="6.58123">
        <ele>940.3</ele>
        <time>2015-05-03T10:59:37Z</time>
      </trkpt>
      <trkpt lat="43.76167" lon="6.58115">
        <ele>940.8</ele>
        <time>2015-05-03T10:59:46Z</time>
      </trkpt>
      <trkpt lat="43.76174" lon="6.58109">
        <ele>940.9</ele>
        <time>2015-05-03T10:59:54Z</time>
      </trkpt>
      <trkpt lat="43.76181" lon="6.58104">
        <ele>940.7</ele>
        <time>2015-05-03T11:00:02Z</time>
      </trkpt>
      <trkpt lat="43.76188" lon="6.58098">
        <ele>940.9</ele>
        <time>2015-05-03T11:00:10Z</time>
      </trkpt>
      <trkpt lat="43.76195" lon="6.58093">
        <ele>940.6</ele>
        <time>2015-05-03T11:00:17Z</time>
      </trkpt>
      <trkpt lat="43.76202" lon="6.58085">
        <ele>941.1</ele>
        <time>2015-05-03T11:00:24Z</time>
      </trkpt>
      <trkpt lat="43.76202" lon="6.58084">
        <ele>940.8</ele>
        <time>2015-05-03T11:00:25Z</time>
      </trkpt>
      <trkpt lat="43.76214" lon="6.5807">
        <ele>940.4</ele>
        <time>2015-05-03T11:00:40Z</time>
      </trkpt>
      <trkpt lat="43.76221" lon="6.58063">
        <ele>939.8</ele>
        <time>2015-05-03T11:00:47Z</time>
      </trkpt>
      <trkpt lat="43.76227" lon="6.58054">
        <ele>939.7</ele>
        <time>2015-05-03T11:00:55Z</time>
      </trkpt>
      <trkpt lat="43.76234" lon="6.58047">
        <ele>939.9</ele>
        <time>2015-05-03T11:01:04Z</time>
      </trkpt>
      <trkpt lat="43.76241" lon="6.58042">
        <ele>939.7</ele>
        <time>2015-05-03T11:01:14Z</time>
      </trkpt>
      <trkpt lat="43.76249" lon="6.58041">
        <ele>939.6</ele>
        <time>2015-05-03T11:01:21Z</time>
      </trkpt>
      <trkpt lat="43.76258" lon="6.58045">
        <ele>939.2</ele>
        <time>2015-05-03T11:01:28Z</time>
      </trkpt>
      <trkpt lat="43.76259" lon="6.58046">
        <ele>939.1</ele>
        <time>2015-05-03T11:01:29Z</time>
      </trkpt>
      <trkpt lat="43.76271" lon="6.58057">
        <ele>939.1</ele>
        <time>2015-05-03T11:01:44Z</time>
      </trkpt>
      <trkpt lat="43.76277" lon="6.58064">
        <ele>938.6</ele>
        <time>2015-05-03T11:01:53Z</time>
      </trkpt>
      <trkpt lat="43.76284" lon="6.58071">
        <ele>938.6</ele>
        <time>2015-05-03T11:02:03Z</time>
      </trkpt>
      <trkpt lat="43.76291" lon="6.58077">
        <ele>938</ele>
        <time>2015-05-03T11:02:10Z</time>
      </trkpt>
      <trkpt lat="43.76298" lon="6.58084">
        <ele>938.1</ele>
        <time>2015-05-03T11:02:17Z</time>
      </trkpt>
      <trkpt lat="43.76306" lon="6.58088">
        <ele>938</ele>
        <time>2015-05-03T11:02:24Z</time>
      </trkpt>
      <trkpt lat="43.76312" lon="6.58096">
        <ele>937.3</ele>
        <time>2015-05-03T11:02:31Z</time>
      </trkpt>
      <trkpt lat="43.76313" lon="6.58098">
        <ele>937.4</ele>
        <time>2015-05-03T11:02:32Z</time>
      </trkpt>
      <trkpt lat="43.76322" lon="6.58115">
        <ele>935.7</ele>
        <time>2015-05-03T11:02:47Z</time>
      </trkpt>
      <trkpt lat="43.76328" lon="6.5812">
        <ele>934.7</ele>
        <time>2015-05-03T11:02:54Z</time>
      </trkpt>
      <trkpt lat="43.76335" lon="6.58128">
        <ele>934.2</ele>
        <time>2015-05-03T11:03:01Z</time>
      </trkpt>
      <trkpt lat="43.76339" lon="6.58139">
        <ele>933.4</ele>
        <time>2015-05-03T11:03:10Z</time>
      </trkpt>
      <trkpt lat="43.76345" lon="6.58148">
        <ele>933.2</ele>
        <time>2015-05-03T11:03:19Z</time>
      </trkpt>
      <trkpt lat="43.76351" lon="6.58157">
        <ele>932.9</ele>
        <time>2015-05-03T11:03:27Z</time>
      </trkpt>
      <trkpt lat="43.76354" lon="6.58168">
        <ele>933.5</ele>
        <time>2015-05-03T11:03:57Z</time>
      </trkpt>
      <trkpt lat="43.76353" lon="6.58171">
        <ele>933.4</ele>
        <time>2015-05-03T11:03:58Z</time>
      </trkpt>
      <trkpt lat="43.7636" lon="6.58187">
        <ele>932.4</ele>
        <time>2015-05-03T11:04:08Z</time>
      </trkpt>
      <trkpt lat="43.76363" lon="6.58197">
        <ele>932</ele>
        <time>2015-05-03T11:04:12Z</time>
      </trkpt>
      <trkpt lat="43.76366" lon="6.58207">
        <ele>932.6</ele>
        <time>2015-05-03T11:04:18Z</time>
      </trkpt>
      <trkpt lat="43.76371" lon="6.58217">
        <ele>932.5</ele>
        <time>2015-05-03T11:04:25Z</time>
      </trkpt>
      <trkpt lat="43.76376" lon="6.58226">
        <ele>932.8</ele>
        <time>2015-05-03T11:04:29Z</time>
      </trkpt>
      <trkpt lat="43.76382" lon="6.58235">
        <ele>933.1</ele>
        <time>2015-05-03T11:04:39Z</time>
      </trkpt>
      <trkpt lat="43.76386" lon="6.58245">
        <ele>932.6</ele>
        <time>2015-05-03T11:04:49Z</time>
      </trkpt>
      <trkpt lat="43.76388" lon="6.58257">
        <ele>932.4</ele>
        <time>2015-05-03T11:04:58Z</time>
      </trkpt>
      <trkpt lat="43.76388" lon="6.58259">
        <ele>932.5</ele>
        <time>2015-05-03T11:04:59Z</time>
      </trkpt>
      <trkpt lat="43.76396" lon="6.58277">
        <ele>932.7</ele>
        <time>2015-05-03T11:05:10Z</time>
      </trkpt>
      <trkpt lat="43.76396" lon="6.58289">
        <ele>933.8</ele>
        <time>2015-05-03T11:05:26Z</time>
      </trkpt>
      <trkpt lat="43.76403" lon="6.58297">
        <ele>933.3</ele>
        <time>2015-05-03T11:05:37Z</time>
      </trkpt>
      <trkpt lat="43.76409" lon="6.58304">
        <ele>934.1</ele>
        <time>2015-05-03T11:05:45Z</time>
      </trkpt>
      <trkpt lat="43.76412" lon="6.58315">
        <ele>933.6</ele>
        <time>2015-05-03T11:05:55Z</time>
      </trkpt>
      <trkpt lat="43.76416" lon="6.58325">
        <ele>933.4</ele>
        <time>2015-05-03T11:06:03Z</time>
      </trkpt>
      <trkpt lat="43.76417" lon="6.58327">
        <ele>933.3</ele>
        <time>2015-05-03T11:06:04Z</time>
      </trkpt>
      <trkpt lat="43.76427" lon="6.58342">
        <ele>933.7</ele>
        <time>2015-05-03T11:06:16Z</time>
      </trkpt>
      <trkpt lat="43.76431" lon="6.58351">
        <ele>934.1</ele>
        <time>2015-05-03T11:06:25Z</time>
      </trkpt>
      <trkpt lat="43.76435" lon="6.58361">
        <ele>934</ele>
        <time>2015-05-03T11:06:31Z</time>
      </trkpt>
      <trkpt lat="43.76441" lon="6.58369">
        <ele>934.2</ele>
        <time>2015-05-03T11:06:39Z</time>
      </trkpt>
      <trkpt lat="43.76448" lon="6.58375">
        <ele>934.8</ele>
        <time>2015-05-03T11:06:46Z</time>
      </trkpt>
      <trkpt lat="43.76454" lon="6.58382">
        <ele>934.4</ele>
        <time>2015-05-03T11:06:51Z</time>
      </trkpt>
      <trkpt lat="43.7646" lon="6.5839">
        <ele>935.4</ele>
        <time>2015-05-03T11:06:58Z</time>
      </trkpt>
      <trkpt lat="43.76468" lon="6.58392">
        <ele>934.9</ele>
        <time>2015-05-03T11:07:04Z</time>
      </trkpt>
      <trkpt lat="43.7647" lon="6.58392">
        <ele>934.9</ele>
        <time>2015-05-03T11:07:05Z</time>
      </trkpt>
      <trkpt lat="43.76483" lon="6.58401">
        <ele>935.4</ele>
        <time>2015-05-03T11:07:17Z</time>
      </trkpt>
      <trkpt lat="43.7649" lon="6.58408">
        <ele>935.3</ele>
        <time>2015-05-03T11:07:24Z</time>
      </trkpt>
      <trkpt lat="43.76497" lon="6.58414">
        <ele>935.7</ele>
        <time>2015-05-03T11:07:31Z</time>
      </trkpt>
      <trkpt lat="43.76504" lon="6.58419">
        <ele>935.4</ele>
        <time>2015-05-03T11:07:38Z</time>
      </trkpt>
      <trkpt lat="43.76511" lon="6.58424">
        <ele>935.5</ele>
        <time>2015-05-03T11:07:44Z</time>
      </trkpt>
      <trkpt lat="43.76518" lon="6.58431">
        <ele>936.6</ele>
        <time>2015-05-03T11:07:51Z</time>
      </trkpt>
      <trkpt lat="43.76525" lon="6.58437">
        <ele>937.4</ele>
        <time>2015-05-03T11:07:58Z</time>
      </trkpt>
      <trkpt lat="43.76533" lon="6.58443">
        <ele>937.5</ele>
        <time>2015-05-03T11:08:14Z</time>
      </trkpt>
      <trkpt lat="43.76534" lon="6.58443">
        <ele>937.4</ele>
        <time>2015-05-03T11:08:15Z</time>
      </trkpt>
      <trkpt lat="43.76543" lon="6.58459">
        <ele>936.6</ele>
        <time>2015-05-03T11:08:32Z</time>
      </trkpt>
      <trkpt lat="43.76547" lon="6.5847">
        <ele>936.3</ele>
        <time>2015-05-03T11:08:43Z</time>
      </trkpt>
      <trkpt lat="43.76554" lon="6.58476">
        <ele>937.4</ele>
        <time>2015-05-03T11:08:53Z</time>
      </trkpt>
      <trkpt lat="43.76563" lon="6.58477">
        <ele>938</ele>
        <time>2015-05-03T11:09:03Z</time>
      </trkpt>
      <trkpt lat="43.76571" lon="6.58475">
        <ele>939.3</ele>
        <time>2015-05-03T11:09:18Z</time>
      </trkpt>
      <trkpt lat="43.76572" lon="6.58476">
        <ele>938.9</ele>
        <time>2015-05-03T11:09:19Z</time>
      </trkpt>
      <trkpt lat="43.76586" lon="6.58486">
        <ele>939</ele>
        <time>2015-05-03T11:09:35Z</time>
      </trkpt>
      <trkpt lat="43.76594" lon="6.58486">
        <ele>938.4</ele>
        <time>2015-05-03T11:09:41Z</time>
      </trkpt>
      <trkpt lat="43.76602" lon="6.58484">
        <ele>938.2</ele>
        <time>2015-05-03T11:09:49Z</time>
      </trkpt>
      <trkpt lat="43.76608" lon="6.58475">
        <ele>938.4</ele>
        <time>2015-05-03T11:10:04Z</time>
      </trkpt>
      <trkpt lat="43.76616" lon="6.58481">
        <ele>939</ele>
        <time>2015-05-03T11:10:53Z</time>
      </trkpt>
      <trkpt lat="43.76617" lon="6.58481">
        <ele>938.7</ele>
        <time>2015-05-03T11:10:54Z</time>
      </trkpt>
      <trkpt lat="43.76633" lon="6.58485">
        <ele>938.6</ele>
        <time>2015-05-03T11:11:09Z</time>
      </trkpt>
      <trkpt lat="43.76641" lon="6.58483">
        <ele>938.8</ele>
        <time>2015-05-03T11:11:16Z</time>
      </trkpt>
      <trkpt lat="43.76649" lon="6.58482">
        <ele>938.1</ele>
        <time>2015-05-03T11:11:23Z</time>
      </trkpt>
      <trkpt lat="43.76657" lon="6.5848">
        <ele>938.2</ele>
        <time>2015-05-03T11:11:30Z</time>
      </trkpt>
      <trkpt lat="43.76665" lon="6.58476">
        <ele>938.3</ele>
        <time>2015-05-03T11:11:37Z</time>
      </trkpt>
      <trkpt lat="43.76672" lon="6.58479">
        <ele>938.8</ele>
        <time>2015-05-03T11:11:44Z</time>
      </trkpt>
      <trkpt lat="43.76681" lon="6.5848">
        <ele>938.5</ele>
        <time>2015-05-03T11:11:51Z</time>
      </trkpt>
      <trkpt lat="43.76689" lon="6.58482">
        <ele>938.9</ele>
        <time>2015-05-03T11:11:58Z</time>
      </trkpt>
      <trkpt lat="43.7669" lon="6.58482">
        <ele>939</ele>
        <time>2015-05-03T11:11:59Z</time>
      </trkpt>
      <trkpt lat="43.76705" lon="6.58477">
        <ele>939.3</ele>
        <time>2015-05-03T11:12:14Z</time>
      </trkpt>
      <trkpt lat="43.7671" lon="6.58468">
        <ele>938.6</ele>
        <time>2015-05-03T11:12:21Z</time>
      </trkpt>
      <trkpt lat="43.76715" lon="6.58461">
        <ele>938.5</ele>
        <time>2015-05-03T11:12:27Z</time>
      </trkpt>
      <trkpt lat="43.76721" lon="6.58453">
        <ele>938.6</ele>
        <time>2015-05-03T11:12:32Z</time>
      </trkpt>
      <trkpt lat="43.76726" lon="6.58443">
        <ele>938.6</ele>
        <time>2015-05-03T11:12:42Z</time>
      </trkpt>
      <trkpt lat="43.76732" lon="6.58436">
        <ele>938.3</ele>
        <time>2015-05-03T11:12:49Z</time>
      </trkpt>
      <trkpt lat="43.76739" lon="6.58429">
        <ele>939.1</ele>
        <time>2015-05-03T11:12:56Z</time>
      </trkpt>
      <trkpt lat="43.76746" lon="6.58423">
        <ele>939.2</ele>
        <time>2015-05-03T11:13:04Z</time>
      </trkpt>
      <trkpt lat="43.76747" lon="6.58421">
        <ele>939.5</ele>
        <time>2015-05-03T11:13:05Z</time>
      </trkpt>
      <trkpt lat="43.7676" lon="6.58409">
        <ele>940</ele>
        <time>2015-05-03T11:13:18Z</time>
      </trkpt>
      <trkpt lat="43.76768" lon="6.58406">
        <ele>939.6</ele>
        <time>2015-05-03T11:13:25Z</time>
      </trkpt>
      <trkpt lat="43.76773" lon="6.58395">
        <ele>939.8</ele>
        <time>2015-05-03T11:13:35Z</time>
      </trkpt>
      <trkpt lat="43.7678" lon="6.5839">
        <ele>941.6</ele>
        <time>2015-05-03T11:13:42Z</time>
      </trkpt>
      <trkpt lat="43.76786" lon="6.58381">
        <ele>941.9</ele>
        <time>2015-05-03T11:13:48Z</time>
      </trkpt>
      <trkpt lat="43.76789" lon="6.58372">
        <ele>942.7</ele>
        <time>2015-05-03T11:13:54Z</time>
      </trkpt>
      <trkpt lat="43.76791" lon="6.5836">
        <ele>942.7</ele>
        <time>2015-05-03T11:14:01Z</time>
      </trkpt>
      <trkpt lat="43.76793" lon="6.58348">
        <ele>943.9</ele>
        <time>2015-05-03T11:14:08Z</time>
      </trkpt>
      <trkpt lat="43.76793" lon="6.58346">
        <ele>943.9</ele>
        <time>2015-05-03T11:14:09Z</time>
      </trkpt>
      <trkpt lat="43.76797" lon="6.58323">
        <ele>943.5</ele>
        <time>2015-05-03T11:14:24Z</time>
      </trkpt>
      <trkpt lat="43.76805" lon="6.58328">
        <ele>943.7</ele>
        <time>2015-05-03T11:14:39Z</time>
      </trkpt>
      <trkpt lat="43.76812" lon="6.58336">
        <ele>944.1</ele>
        <time>2015-05-03T11:14:48Z</time>
      </trkpt>
      <trkpt lat="43.76818" lon="6.58344">
        <ele>943.9</ele>
        <time>2015-05-03T11:14:56Z</time>
      </trkpt>
      <trkpt lat="43.76824" lon="6.58352">
        <ele>943.6</ele>
        <time>2015-05-03T11:15:03Z</time>
      </trkpt>
      <trkpt lat="43.76828" lon="6.58363">
        <ele>942.9</ele>
        <time>2015-05-03T11:15:12Z</time>
      </trkpt>
      <trkpt lat="43.76829" lon="6.58364">
        <ele>942.9</ele>
        <time>2015-05-03T11:15:13Z</time>
      </trkpt>
      <trkpt lat="43.76841" lon="6.58376">
        <ele>942.4</ele>
        <time>2015-05-03T11:15:26Z</time>
      </trkpt>
      <trkpt lat="43.7685" lon="6.58379">
        <ele>942.7</ele>
        <time>2015-05-03T11:15:31Z</time>
      </trkpt>
      <trkpt lat="43.76859" lon="6.58379">
        <ele>943.2</ele>
        <time>2015-05-03T11:15:38Z</time>
      </trkpt>
      <trkpt lat="43.76867" lon="6.58376">
        <ele>944</ele>
        <time>2015-05-03T11:15:44Z</time>
      </trkpt>
      <trkpt lat="43.76874" lon="6.5837">
        <ele>944.6</ele>
        <time>2015-05-03T11:15:53Z</time>
      </trkpt>
      <trkpt lat="43.76882" lon="6.58365">
        <ele>946</ele>
        <time>2015-05-03T11:16:02Z</time>
      </trkpt>
      <trkpt lat="43.76891" lon="6.58363">
        <ele>946.5</ele>
        <time>2015-05-03T11:16:09Z</time>
      </trkpt>
      <trkpt lat="43.76899" lon="6.58364">
        <ele>946.8</ele>
        <time>2015-05-03T11:16:19Z</time>
      </trkpt>
      <trkpt lat="43.769" lon="6.58364">
        <ele>947</ele>
        <time>2015-05-03T11:16:20Z</time>
      </trkpt>
      <trkpt lat="43.76916" lon="6.58362">
        <ele>948.3</ele>
        <time>2015-05-03T11:16:36Z</time>
      </trkpt>
      <trkpt lat="43.76924" lon="6.58358">
        <ele>948.3</ele>
        <time>2015-05-03T11:16:44Z</time>
      </trkpt>
      <trkpt lat="43.76933" lon="6.58357">
        <ele>948.1</ele>
        <time>2015-05-03T11:16:51Z</time>
      </trkpt>
      <trkpt lat="43.76941" lon="6.58355">
        <ele>947.8</ele>
        <time>2015-05-03T11:16:58Z</time>
      </trkpt>
      <trkpt lat="43.76949" lon="6.58356">
        <ele>947.5</ele>
        <time>2015-05-03T11:17:05Z</time>
      </trkpt>
      <trkpt lat="43.76958" lon="6.58359">
        <ele>947.8</ele>
        <time>2015-05-03T11:17:12Z</time>
      </trkpt>
      <trkpt lat="43.76966" lon="6.58355">
        <ele>947.9</ele>
        <time>2015-05-03T11:17:20Z</time>
      </trkpt>
      <trkpt lat="43.76966" lon="6.58354">
        <ele>947.9</ele>
        <time>2015-05-03T11:17:21Z</time>
      </trkpt>
      <trkpt lat="43.76983" lon="6.58351">
        <ele>947.4</ele>
        <time>2015-05-03T11:17:40Z</time>
      </trkpt>
      <trkpt lat="43.76991" lon="6.58353">
        <ele>947.8</ele>
        <time>2015-05-03T11:17:49Z</time>
      </trkpt>
      <trkpt lat="43.76999" lon="6.58356">
        <ele>947.5</ele>
        <time>2015-05-03T11:17:56Z</time>
      </trkpt>
      <trkpt lat="43.77007" lon="6.58358">
        <ele>946.9</ele>
        <time>2015-05-03T11:18:03Z</time>
      </trkpt>
      <trkpt lat="43.77015" lon="6.58354">
        <ele>947.2</ele>
        <time>2015-05-03T11:18:09Z</time>
      </trkpt>
      <trkpt lat="43.77023" lon="6.58352">
        <ele>946.7</ele>
        <time>2015-05-03T11:18:14Z</time>
      </trkpt>
      <trkpt lat="43.77031" lon="6.58349">
        <ele>947.6</ele>
        <time>2015-05-03T11:18:22Z</time>
      </trkpt>
      <trkpt lat="43.77032" lon="6.58349">
        <ele>947.6</ele>
        <time>2015-05-03T11:18:23Z</time>
      </trkpt>
      <trkpt lat="43.77048" lon="6.58351">
        <ele>948.7</ele>
        <time>2015-05-03T11:18:40Z</time>
      </trkpt>
      <trkpt lat="43.77056" lon="6.58356">
        <ele>948.7</ele>
        <time>2015-05-03T11:18:51Z</time>
      </trkpt>
      <trkpt lat="43.77064" lon="6.58357">
        <ele>949.1</ele>
        <time>2015-05-03T11:18:58Z</time>
      </trkpt>
      <trkpt lat="43.77073" lon="6.58361">
        <ele>949.7</ele>
        <time>2015-05-03T11:19:10Z</time>
      </trkpt>
      <trkpt lat="43.77082" lon="6.58363">
        <ele>949.5</ele>
        <time>2015-05-03T11:19:17Z</time>
      </trkpt>
      <trkpt lat="43.77089" lon="6.58361">
        <ele>949.4</ele>
        <time>2015-05-03T11:19:24Z</time>
      </trkpt>
      <trkpt lat="43.77091" lon="6.5836">
        <ele>949.4</ele>
        <time>2015-05-03T11:19:25Z</time>
      </trkpt>
      <trkpt lat="43.77105" lon="6.58352">
        <ele>950</ele>
        <time>2015-05-03T11:19:34Z</time>
      </trkpt>
      <trkpt lat="43.77112" lon="6.58346">
        <ele>949.9</ele>
        <time>2015-05-03T11:19:39Z</time>
      </trkpt>
      <trkpt lat="43.7712" lon="6.58342">
        <ele>949.9</ele>
        <time>2015-05-03T11:19:45Z</time>
      </trkpt>
      <trkpt lat="43.77127" lon="6.58338">
        <ele>949.5</ele>
        <time>2015-05-03T11:19:56Z</time>
      </trkpt>
      <trkpt lat="43.77134" lon="6.58335">
        <ele>949.9</ele>
        <time>2015-05-03T11:20:01Z</time>
      </trkpt>
      <trkpt lat="43.77143" lon="6.58334">
        <ele>950.4</ele>
        <time>2015-05-03T11:20:07Z</time>
      </trkpt>
      <trkpt lat="43.77151" lon="6.5833">
        <ele>951.1</ele>
        <time>2015-05-03T11:20:14Z</time>
      </trkpt>
      <trkpt lat="43.77157" lon="6.58322">
        <ele>951.3</ele>
        <time>2015-05-03T11:20:22Z</time>
      </trkpt>
      <trkpt lat="43.77165" lon="6.58315">
        <ele>951.1</ele>
        <time>2015-05-03T11:20:40Z</time>
      </trkpt>
      <trkpt lat="43.77165" lon="6.58315">
        <ele>951.2</ele>
        <time>2015-05-03T11:20:41Z</time>
      </trkpt>
      <trkpt lat="43.77174" lon="6.58315">
        <ele>952.1</ele>
        <time>2015-05-03T11:22:57Z</time>
      </trkpt>
      <trkpt lat="43.7719" lon="6.58307">
        <ele>954.5</ele>
        <time>2015-05-03T11:23:26Z</time>
      </trkpt>
      <trkpt lat="43.77198" lon="6.58303">
        <ele>956.5</ele>
        <time>2015-05-03T11:23:42Z</time>
      </trkpt>
      <trkpt lat="43.77206" lon="6.58301">
        <ele>957</ele>
        <time>2015-05-03T11:23:54Z</time>
      </trkpt>
      <trkpt lat="43.77214" lon="6.58298">
        <ele>957.5</ele>
        <time>2015-05-03T11:24:01Z</time>
      </trkpt>
      <trkpt lat="43.77216" lon="6.58298">
        <ele>957.6</ele>
        <time>2015-05-03T11:24:02Z</time>
      </trkpt>
      <trkpt lat="43.7723" lon="6.5829">
        <ele>958.9</ele>
        <time>2015-05-03T11:24:17Z</time>
      </trkpt>
      <trkpt lat="43.77238" lon="6.58285">
        <ele>959.1</ele>
        <time>2015-05-03T11:24:23Z</time>
      </trkpt>
      <trkpt lat="43.77246" lon="6.5828">
        <ele>959.7</ele>
        <time>2015-05-03T11:24:34Z</time>
      </trkpt>
      <trkpt lat="43.77254" lon="6.5828">
        <ele>959.4</ele>
        <time>2015-05-03T11:24:39Z</time>
      </trkpt>
      <trkpt lat="43.77262" lon="6.58276">
        <ele>960</ele>
        <time>2015-05-03T11:24:45Z</time>
      </trkpt>
      <trkpt lat="43.77269" lon="6.58269">
        <ele>959.6</ele>
        <time>2015-05-03T11:24:52Z</time>
      </trkpt>
      <trkpt lat="43.77275" lon="6.58258">
        <ele>959</ele>
        <time>2015-05-03T11:25:01Z</time>
      </trkpt>
      <trkpt lat="43.77276" lon="6.58258">
        <ele>959.3</ele>
        <time>2015-05-03T11:25:03Z</time>
      </trkpt>
      <trkpt lat="43.77287" lon="6.58242">
        <ele>958</ele>
        <time>2015-05-03T11:25:16Z</time>
      </trkpt>
      <trkpt lat="43.77291" lon="6.58233">
        <ele>957.4</ele>
        <time>2015-05-03T11:25:24Z</time>
      </trkpt>
      <trkpt lat="43.77294" lon="6.58222">
        <ele>957.3</ele>
        <time>2015-05-03T11:25:30Z</time>
      </trkpt>
      <trkpt lat="43.77299" lon="6.58212">
        <ele>958.1</ele>
        <time>2015-05-03T11:25:38Z</time>
      </trkpt>
      <trkpt lat="43.77305" lon="6.58204">
        <ele>957.2</ele>
        <time>2015-05-03T11:25:46Z</time>
      </trkpt>
      <trkpt lat="43.7731" lon="6.58194">
        <ele>957.1</ele>
        <time>2015-05-03T11:25:54Z</time>
      </trkpt>
      <trkpt lat="43.77316" lon="6.58186">
        <ele>957.5</ele>
        <time>2015-05-03T11:26:03Z</time>
      </trkpt>
      <trkpt lat="43.77321" lon="6.58177">
        <ele>957.1</ele>
        <time>2015-05-03T11:26:11Z</time>
      </trkpt>
      <trkpt lat="43.77322" lon="6.58175">
        <ele>957.5</ele>
        <time>2015-05-03T11:26:12Z</time>
      </trkpt>
      <trkpt lat="43.77329" lon="6.58156">
        <ele>959.2</ele>
        <time>2015-05-03T11:26:27Z</time>
      </trkpt>
      <trkpt lat="43.77335" lon="6.58148">
        <ele>959.3</ele>
        <time>2015-05-03T11:26:35Z</time>
      </trkpt>
      <trkpt lat="43.77342" lon="6.58141">
        <ele>960.2</ele>
        <time>2015-05-03T11:26:43Z</time>
      </trkpt>
      <trkpt lat="43.77347" lon="6.58132">
        <ele>960.9</ele>
        <time>2015-05-03T11:26:51Z</time>
      </trkpt>
      <trkpt lat="43.77351" lon="6.58122">
        <ele>962.1</ele>
        <time>2015-05-03T11:27:01Z</time>
      </trkpt>
      <trkpt lat="43.77358" lon="6.58118">
        <ele>962.3</ele>
        <time>2015-05-03T11:27:07Z</time>
      </trkpt>
      <trkpt lat="43.77364" lon="6.5811">
        <ele>962.9</ele>
        <time>2015-05-03T11:27:14Z</time>
      </trkpt>
      <trkpt lat="43.77365" lon="6.58109">
        <ele>963.1</ele>
        <time>2015-05-03T11:27:15Z</time>
      </trkpt>
      <trkpt lat="43.77379" lon="6.58097">
        <ele>964.6</ele>
        <time>2015-05-03T11:27:32Z</time>
      </trkpt>
      <trkpt lat="43.77386" lon="6.58091">
        <ele>965.9</ele>
        <time>2015-05-03T11:27:41Z</time>
      </trkpt>
      <trkpt lat="43.77393" lon="6.58083">
        <ele>966</ele>
        <time>2015-05-03T11:27:51Z</time>
      </trkpt>
      <trkpt lat="43.77398" lon="6.58075">
        <ele>966.6</ele>
        <time>2015-05-03T11:28:01Z</time>
      </trkpt>
      <trkpt lat="43.77406" lon="6.5807">
        <ele>967.4</ele>
        <time>2015-05-03T11:28:09Z</time>
      </trkpt>
      <trkpt lat="43.77412" lon="6.58064">
        <ele>967.8</ele>
        <time>2015-05-03T11:28:17Z</time>
      </trkpt>
      <trkpt lat="43.77413" lon="6.58063">
        <ele>968</ele>
        <time>2015-05-03T11:28:18Z</time>
      </trkpt>
      <trkpt lat="43.77425" lon="6.58049">
        <ele>969</ele>
        <time>2015-05-03T11:28:33Z</time>
      </trkpt>
      <trkpt lat="43.77433" lon="6.58043">
        <ele>970.1</ele>
        <time>2015-05-03T11:28:41Z</time>
      </trkpt>
      <trkpt lat="43.7744" lon="6.58037">
        <ele>970.4</ele>
        <time>2015-05-03T11:28:49Z</time>
      </trkpt>
      <trkpt lat="43.77447" lon="6.58029">
        <ele>970.7</ele>
        <time>2015-05-03T11:28:56Z</time>
      </trkpt>
      <trkpt lat="43.77454" lon="6.58021">
        <ele>971.4</ele>
        <time>2015-05-03T11:29:04Z</time>
      </trkpt>
      <trkpt lat="43.77461" lon="6.58012">
        <ele>971</ele>
        <time>2015-05-03T11:29:13Z</time>
      </trkpt>
      <trkpt lat="43.77469" lon="6.58006">
        <ele>972</ele>
        <time>2015-05-03T11:29:24Z</time>
      </trkpt>
      <trkpt lat="43.7747" lon="6.58005">
        <ele>972</ele>
        <time>2015-05-03T11:29:25Z</time>
      </trkpt>
      <trkpt lat="43.77483" lon="6.57994">
        <ele>972.8</ele>
        <time>2015-05-03T11:29:38Z</time>
      </trkpt>
      <trkpt lat="43.7749" lon="6.57989">
        <ele>973.5</ele>
        <time>2015-05-03T11:29:46Z</time>
      </trkpt>
      <trkpt lat="43.77498" lon="6.57983">
        <ele>973.7</ele>
        <time>2015-05-03T11:29:54Z</time>
      </trkpt>
      <trkpt lat="43.77504" lon="6.57976">
        <ele>975</ele>
        <time>2015-05-03T11:30:01Z</time>
      </trkpt>
      <trkpt lat="43.7751" lon="6.57968">
        <ele>974.6</ele>
        <time>2015-05-03T11:30:09Z</time>
      </trkpt>
      <trkpt lat="43.77519" lon="6.57964">
        <ele>975.8</ele>
        <time>2015-05-03T11:30:18Z</time>
      </trkpt>
      <trkpt lat="43.77524" lon="6.57955">
        <ele>976.8</ele>
        <time>2015-05-03T11:30:26Z</time>
      </trkpt>
      <trkpt lat="43.77524" lon="6.57954">
        <ele>976.8</ele>
        <time>2015-05-03T11:30:27Z</time>
      </trkpt>
      <trkpt lat="43.77538" lon="6.57942">
        <ele>978.4</ele>
        <time>2015-05-03T11:30:44Z</time>
      </trkpt>
      <trkpt lat="43.77544" lon="6.57934">
        <ele>979</ele>
        <time>2015-05-03T11:30:54Z</time>
      </trkpt>
      <trkpt lat="43.7755" lon="6.57927">
        <ele>979.5</ele>
        <time>2015-05-03T11:31:01Z</time>
      </trkpt>
      <trkpt lat="43.77556" lon="6.57919">
        <ele>980.3</ele>
        <time>2015-05-03T11:31:09Z</time>
      </trkpt>
      <trkpt lat="43.77564" lon="6.57914">
        <ele>982.8</ele>
        <time>2015-05-03T11:31:19Z</time>
      </trkpt>
      <trkpt lat="43.7757" lon="6.57905">
        <ele>984.6</ele>
        <time>2015-05-03T11:31:28Z</time>
      </trkpt>
      <trkpt lat="43.77571" lon="6.57905">
        <ele>984.9</ele>
        <time>2015-05-03T11:31:29Z</time>
      </trkpt>
      <trkpt lat="43.77586" lon="6.57896">
        <ele>988.4</ele>
        <time>2015-05-03T11:31:59Z</time>
      </trkpt>
      <trkpt lat="43.77594" lon="6.5789">
        <ele>988.6</ele>
        <time>2015-05-03T11:32:09Z</time>
      </trkpt>
      <trkpt lat="43.7759" lon="6.57881">
        <ele>989.9</ele>
        <time>2015-05-03T11:32:15Z</time>
      </trkpt>
      <trkpt lat="43.77585" lon="6.57872">
        <ele>990.7</ele>
        <time>2015-05-03T11:32:21Z</time>
      </trkpt>
      <trkpt lat="43.77592" lon="6.57871">
        <ele>991</ele>
        <time>2015-05-03T11:32:27Z</time>
      </trkpt>
      <trkpt lat="43.776" lon="6.57875">
        <ele>991.3</ele>
        <time>2015-05-03T11:32:30Z</time>
      </trkpt>
      <trkpt lat="43.77603" lon="6.57876">
        <ele>991.5</ele>
        <time>2015-05-03T11:32:31Z</time>
      </trkpt>
      <trkpt lat="43.77611" lon="6.57878">
        <ele>991.9</ele>
        <time>2015-05-03T11:32:33Z</time>
      </trkpt>
      <trkpt lat="43.77616" lon="6.5788">
        <ele>992.2</ele>
        <time>2015-05-03T11:32:34Z</time>
      </trkpt>
      <trkpt lat="43.77624" lon="6.57881">
        <ele>992.5</ele>
        <time>2015-05-03T11:32:36Z</time>
      </trkpt>
      <trkpt lat="43.77629" lon="6.57882">
        <ele>992.7</ele>
        <time>2015-05-03T11:32:38Z</time>
      </trkpt>
      <trkpt lat="43.77621" lon="6.57888">
        <ele>992.6</ele>
        <time>2015-05-03T11:33:08Z</time>
      </trkpt>
      <trkpt lat="43.77629" lon="6.57884">
        <ele>994.1</ele>
        <time>2015-05-03T11:33:52Z</time>
      </trkpt>
      <trkpt lat="43.7763" lon="6.57884">
        <ele>994</ele>
        <time>2015-05-03T11:33:53Z</time>
      </trkpt>
      <trkpt lat="43.77643" lon="6.57875">
        <ele>994</ele>
        <time>2015-05-03T11:35:21Z</time>
      </trkpt>
      <trkpt lat="43.77632" lon="6.5789">
        <ele>994.6</ele>
        <time>2015-05-03T11:36:51Z</time>
      </trkpt>
      <trkpt lat="43.77632" lon="6.57888">
        <ele>994.6</ele>
        <time>2015-05-03T11:37:42Z</time>
      </trkpt>
      <trkpt lat="43.77623" lon="6.57888">
        <ele>994</ele>
        <time>2015-05-03T11:37:51Z</time>
      </trkpt>
      <trkpt lat="43.77622" lon="6.57887">
        <ele>994.4</ele>
        <time>2015-05-03T11:37:53Z</time>
      </trkpt>
      <trkpt lat="43.77638" lon="6.5789">
        <ele>993.8</ele>
        <time>2015-05-03T11:38:21Z</time>
      </trkpt>
      <trkpt lat="43.77646" lon="6.5789">
        <ele>993.5</ele>
        <time>2015-05-03T11:38:29Z</time>
      </trkpt>
      <trkpt lat="43.77656" lon="6.57891">
        <ele>993.9</ele>
        <time>2015-05-03T11:38:35Z</time>
      </trkpt>
      <trkpt lat="43.77664" lon="6.57892">
        <ele>994.2</ele>
        <time>2015-05-03T11:38:39Z</time>
      </trkpt>
      <trkpt lat="43.77672" lon="6.5789">
        <ele>994.5</ele>
        <time>2015-05-03T11:38:45Z</time>
      </trkpt>
      <trkpt lat="43.77666" lon="6.57897">
        <ele>994.6</ele>
        <time>2015-05-03T11:38:52Z</time>
      </trkpt>
      <trkpt lat="43.77659" lon="6.57903">
        <ele>992.8</ele>
        <time>2015-05-03T11:38:59Z</time>
      </trkpt>
      <trkpt lat="43.77658" lon="6.57904">
        <ele>992.9</ele>
        <time>2015-05-03T11:39:00Z</time>
      </trkpt>
      <trkpt lat="43.77646" lon="6.57915">
        <ele>992.1</ele>
        <time>2015-05-03T11:39:07Z</time>
      </trkpt>
      <trkpt lat="43.7764" lon="6.57923">
        <ele>992.9</ele>
        <time>2015-05-03T11:39:15Z</time>
      </trkpt>
      <trkpt lat="43.77635" lon="6.57932">
        <ele>991.4</ele>
        <time>2015-05-03T11:39:26Z</time>
      </trkpt>
      <trkpt lat="43.77637" lon="6.57943">
        <ele>991.8</ele>
        <time>2015-05-03T11:39:34Z</time>
      </trkpt>
      <trkpt lat="43.77639" lon="6.57955">
        <ele>990.5</ele>
        <time>2015-05-03T11:39:46Z</time>
      </trkpt>
      <trkpt lat="43.77643" lon="6.57964">
        <ele>991.7</ele>
        <time>2015-05-03T11:39:54Z</time>
      </trkpt>
      <trkpt lat="43.77648" lon="6.57974">
        <ele>990.6</ele>
        <time>2015-05-03T11:40:02Z</time>
      </trkpt>
      <trkpt lat="43.77648" lon="6.57975">
        <ele>990.7</ele>
        <time>2015-05-03T11:40:03Z</time>
      </trkpt>
      <trkpt lat="43.77661" lon="6.57989">
        <ele>989.8</ele>
        <time>2015-05-03T11:40:15Z</time>
      </trkpt>
      <trkpt lat="43.77668" lon="6.57996">
        <ele>988.9</ele>
        <time>2015-05-03T11:40:21Z</time>
      </trkpt>
      <trkpt lat="43.77674" lon="6.58002">
        <ele>989.4</ele>
        <time>2015-05-03T11:40:26Z</time>
      </trkpt>
      <trkpt lat="43.77677" lon="6.58013">
        <ele>987.4</ele>
        <time>2015-05-03T11:40:51Z</time>
      </trkpt>
      <trkpt lat="43.77683" lon="6.58021">
        <ele>986.9</ele>
        <time>2015-05-03T11:41:13Z</time>
      </trkpt>
      <trkpt lat="43.77684" lon="6.58022">
        <ele>986.6</ele>
        <time>2015-05-03T11:41:14Z</time>
      </trkpt>
      <trkpt lat="43.77699" lon="6.58029">
        <ele>986.3</ele>
        <time>2015-05-03T11:42:00Z</time>
      </trkpt>
      <trkpt lat="43.77708" lon="6.58028">
        <ele>984.7</ele>
        <time>2015-05-03T11:42:27Z</time>
      </trkpt>
      <trkpt lat="43.77708" lon="6.58028">
        <ele>984.6</ele>
        <time>2015-05-03T11:42:28Z</time>
      </trkpt>
      <trkpt lat="43.77723" lon="6.5804">
        <ele>983.1</ele>
        <time>2015-05-03T11:42:55Z</time>
      </trkpt>
      <trkpt lat="43.77732" lon="6.5804">
        <ele>983.1</ele>
        <time>2015-05-03T11:43:26Z</time>
      </trkpt>
      <trkpt lat="43.77725" lon="6.58032">
        <ele>983.4</ele>
        <time>2015-05-03T11:44:19Z</time>
      </trkpt>
      <trkpt lat="43.77725" lon="6.58031">
        <ele>983.3</ele>
        <time>2015-05-03T11:44:20Z</time>
      </trkpt>
      <trkpt lat="43.77725" lon="6.58008">
        <ele>985.1</ele>
        <time>2015-05-03T11:44:41Z</time>
      </trkpt>
      <trkpt lat="43.7773" lon="6.57998">
        <ele>986.3</ele>
        <time>2015-05-03T11:44:49Z</time>
      </trkpt>
      <trkpt lat="43.77733" lon="6.57986">
        <ele>986.8</ele>
        <time>2015-05-03T11:45:01Z</time>
      </trkpt>
      <trkpt lat="43.7774" lon="6.57978">
        <ele>987.3</ele>
        <time>2015-05-03T11:45:23Z</time>
      </trkpt>
      <trkpt lat="43.7774" lon="6.57979">
        <ele>987.4</ele>
        <time>2015-05-03T11:45:24Z</time>
      </trkpt>
      <trkpt lat="43.77754" lon="6.57987">
        <ele>987.2</ele>
        <time>2015-05-03T11:46:47Z</time>
      </trkpt>
      <trkpt lat="43.77755" lon="6.57988">
        <ele>987.4</ele>
        <time>2015-05-03T11:46:48Z</time>
      </trkpt>
      <trkpt lat="43.77766" lon="6.58004">
        <ele>986.7</ele>
        <time>2015-05-03T11:47:15Z</time>
      </trkpt>
      <trkpt lat="43.77773" lon="6.58012">
        <ele>986.8</ele>
        <time>2015-05-03T11:47:28Z</time>
      </trkpt>
      <trkpt lat="43.7778" lon="6.58019">
        <ele>986.9</ele>
        <time>2015-05-03T11:47:51Z</time>
      </trkpt>
      <trkpt lat="43.7778" lon="6.58019">
        <ele>986.9</ele>
        <time>2015-05-03T11:47:52Z</time>
      </trkpt>
      <trkpt lat="43.77797" lon="6.58027">
        <ele>986.6</ele>
        <time>2015-05-03T11:48:36Z</time>
      </trkpt>
      <trkpt lat="43.77804" lon="6.58034">
        <ele>986.7</ele>
        <time>2015-05-03T11:48:51Z</time>
      </trkpt>
      <trkpt lat="43.77813" lon="6.58034">
        <ele>986.6</ele>
        <time>2015-05-03T11:49:27Z</time>
      </trkpt>
      <trkpt lat="43.77813" lon="6.58034">
        <ele>986.7</ele>
        <time>2015-05-03T11:49:28Z</time>
      </trkpt>
      <trkpt lat="43.77807" lon="6.58025">
        <ele>987.2</ele>
        <time>2015-05-03T11:52:12Z</time>
      </trkpt>
      <trkpt lat="43.77801" lon="6.58015">
        <ele>986.6</ele>
        <time>2015-05-03T11:56:11Z</time>
      </trkpt>
      <trkpt lat="43.77784" lon="6.58012">
        <ele>985.9</ele>
        <time>2015-05-03T11:57:16Z</time>
      </trkpt>
      <trkpt lat="43.77784" lon="6.58011">
        <ele>986</ele>
        <time>2015-05-03T11:57:17Z</time>
      </trkpt>
      <trkpt lat="43.77772" lon="6.57994">
        <ele>986.2</ele>
        <time>2015-05-03T11:58:00Z</time>
      </trkpt>
      <trkpt lat="43.77765" lon="6.57987">
        <ele>986.6</ele>
        <time>2015-05-03T11:58:11Z</time>
      </trkpt>
      <trkpt lat="43.77757" lon="6.57981">
        <ele>986.3</ele>
        <time>2015-05-03T11:58:31Z</time>
      </trkpt>
      <trkpt lat="43.77756" lon="6.5798">
        <ele>986.5</ele>
        <time>2015-05-03T11:58:32Z</time>
      </trkpt>
      <trkpt lat="43.77743" lon="6.57972">
        <ele>986.3</ele>
        <time>2015-05-03T11:59:19Z</time>
      </trkpt>
      <trkpt lat="43.77736" lon="6.57976">
        <ele>985.8</ele>
        <time>2015-05-03T11:59:26Z</time>
      </trkpt>
      <trkpt lat="43.77729" lon="6.57983">
        <ele>985.6</ele>
        <time>2015-05-03T11:59:33Z</time>
      </trkpt>
      <trkpt lat="43.77728" lon="6.57984">
        <ele>985.4</ele>
        <time>2015-05-03T11:59:34Z</time>
      </trkpt>
      <trkpt lat="43.77722" lon="6.58003">
        <ele>984.4</ele>
        <time>2015-05-03T11:59:52Z</time>
      </trkpt>
      <trkpt lat="43.77719" lon="6.58015">
        <ele>983.1</ele>
        <time>2015-05-03T12:00:27Z</time>
      </trkpt>
      <trkpt lat="43.77721" lon="6.58026">
        <ele>982.4</ele>
        <time>2015-05-03T12:01:04Z</time>
      </trkpt>
      <trkpt lat="43.77722" lon="6.58027">
        <ele>982.1</ele>
        <time>2015-05-03T12:01:05Z</time>
      </trkpt>
      <trkpt lat="43.77737" lon="6.58034">
        <ele>981.6</ele>
        <time>2015-05-03T12:01:24Z</time>
      </trkpt>
      <trkpt lat="43.77745" lon="6.58038">
        <ele>981.2</ele>
        <time>2015-05-03T12:01:33Z</time>
      </trkpt>
      <trkpt lat="43.77753" lon="6.58043">
        <ele>980.2</ele>
        <time>2015-05-03T12:01:42Z</time>
      </trkpt>
      <trkpt lat="43.7776" lon="6.5805">
        <ele>979.4</ele>
        <time>2015-05-03T12:01:53Z</time>
      </trkpt>
      <trkpt lat="43.77763" lon="6.58061">
        <ele>978.9</ele>
        <time>2015-05-03T12:02:03Z</time>
      </trkpt>
      <trkpt lat="43.77766" lon="6.58071">
        <ele>977.9</ele>
        <time>2015-05-03T12:02:14Z</time>
      </trkpt>
      <trkpt lat="43.77766" lon="6.58073">
        <ele>977.9</ele>
        <time>2015-05-03T12:02:15Z</time>
      </trkpt>
      <trkpt lat="43.77764" lon="6.58095">
        <ele>977</ele>
        <time>2015-05-03T12:02:35Z</time>
      </trkpt>
      <trkpt lat="43.77761" lon="6.58107">
        <ele>976.7</ele>
        <time>2015-05-03T12:02:45Z</time>
      </trkpt>
      <trkpt lat="43.77761" lon="6.58118">
        <ele>976.1</ele>
        <time>2015-05-03T12:02:55Z</time>
      </trkpt>
      <trkpt lat="43.7776" lon="6.5813">
        <ele>975.4</ele>
        <time>2015-05-03T12:03:04Z</time>
      </trkpt>
      <trkpt lat="43.7776" lon="6.58142">
        <ele>974.7</ele>
        <time>2015-05-03T12:03:13Z</time>
      </trkpt>
      <trkpt lat="43.7776" lon="6.58154">
        <ele>974.3</ele>
        <time>2015-05-03T12:03:21Z</time>
      </trkpt>
      <trkpt lat="43.7776" lon="6.58156">
        <ele>974</ele>
        <time>2015-05-03T12:03:22Z</time>
      </trkpt>
      <trkpt lat="43.77753" lon="6.58175">
        <ele>972.5</ele>
        <time>2015-05-03T12:03:36Z</time>
      </trkpt>
      <trkpt lat="43.77751" lon="6.58186">
        <ele>971.4</ele>
        <time>2015-05-03T12:03:45Z</time>
      </trkpt>
      <trkpt lat="43.77749" lon="6.58198">
        <ele>971.6</ele>
        <time>2015-05-03T12:03:53Z</time>
      </trkpt>
      <trkpt lat="43.77748" lon="6.5821">
        <ele>971.3</ele>
        <time>2015-05-03T12:04:01Z</time>
      </trkpt>
      <trkpt lat="43.77748" lon="6.58221">
        <ele>971.8</ele>
        <time>2015-05-03T12:04:09Z</time>
      </trkpt>
      <trkpt lat="43.77746" lon="6.58233">
        <ele>971.6</ele>
        <time>2015-05-03T12:04:17Z</time>
      </trkpt>
      <trkpt lat="43.77745" lon="6.58245">
        <ele>971.4</ele>
        <time>2015-05-03T12:04:25Z</time>
      </trkpt>
      <trkpt lat="43.77745" lon="6.58246">
        <ele>971.3</ele>
        <time>2015-05-03T12:04:26Z</time>
      </trkpt>
      <trkpt lat="43.77748" lon="6.58267">
        <ele>972.2</ele>
        <time>2015-05-03T12:04:44Z</time>
      </trkpt>
      <trkpt lat="43.77754" lon="6.58276">
        <ele>973</ele>
        <time>2015-05-03T12:05:03Z</time>
      </trkpt>
      <trkpt lat="43.7776" lon="6.58284">
        <ele>973.2</ele>
        <time>2015-05-03T12:05:13Z</time>
      </trkpt>
      <trkpt lat="43.77766" lon="6.58293">
        <ele>973.8</ele>
        <time>2015-05-03T12:05:23Z</time>
      </trkpt>
      <trkpt lat="43.77772" lon="6.58302">
        <ele>973.4</ele>
        <time>2015-05-03T12:05:34Z</time>
      </trkpt>
      <trkpt lat="43.77772" lon="6.58303">
        <ele>973.7</ele>
        <time>2015-05-03T12:05:35Z</time>
      </trkpt>
      <trkpt lat="43.77783" lon="6.5832">
        <ele>975.4</ele>
        <time>2015-05-03T12:05:57Z</time>
      </trkpt>
      <trkpt lat="43.77789" lon="6.58329">
        <ele>976.9</ele>
        <time>2015-05-03T12:06:09Z</time>
      </trkpt>
      <trkpt lat="43.77794" lon="6.58339">
        <ele>977.9</ele>
        <time>2015-05-03T12:06:23Z</time>
      </trkpt>
      <trkpt lat="43.77797" lon="6.5835">
        <ele>979</ele>
        <time>2015-05-03T12:06:31Z</time>
      </trkpt>
      <trkpt lat="43.77798" lon="6.58362">
        <ele>979.8</ele>
        <time>2015-05-03T12:06:41Z</time>
      </trkpt>
      <trkpt lat="43.77798" lon="6.58363">
        <ele>979.9</ele>
        <time>2015-05-03T12:06:42Z</time>
      </trkpt>
      <trkpt lat="43.77802" lon="6.58384">
        <ele>981.3</ele>
        <time>2015-05-03T12:06:58Z</time>
      </trkpt>
      <trkpt lat="43.77806" lon="6.58395">
        <ele>982</ele>
        <time>2015-05-03T12:07:07Z</time>
      </trkpt>
      <trkpt lat="43.77813" lon="6.58401">
        <ele>982.2</ele>
        <time>2015-05-03T12:07:16Z</time>
      </trkpt>
      <trkpt lat="43.77821" lon="6.58407">
        <ele>982.8</ele>
        <time>2015-05-03T12:07:28Z</time>
      </trkpt>
      <trkpt lat="43.77828" lon="6.58412">
        <ele>983.7</ele>
        <time>2015-05-03T12:07:38Z</time>
      </trkpt>
      <trkpt lat="43.77837" lon="6.58413">
        <ele>983.7</ele>
        <time>2015-05-03T12:07:47Z</time>
      </trkpt>
      <trkpt lat="43.77838" lon="6.58413">
        <ele>984</ele>
        <time>2015-05-03T12:07:48Z</time>
      </trkpt>
      <trkpt lat="43.77853" lon="6.58417">
        <ele>985.2</ele>
        <time>2015-05-03T12:08:20Z</time>
      </trkpt>
      <trkpt lat="43.77857" lon="6.58427">
        <ele>985.3</ele>
        <time>2015-05-03T12:08:31Z</time>
      </trkpt>
      <trkpt lat="43.77859" lon="6.58438">
        <ele>986.1</ele>
        <time>2015-05-03T12:08:39Z</time>
      </trkpt>
      <trkpt lat="43.7786" lon="6.5845">
        <ele>987.4</ele>
        <time>2015-05-03T12:08:47Z</time>
      </trkpt>
      <trkpt lat="43.77861" lon="6.58462">
        <ele>988.7</ele>
        <time>2015-05-03T12:09:12Z</time>
      </trkpt>
      <trkpt lat="43.77862" lon="6.58463">
        <ele>988.9</ele>
        <time>2015-05-03T12:09:13Z</time>
      </trkpt>
      <trkpt lat="43.77867" lon="6.58484">
        <ele>989.5</ele>
        <time>2015-05-03T12:09:28Z</time>
      </trkpt>
      <trkpt lat="43.77872" lon="6.58494">
        <ele>990.8</ele>
        <time>2015-05-03T12:09:41Z</time>
      </trkpt>
      <trkpt lat="43.77878" lon="6.58501">
        <ele>991.9</ele>
        <time>2015-05-03T12:09:52Z</time>
      </trkpt>
      <trkpt lat="43.77886" lon="6.58506">
        <ele>993</ele>
        <time>2015-05-03T12:09:59Z</time>
      </trkpt>
      <trkpt lat="43.77893" lon="6.58513">
        <ele>993.4</ele>
        <time>2015-05-03T12:10:09Z</time>
      </trkpt>
      <trkpt lat="43.77901" lon="6.58519">
        <ele>993.9</ele>
        <time>2015-05-03T12:10:20Z</time>
      </trkpt>
      <trkpt lat="43.77902" lon="6.58519">
        <ele>994.7</ele>
        <time>2015-05-03T12:10:21Z</time>
      </trkpt>
      <trkpt lat="43.77917" lon="6.58524">
        <ele>995.8</ele>
        <time>2015-05-03T12:10:40Z</time>
      </trkpt>
      <trkpt lat="43.77924" lon="6.5853">
        <ele>996.7</ele>
        <time>2015-05-03T12:10:48Z</time>
      </trkpt>
      <trkpt lat="43.77932" lon="6.58533">
        <ele>998.1</ele>
        <time>2015-05-03T12:10:57Z</time>
      </trkpt>
      <trkpt lat="43.77939" lon="6.5854">
        <ele>998.5</ele>
        <time>2015-05-03T12:11:08Z</time>
      </trkpt>
      <trkpt lat="43.77948" lon="6.58541">
        <ele>999.9</ele>
        <time>2015-05-03T12:11:17Z</time>
      </trkpt>
      <trkpt lat="43.77955" lon="6.58545">
        <ele>1000.7</ele>
        <time>2015-05-03T12:11:28Z</time>
      </trkpt>
      <trkpt lat="43.77956" lon="6.58546">
        <ele>1000.9</ele>
        <time>2015-05-03T12:11:29Z</time>
      </trkpt>
      <trkpt lat="43.77967" lon="6.58561">
        <ele>1004</ele>
        <time>2015-05-03T12:11:59Z</time>
      </trkpt>
      <trkpt lat="43.77975" lon="6.58567">
        <ele>1005.9</ele>
        <time>2015-05-03T12:12:11Z</time>
      </trkpt>
      <trkpt lat="43.77982" lon="6.58573">
        <ele>1007.7</ele>
        <time>2015-05-03T12:12:26Z</time>
      </trkpt>
      <trkpt lat="43.77986" lon="6.58584">
        <ele>1008.4</ele>
        <time>2015-05-03T12:12:39Z</time>
      </trkpt>
      <trkpt lat="43.77986" lon="6.58585">
        <ele>1008.6</ele>
        <time>2015-05-03T12:12:40Z</time>
      </trkpt>
      <trkpt lat="43.77996" lon="6.58603">
        <ele>1011</ele>
        <time>2015-05-03T12:13:08Z</time>
      </trkpt>
      <trkpt lat="43.78001" lon="6.58613">
        <ele>1012.5</ele>
        <time>2015-05-03T12:13:18Z</time>
      </trkpt>
      <trkpt lat="43.78007" lon="6.58621">
        <ele>1012.9</ele>
        <time>2015-05-03T12:13:30Z</time>
      </trkpt>
      <trkpt lat="43.78007" lon="6.58633">
        <ele>1014.3</ele>
        <time>2015-05-03T12:13:43Z</time>
      </trkpt>
      <trkpt lat="43.78008" lon="6.58634">
        <ele>1014.2</ele>
        <time>2015-05-03T12:13:44Z</time>
      </trkpt>
      <trkpt lat="43.77999" lon="6.5864">
        <ele>1017.3</ele>
        <time>2015-05-03T12:14:52Z</time>
      </trkpt>
      <trkpt lat="43.78004" lon="6.58659">
        <ele>1020.3</ele>
        <time>2015-05-03T12:15:15Z</time>
      </trkpt>
      <trkpt lat="43.78006" lon="6.5867">
        <ele>1021.5</ele>
        <time>2015-05-03T12:15:23Z</time>
      </trkpt>
      <trkpt lat="43.78008" lon="6.58681">
        <ele>1024.5</ele>
        <time>2015-05-03T12:15:47Z</time>
      </trkpt>
      <trkpt lat="43.78011" lon="6.58693">
        <ele>1027.3</ele>
        <time>2015-05-03T12:16:04Z</time>
      </trkpt>
      <trkpt lat="43.78011" lon="6.58695">
        <ele>1027.3</ele>
        <time>2015-05-03T12:16:05Z</time>
      </trkpt>
      <trkpt lat="43.78023" lon="6.5871">
        <ele>1030.1</ele>
        <time>2015-05-03T12:16:31Z</time>
      </trkpt>
      <trkpt lat="43.7802" lon="6.58722">
        <ele>1031.6</ele>
        <time>2015-05-03T12:16:45Z</time>
      </trkpt>
      <trkpt lat="43.78017" lon="6.58732">
        <ele>1034.1</ele>
        <time>2015-05-03T12:17:02Z</time>
      </trkpt>
      <trkpt lat="43.78016" lon="6.58745">
        <ele>1036.3</ele>
        <time>2015-05-03T12:17:17Z</time>
      </trkpt>
      <trkpt lat="43.78017" lon="6.58745">
        <ele>1036.4</ele>
        <time>2015-05-03T12:17:18Z</time>
      </trkpt>
      <trkpt lat="43.78022" lon="6.58766">
        <ele>1038.8</ele>
        <time>2015-05-03T12:17:43Z</time>
      </trkpt>
      <trkpt lat="43.7802" lon="6.58778">
        <ele>1041</ele>
        <time>2015-05-03T12:17:56Z</time>
      </trkpt>
      <trkpt lat="43.7802" lon="6.58789">
        <ele>1040.2</ele>
        <time>2015-05-03T12:18:08Z</time>
      </trkpt>
      <trkpt lat="43.78025" lon="6.588">
        <ele>1041.2</ele>
        <time>2015-05-03T12:18:18Z</time>
      </trkpt>
      <trkpt lat="43.78025" lon="6.58801">
        <ele>1041.2</ele>
        <time>2015-05-03T12:18:19Z</time>
      </trkpt>
      <trkpt lat="43.78034" lon="6.58819">
        <ele>1043.4</ele>
        <time>2015-05-03T12:18:41Z</time>
      </trkpt>
      <trkpt lat="43.78032" lon="6.58831">
        <ele>1044.8</ele>
        <time>2015-05-03T12:18:56Z</time>
      </trkpt>
      <trkpt lat="43.78037" lon="6.58841">
        <ele>1046.4</ele>
        <time>2015-05-03T12:19:11Z</time>
      </trkpt>
      <trkpt lat="43.78043" lon="6.5885">
        <ele>1048.2</ele>
        <time>2015-05-03T12:19:28Z</time>
      </trkpt>
      <trkpt lat="43.78044" lon="6.58851">
        <ele>1048.5</ele>
        <time>2015-05-03T12:19:29Z</time>
      </trkpt>
      <trkpt lat="43.78044" lon="6.58872">
        <ele>1052.9</ele>
        <time>2015-05-03T12:19:56Z</time>
      </trkpt>
      <trkpt lat="43.78048" lon="6.58882">
        <ele>1053.2</ele>
        <time>2015-05-03T12:20:04Z</time>
      </trkpt>
      <trkpt lat="43.78051" lon="6.58893">
        <ele>1054.2</ele>
        <time>2015-05-03T12:20:13Z</time>
      </trkpt>
      <trkpt lat="43.78056" lon="6.58903">
        <ele>1054</ele>
        <time>2015-05-03T12:20:21Z</time>
      </trkpt>
      <trkpt lat="43.78058" lon="6.58914">
        <ele>1055.5</ele>
        <time>2015-05-03T12:20:30Z</time>
      </trkpt>
      <trkpt lat="43.78058" lon="6.58915">
        <ele>1055.7</ele>
        <time>2015-05-03T12:20:31Z</time>
      </trkpt>
      <trkpt lat="43.78063" lon="6.58935">
        <ele>1057.3</ele>
        <time>2015-05-03T12:22:20Z</time>
      </trkpt>
      <trkpt lat="43.78064" lon="6.58935">
        <ele>1057.4</ele>
        <time>2015-05-03T12:22:21Z</time>
      </trkpt>
      <trkpt lat="43.78055" lon="6.5894">
        <ele>1057.6</ele>
        <time>2015-05-03T12:23:43Z</time>
      </trkpt>
      <trkpt lat="43.78058" lon="6.58927">
        <ele>1055.8</ele>
        <time>2015-05-03T12:25:41Z</time>
      </trkpt>
      <trkpt lat="43.78055" lon="6.58952">
        <ele>1056.2</ele>
        <time>2015-05-03T12:26:25Z</time>
      </trkpt>
      <trkpt lat="43.78053" lon="6.58963">
        <ele>1055.2</ele>
        <time>2015-05-03T12:26:33Z</time>
      </trkpt>
      <trkpt lat="43.7805" lon="6.58972">
        <ele>1054.8</ele>
        <time>2015-05-03T12:26:41Z</time>
      </trkpt>
      <trkpt lat="43.78047" lon="6.58982">
        <ele>1054.7</ele>
        <time>2015-05-03T12:26:46Z</time>
      </trkpt>
      <trkpt lat="43.78046" lon="6.58984">
        <ele>1054.7</ele>
        <time>2015-05-03T12:26:47Z</time>
      </trkpt>
      <trkpt lat="43.78042" lon="6.59004">
        <ele>1053.7</ele>
        <time>2015-05-03T12:27:00Z</time>
      </trkpt>
      <trkpt lat="43.78038" lon="6.59014">
        <ele>1054.4</ele>
        <time>2015-05-03T12:27:07Z</time>
      </trkpt>
      <trkpt lat="43.78036" lon="6.59025">
        <ele>1053.3</ele>
        <time>2015-05-03T12:27:15Z</time>
      </trkpt>
      <trkpt lat="43.78035" lon="6.59037">
        <ele>1053.7</ele>
        <time>2015-05-03T12:27:23Z</time>
      </trkpt>
      <trkpt lat="43.78033" lon="6.59049">
        <ele>1053.3</ele>
        <time>2015-05-03T12:27:31Z</time>
      </trkpt>
      <trkpt lat="43.7803" lon="6.5906">
        <ele>1053.3</ele>
        <time>2015-05-03T12:27:39Z</time>
      </trkpt>
      <trkpt lat="43.78024" lon="6.59069">
        <ele>1054.1</ele>
        <time>2015-05-03T12:27:48Z</time>
      </trkpt>
      <trkpt lat="43.78024" lon="6.5907">
        <ele>1054.3</ele>
        <time>2015-05-03T12:27:49Z</time>
      </trkpt>
      <trkpt lat="43.7802" lon="6.59091">
        <ele>1054.8</ele>
        <time>2015-05-03T12:28:04Z</time>
      </trkpt>
      <trkpt lat="43.78019" lon="6.59104">
        <ele>1053.2</ele>
        <time>2015-05-03T12:28:29Z</time>
      </trkpt>
      <trkpt lat="43.78024" lon="6.59113">
        <ele>1053.7</ele>
        <time>2015-05-03T12:28:35Z</time>
      </trkpt>
      <trkpt lat="43.78026" lon="6.59123">
        <ele>1053</ele>
        <time>2015-05-03T12:28:41Z</time>
      </trkpt>
      <trkpt lat="43.78028" lon="6.59134">
        <ele>1052.9</ele>
        <time>2015-05-03T12:28:48Z</time>
      </trkpt>
      <trkpt lat="43.78033" lon="6.59145">
        <ele>1052.2</ele>
        <time>2015-05-03T12:28:54Z</time>
      </trkpt>
      <trkpt lat="43.78034" lon="6.59146">
        <ele>1052</ele>
        <time>2015-05-03T12:28:55Z</time>
      </trkpt>
      <trkpt lat="43.78036" lon="6.59167">
        <ele>1051.3</ele>
        <time>2015-05-03T12:30:04Z</time>
      </trkpt>
      <trkpt lat="43.78037" lon="6.59168">
        <ele>1051.2</ele>
        <time>2015-05-03T12:30:05Z</time>
      </trkpt>
      <trkpt lat="43.78039" lon="6.59188">
        <ele>1050</ele>
        <time>2015-05-03T12:30:13Z</time>
      </trkpt>
      <trkpt lat="43.78039" lon="6.59199">
        <ele>1049.4</ele>
        <time>2015-05-03T12:30:19Z</time>
      </trkpt>
      <trkpt lat="43.78041" lon="6.59211">
        <ele>1049.9</ele>
        <time>2015-05-03T12:30:45Z</time>
      </trkpt>
      <trkpt lat="43.78044" lon="6.59221">
        <ele>1050.1</ele>
        <time>2015-05-03T12:30:51Z</time>
      </trkpt>
      <trkpt lat="43.78046" lon="6.59232">
        <ele>1050.7</ele>
        <time>2015-05-03T12:30:58Z</time>
      </trkpt>
      <trkpt lat="43.78046" lon="6.59244">
        <ele>1050</ele>
        <time>2015-05-03T12:31:05Z</time>
      </trkpt>
      <trkpt lat="43.78047" lon="6.59246">
        <ele>1050.1</ele>
        <time>2015-05-03T12:31:06Z</time>
      </trkpt>
      <trkpt lat="43.78048" lon="6.59265">
        <ele>1049.6</ele>
        <time>2015-05-03T12:31:15Z</time>
      </trkpt>
      <trkpt lat="43.7805" lon="6.59277">
        <ele>1048.3</ele>
        <time>2015-05-03T12:31:21Z</time>
      </trkpt>
      <trkpt lat="43.78052" lon="6.59289">
        <ele>1047.7</ele>
        <time>2015-05-03T12:31:31Z</time>
      </trkpt>
      <trkpt lat="43.78052" lon="6.59299">
        <ele>1047.9</ele>
        <time>2015-05-03T12:31:36Z</time>
      </trkpt>
      <trkpt lat="43.78049" lon="6.5931">
        <ele>1047.7</ele>
        <time>2015-05-03T12:31:45Z</time>
      </trkpt>
      <trkpt lat="43.78048" lon="6.59322">
        <ele>1046.2</ele>
        <time>2015-05-03T12:31:53Z</time>
      </trkpt>
      <trkpt lat="43.78046" lon="6.59333">
        <ele>1045.8</ele>
        <time>2015-05-03T12:31:59Z</time>
      </trkpt>
      <trkpt lat="43.78041" lon="6.59342">
        <ele>1046.3</ele>
        <time>2015-05-03T12:32:04Z</time>
      </trkpt>
      <trkpt lat="43.78037" lon="6.59352">
        <ele>1045.9</ele>
        <time>2015-05-03T12:32:09Z</time>
      </trkpt>
      <trkpt lat="43.78037" lon="6.59353">
        <ele>1045.6</ele>
        <time>2015-05-03T12:32:10Z</time>
      </trkpt>
      <trkpt lat="43.78035" lon="6.59374">
        <ele>1044.3</ele>
        <time>2015-05-03T12:32:25Z</time>
      </trkpt>
      <trkpt lat="43.78034" lon="6.59385">
        <ele>1043.1</ele>
        <time>2015-05-03T12:32:30Z</time>
      </trkpt>
      <trkpt lat="43.78034" lon="6.59397">
        <ele>1043.5</ele>
        <time>2015-05-03T12:32:37Z</time>
      </trkpt>
      <trkpt lat="43.78036" lon="6.59406">
        <ele>1042.4</ele>
        <time>2015-05-03T12:32:43Z</time>
      </trkpt>
      <trkpt lat="43.78038" lon="6.59416">
        <ele>1042.5</ele>
        <time>2015-05-03T12:32:47Z</time>
      </trkpt>
      <trkpt lat="43.78038" lon="6.59427">
        <ele>1040.3</ele>
        <time>2015-05-03T12:32:51Z</time>
      </trkpt>
      <trkpt lat="43.7804" lon="6.59438">
        <ele>1039.9</ele>
        <time>2015-05-03T12:32:57Z</time>
      </trkpt>
      <trkpt lat="43.78042" lon="6.59449">
        <ele>1039.6</ele>
        <time>2015-05-03T12:33:04Z</time>
      </trkpt>
      <trkpt lat="43.78042" lon="6.59461">
        <ele>1038.7</ele>
        <time>2015-05-03T12:33:09Z</time>
      </trkpt>
      <trkpt lat="43.78045" lon="6.5947">
        <ele>1038.7</ele>
        <time>2015-05-03T12:33:14Z</time>
      </trkpt>
      <trkpt lat="43.78046" lon="6.59472">
        <ele>1038.4</ele>
        <time>2015-05-03T12:33:15Z</time>
      </trkpt>
      <trkpt lat="43.7805" lon="6.59492">
        <ele>1036.6</ele>
        <time>2015-05-03T12:33:28Z</time>
      </trkpt>
      <trkpt lat="43.78052" lon="6.59503">
        <ele>1035.9</ele>
        <time>2015-05-03T12:33:34Z</time>
      </trkpt>
      <trkpt lat="43.78055" lon="6.59514">
        <ele>1034.2</ele>
        <time>2015-05-03T12:33:41Z</time>
      </trkpt>
      <trkpt lat="43.78057" lon="6.59526">
        <ele>1032.5</ele>
        <time>2015-05-03T12:33:49Z</time>
      </trkpt>
      <trkpt lat="43.78058" lon="6.59537">
        <ele>1032.6</ele>
        <time>2015-05-03T12:33:55Z</time>
      </trkpt>
      <trkpt lat="43.78061" lon="6.59548">
        <ele>1030.7</ele>
        <time>2015-05-03T12:34:00Z</time>
      </trkpt>
      <trkpt lat="43.78062" lon="6.59559">
        <ele>1028.9</ele>
        <time>2015-05-03T12:34:07Z</time>
      </trkpt>
      <trkpt lat="43.78063" lon="6.59568">
        <ele>1029.4</ele>
        <time>2015-05-03T12:34:11Z</time>
      </trkpt>
      <trkpt lat="43.78063" lon="6.59579">
        <ele>1028</ele>
        <time>2015-05-03T12:34:16Z</time>
      </trkpt>
      <trkpt lat="43.78064" lon="6.59581">
        <ele>1027.8</ele>
        <time>2015-05-03T12:34:17Z</time>
      </trkpt>
      <trkpt lat="43.78065" lon="6.59602">
        <ele>1024.8</ele>
        <time>2015-05-03T12:34:31Z</time>
      </trkpt>
      <trkpt lat="43.78065" lon="6.59614">
        <ele>1023.8</ele>
        <time>2015-05-03T12:34:37Z</time>
      </trkpt>
      <trkpt lat="43.7807" lon="6.59625">
        <ele>1021.4</ele>
        <time>2015-05-03T12:34:48Z</time>
      </trkpt>
      <trkpt lat="43.7807" lon="6.59637">
        <ele>1019.9</ele>
        <time>2015-05-03T12:34:58Z</time>
      </trkpt>
      <trkpt lat="43.78075" lon="6.59647">
        <ele>1017.8</ele>
        <time>2015-05-03T12:35:06Z</time>
      </trkpt>
      <trkpt lat="43.7808" lon="6.59656">
        <ele>1017</ele>
        <time>2015-05-03T12:35:12Z</time>
      </trkpt>
      <trkpt lat="43.78081" lon="6.59667">
        <ele>1014</ele>
        <time>2015-05-03T12:35:23Z</time>
      </trkpt>
      <trkpt lat="43.78082" lon="6.59669">
        <ele>1014</ele>
        <time>2015-05-03T12:35:24Z</time>
      </trkpt>
      <trkpt lat="43.78084" lon="6.5969">
        <ele>1010.1</ele>
        <time>2015-05-03T12:35:43Z</time>
      </trkpt>
      <trkpt lat="43.7809" lon="6.59699">
        <ele>1008.2</ele>
        <time>2015-05-03T12:35:55Z</time>
      </trkpt>
      <trkpt lat="43.78094" lon="6.59709">
        <ele>1006.4</ele>
        <time>2015-05-03T12:36:03Z</time>
      </trkpt>
      <trkpt lat="43.78096" lon="6.5972">
        <ele>1004.6</ele>
        <time>2015-05-03T12:36:14Z</time>
      </trkpt>
      <trkpt lat="43.78095" lon="6.59732">
        <ele>1002</ele>
        <time>2015-05-03T12:36:27Z</time>
      </trkpt>
      <trkpt lat="43.78095" lon="6.59733">
        <ele>1002.2</ele>
        <time>2015-05-03T12:36:28Z</time>
      </trkpt>
      <trkpt lat="43.78091" lon="6.59749">
        <ele>996.7</ele>
        <time>2015-05-03T12:37:00Z</time>
      </trkpt>
      <trkpt lat="43.78082" lon="6.5975">
        <ele>995.1</ele>
        <time>2015-05-03T12:37:14Z</time>
      </trkpt>
      <trkpt lat="43.78075" lon="6.59758">
        <ele>991.8</ele>
        <time>2015-05-03T12:37:30Z</time>
      </trkpt>
      <trkpt lat="43.78075" lon="6.59759">
        <ele>991.5</ele>
        <time>2015-05-03T12:37:31Z</time>
      </trkpt>
      <trkpt lat="43.78073" lon="6.59782">
        <ele>987</ele>
        <time>2015-05-03T12:38:35Z</time>
      </trkpt>
      <trkpt lat="43.78073" lon="6.59783">
        <ele>986.6</ele>
        <time>2015-05-03T12:38:36Z</time>
      </trkpt>
      <trkpt lat="43.78081" lon="6.598">
        <ele>984.1</ele>
        <time>2015-05-03T12:38:59Z</time>
      </trkpt>
      <trkpt lat="43.7809" lon="6.59802">
        <ele>983.8</ele>
        <time>2015-05-03T12:39:09Z</time>
      </trkpt>
      <trkpt lat="43.78098" lon="6.59808">
        <ele>983.1</ele>
        <time>2015-05-03T12:39:19Z</time>
      </trkpt>
      <trkpt lat="43.78095" lon="6.59819">
        <ele>985.8</ele>
        <time>2015-05-03T12:39:47Z</time>
      </trkpt>
      <trkpt lat="43.78095" lon="6.59821">
        <ele>985.6</ele>
        <time>2015-05-03T12:39:48Z</time>
      </trkpt>
      <trkpt lat="43.78102" lon="6.5984">
        <ele>986.9</ele>
        <time>2015-05-03T12:40:20Z</time>
      </trkpt>
      <trkpt lat="43.78107" lon="6.5985">
        <ele>988.3</ele>
        <time>2015-05-03T12:40:38Z</time>
      </trkpt>
      <trkpt lat="43.78113" lon="6.59859">
        <ele>988.9</ele>
        <time>2015-05-03T12:40:50Z</time>
      </trkpt>
      <trkpt lat="43.78114" lon="6.59859">
        <ele>989.4</ele>
        <time>2015-05-03T12:40:51Z</time>
      </trkpt>
      <trkpt lat="43.78127" lon="6.59871">
        <ele>991.1</ele>
        <time>2015-05-03T12:41:16Z</time>
      </trkpt>
      <trkpt lat="43.78134" lon="6.59877">
        <ele>992.1</ele>
        <time>2015-05-03T12:41:38Z</time>
      </trkpt>
      <trkpt lat="43.7814" lon="6.59886">
        <ele>992.6</ele>
        <time>2015-05-03T12:41:50Z</time>
      </trkpt>
      <trkpt lat="43.78148" lon="6.59892">
        <ele>992.7</ele>
        <time>2015-05-03T12:42:17Z</time>
      </trkpt>
      <trkpt lat="43.78148" lon="6.59893">
        <ele>992.6</ele>
        <time>2015-05-03T12:42:18Z</time>
      </trkpt>
      <trkpt lat="43.7816" lon="6.59907">
        <ele>993.6</ele>
        <time>2015-05-03T12:42:47Z</time>
      </trkpt>
      <trkpt lat="43.78167" lon="6.59914">
        <ele>994</ele>
        <time>2015-05-03T12:42:56Z</time>
      </trkpt>
      <trkpt lat="43.78175" lon="6.5992">
        <ele>993.6</ele>
        <time>2015-05-03T12:43:03Z</time>
      </trkpt>
      <trkpt lat="43.78183" lon="6.59925">
        <ele>995.8</ele>
        <time>2015-05-03T12:43:21Z</time>
      </trkpt>
      <trkpt lat="43.78183" lon="6.59924">
        <ele>995.8</ele>
        <time>2015-05-03T12:43:22Z</time>
      </trkpt>
      <trkpt lat="43.782" lon="6.59925">
        <ele>996.5</ele>
        <time>2015-05-03T12:43:54Z</time>
      </trkpt>
      <trkpt lat="43.78208" lon="6.59929">
        <ele>997.9</ele>
        <time>2015-05-03T12:44:08Z</time>
      </trkpt>
      <trkpt lat="43.78216" lon="6.59933">
        <ele>997.6</ele>
        <time>2015-05-03T12:44:18Z</time>
      </trkpt>
      <trkpt lat="43.78225" lon="6.59935">
        <ele>998</ele>
        <time>2015-05-03T12:44:27Z</time>
      </trkpt>
      <trkpt lat="43.78225" lon="6.59935">
        <ele>998.2</ele>
        <time>2015-05-03T12:44:28Z</time>
      </trkpt>
      <trkpt lat="43.78242" lon="6.59935">
        <ele>997.6</ele>
        <time>2015-05-03T12:44:57Z</time>
      </trkpt>
      <trkpt lat="43.7825" lon="6.59942">
        <ele>998.2</ele>
        <time>2015-05-03T12:49:02Z</time>
      </trkpt>
      <trkpt lat="43.7825" lon="6.59942">
        <ele>998.2</ele>
        <time>2015-05-03T12:49:03Z</time>
      </trkpt>
      <trkpt lat="43.78263" lon="6.59928">
        <ele>999.4</ele>
        <time>2015-05-03T12:49:20Z</time>
      </trkpt>
      <trkpt lat="43.78269" lon="6.59921">
        <ele>999.6</ele>
        <time>2015-05-03T12:49:25Z</time>
      </trkpt>
      <trkpt lat="43.78277" lon="6.59916">
        <ele>1000.1</ele>
        <time>2015-05-03T12:49:32Z</time>
      </trkpt>
      <trkpt lat="43.78285" lon="6.59914">
        <ele>1000.2</ele>
        <time>2015-05-03T12:49:41Z</time>
      </trkpt>
      <trkpt lat="43.78293" lon="6.5992">
        <ele>1002</ele>
        <time>2015-05-03T12:49:57Z</time>
      </trkpt>
      <trkpt lat="43.78302" lon="6.59918">
        <ele>1003.7</ele>
        <time>2015-05-03T12:50:09Z</time>
      </trkpt>
      <trkpt lat="43.78302" lon="6.59918">
        <ele>1003.8</ele>
        <time>2015-05-03T12:50:10Z</time>
      </trkpt>
      <trkpt lat="43.78313" lon="6.59894">
        <ele>1006</ele>
        <time>2015-05-03T12:50:50Z</time>
      </trkpt>
      <trkpt lat="43.78321" lon="6.59898">
        <ele>1008.2</ele>
        <time>2015-05-03T12:51:01Z</time>
      </trkpt>
      <trkpt lat="43.7833" lon="6.59898">
        <ele>1010.1</ele>
        <time>2015-05-03T12:51:19Z</time>
      </trkpt>
      <trkpt lat="43.7833" lon="6.59898">
        <ele>1010.3</ele>
        <time>2015-05-03T12:51:20Z</time>
      </trkpt>
      <trkpt lat="43.78344" lon="6.59908">
        <ele>1011.6</ele>
        <time>2015-05-03T12:51:36Z</time>
      </trkpt>
      <trkpt lat="43.7835" lon="6.59918">
        <ele>1012.1</ele>
        <time>2015-05-03T12:51:47Z</time>
      </trkpt>
      <trkpt lat="43.78356" lon="6.59927">
        <ele>1012.7</ele>
        <time>2015-05-03T12:51:53Z</time>
      </trkpt>
      <trkpt lat="43.78364" lon="6.59928">
        <ele>1013.2</ele>
        <time>2015-05-03T12:52:01Z</time>
      </trkpt>
      <trkpt lat="43.78372" lon="6.59932">
        <ele>1013.1</ele>
        <time>2015-05-03T12:52:07Z</time>
      </trkpt>
      <trkpt lat="43.78379" lon="6.59934">
        <ele>1014.7</ele>
        <time>2015-05-03T12:52:15Z</time>
      </trkpt>
      <trkpt lat="43.78387" lon="6.59935">
        <ele>1015</ele>
        <time>2015-05-03T12:52:22Z</time>
      </trkpt>
      <trkpt lat="43.78388" lon="6.59934">
        <ele>1014.9</ele>
        <time>2015-05-03T12:52:23Z</time>
      </trkpt>
      <trkpt lat="43.78403" lon="6.5994">
        <ele>1014.9</ele>
        <time>2015-05-03T12:52:35Z</time>
      </trkpt>
      <trkpt lat="43.78411" lon="6.59941">
        <ele>1016.2</ele>
        <time>2015-05-03T12:52:41Z</time>
      </trkpt>
      <trkpt lat="43.78419" lon="6.59943">
        <ele>1017.3</ele>
        <time>2015-05-03T12:52:51Z</time>
      </trkpt>
      <trkpt lat="43.78424" lon="6.59934">
        <ele>1016.9</ele>
        <time>2015-05-03T12:52:56Z</time>
      </trkpt>
      <trkpt lat="43.78429" lon="6.59943">
        <ele>1017.3</ele>
        <time>2015-05-03T12:53:05Z</time>
      </trkpt>
      <trkpt lat="43.78438" lon="6.59941">
        <ele>1018.3</ele>
        <time>2015-05-03T12:53:15Z</time>
      </trkpt>
      <trkpt lat="43.78446" lon="6.59941">
        <ele>1019.5</ele>
        <time>2015-05-03T12:53:24Z</time>
      </trkpt>
      <trkpt lat="43.78447" lon="6.5994">
        <ele>1019.8</ele>
        <time>2015-05-03T12:53:25Z</time>
      </trkpt>
      <trkpt lat="43.78463" lon="6.59937">
        <ele>1021.1</ele>
        <time>2015-05-03T12:53:43Z</time>
      </trkpt>
      <trkpt lat="43.78471" lon="6.59937">
        <ele>1022.6</ele>
        <time>2015-05-03T12:53:54Z</time>
      </trkpt>
      <trkpt lat="43.7848" lon="6.59937">
        <ele>1023</ele>
        <time>2015-05-03T12:54:03Z</time>
      </trkpt>
      <trkpt lat="43.78488" lon="6.59935">
        <ele>1023.2</ele>
        <time>2015-05-03T12:54:10Z</time>
      </trkpt>
      <trkpt lat="43.78495" lon="6.5994">
        <ele>1024.1</ele>
        <time>2015-05-03T12:54:19Z</time>
      </trkpt>
      <trkpt lat="43.78504" lon="6.59937">
        <ele>1025.3</ele>
        <time>2015-05-03T12:54:27Z</time>
      </trkpt>
      <trkpt lat="43.78505" lon="6.59939">
        <ele>1025.4</ele>
        <time>2015-05-03T12:54:28Z</time>
      </trkpt>
      <trkpt lat="43.78519" lon="6.59941">
        <ele>1026.8</ele>
        <time>2015-05-03T12:54:46Z</time>
      </trkpt>
      <trkpt lat="43.78524" lon="6.59933">
        <ele>1027.3</ele>
        <time>2015-05-03T12:54:52Z</time>
      </trkpt>
      <trkpt lat="43.78529" lon="6.59924">
        <ele>1028.3</ele>
        <time>2015-05-03T12:54:57Z</time>
      </trkpt>
      <trkpt lat="43.78535" lon="6.59913">
        <ele>1029.5</ele>
        <time>2015-05-03T12:55:06Z</time>
      </trkpt>
      <trkpt lat="43.7854" lon="6.59904">
        <ele>1030.7</ele>
        <time>2015-05-03T12:55:14Z</time>
      </trkpt>
      <trkpt lat="43.78543" lon="6.59894">
        <ele>1032.1</ele>
        <time>2015-05-03T12:55:27Z</time>
      </trkpt>
      <trkpt lat="43.78538" lon="6.59885">
        <ele>1032.8</ele>
        <time>2015-05-03T12:55:37Z</time>
      </trkpt>
      <trkpt lat="43.78537" lon="6.59886">
        <ele>1033.1</ele>
        <time>2015-05-03T12:55:38Z</time>
      </trkpt>
      <trkpt lat="43.78543" lon="6.59864">
        <ele>1034.2</ele>
        <time>2015-05-03T12:56:10Z</time>
      </trkpt>
      <trkpt lat="43.78548" lon="6.59854">
        <ele>1034.2</ele>
        <time>2015-05-03T12:56:21Z</time>
      </trkpt>
      <trkpt lat="43.78552" lon="6.59844">
        <ele>1034.6</ele>
        <time>2015-05-03T12:56:30Z</time>
      </trkpt>
      <trkpt lat="43.78557" lon="6.59834">
        <ele>1035.5</ele>
        <time>2015-05-03T12:56:43Z</time>
      </trkpt>
      <trkpt lat="43.78557" lon="6.59833">
        <ele>1035.5</ele>
        <time>2015-05-03T12:56:44Z</time>
      </trkpt>
      <trkpt lat="43.78571" lon="6.59824">
        <ele>1036.3</ele>
        <time>2015-05-03T12:56:53Z</time>
      </trkpt>
      <trkpt lat="43.78575" lon="6.59814">
        <ele>1036.1</ele>
        <time>2015-05-03T12:57:00Z</time>
      </trkpt>
      <trkpt lat="43.78578" lon="6.59803">
        <ele>1035.9</ele>
        <time>2015-05-03T12:57:10Z</time>
      </trkpt>
      <trkpt lat="43.78578" lon="6.59792">
        <ele>1036</ele>
        <time>2015-05-03T12:57:20Z</time>
      </trkpt>
      <trkpt lat="43.78583" lon="6.59781">
        <ele>1036.8</ele>
        <time>2015-05-03T12:57:26Z</time>
      </trkpt>
      <trkpt lat="43.78583" lon="6.5977">
        <ele>1038</ele>
        <time>2015-05-03T12:57:34Z</time>
      </trkpt>
      <trkpt lat="43.78586" lon="6.59759">
        <ele>1037.9</ele>
        <time>2015-05-03T12:57:48Z</time>
      </trkpt>
      <trkpt lat="43.78586" lon="6.59758">
        <ele>1038.1</ele>
        <time>2015-05-03T12:57:49Z</time>
      </trkpt>
      <trkpt lat="43.78577" lon="6.59739">
        <ele>1037.3</ele>
        <time>2015-05-03T12:58:36Z</time>
      </trkpt>
      <trkpt lat="43.78573" lon="6.59729">
        <ele>1036.2</ele>
        <time>2015-05-03T12:58:44Z</time>
      </trkpt>
      <trkpt lat="43.78573" lon="6.59717">
        <ele>1035.6</ele>
        <time>2015-05-03T12:58:52Z</time>
      </trkpt>
      <trkpt lat="43.78572" lon="6.59716">
        <ele>1035.6</ele>
        <time>2015-05-03T12:58:53Z</time>
      </trkpt>
      <trkpt lat="43.78577" lon="6.59715">
        <ele>1033.5</ele>
        <time>2015-05-03T12:59:34Z</time>
      </trkpt>
      <trkpt lat="43.78585" lon="6.59713">
        <ele>1031.1</ele>
        <time>2015-05-03T12:59:43Z</time>
      </trkpt>
      <trkpt lat="43.78593" lon="6.59707">
        <ele>1029.3</ele>
        <time>2015-05-03T12:59:54Z</time>
      </trkpt>
      <trkpt lat="43.78593" lon="6.59706">
        <ele>1028.5</ele>
        <time>2015-05-03T12:59:55Z</time>
      </trkpt>
      <trkpt lat="43.78604" lon="6.59691">
        <ele>1026</ele>
        <time>2015-05-03T13:00:11Z</time>
      </trkpt>
      <trkpt lat="43.78608" lon="6.59681">
        <ele>1025.8</ele>
        <time>2015-05-03T13:00:23Z</time>
      </trkpt>
      <trkpt lat="43.78612" lon="6.59671">
        <ele>1025.7</ele>
        <time>2015-05-03T13:00:28Z</time>
      </trkpt>
      <trkpt lat="43.78617" lon="6.59661">
        <ele>1023.2</ele>
        <time>2015-05-03T13:00:37Z</time>
      </trkpt>
      <trkpt lat="43.78626" lon="6.59663">
        <ele>1019.8</ele>
        <time>2015-05-03T13:01:16Z</time>
      </trkpt>
      <trkpt lat="43.78627" lon="6.59663">
        <ele>1020</ele>
        <time>2015-05-03T13:01:17Z</time>
      </trkpt>
      <trkpt lat="43.78639" lon="6.5965">
        <ele>1018.2</ele>
        <time>2015-05-03T13:01:35Z</time>
      </trkpt>
      <trkpt lat="43.78645" lon="6.59641">
        <ele>1016.5</ele>
        <time>2015-05-03T13:01:42Z</time>
      </trkpt>
      <trkpt lat="43.78651" lon="6.59634">
        <ele>1015.6</ele>
        <time>2015-05-03T13:01:50Z</time>
      </trkpt>
      <trkpt lat="43.78658" lon="6.59626">
        <ele>1014.9</ele>
        <time>2015-05-03T13:01:57Z</time>
      </trkpt>
      <trkpt lat="43.78652" lon="6.59616">
        <ele>1013</ele>
        <time>2015-05-03T13:02:20Z</time>
      </trkpt>
      <trkpt lat="43.78652" lon="6.59616">
        <ele>1013.9</ele>
        <time>2015-05-03T13:02:22Z</time>
      </trkpt>
      <trkpt lat="43.78668" lon="6.59605">
        <ele>1013.4</ele>
        <time>2015-05-03T13:02:44Z</time>
      </trkpt>
      <trkpt lat="43.78672" lon="6.59596">
        <ele>1014.2</ele>
        <time>2015-05-03T13:02:52Z</time>
      </trkpt>
      <trkpt lat="43.78676" lon="6.59588">
        <ele>1012.6</ele>
        <time>2015-05-03T13:02:59Z</time>
      </trkpt>
      <trkpt lat="43.78682" lon="6.59576">
        <ele>1013</ele>
        <time>2015-05-03T13:03:05Z</time>
      </trkpt>
      <trkpt lat="43.78683" lon="6.59564">
        <ele>1012.4</ele>
        <time>2015-05-03T13:03:25Z</time>
      </trkpt>
      <trkpt lat="43.78683" lon="6.59562">
        <ele>1012.4</ele>
        <time>2015-05-03T13:03:26Z</time>
      </trkpt>
      <trkpt lat="43.7869" lon="6.59533">
        <ele>1013</ele>
        <time>2015-05-03T13:03:39Z</time>
      </trkpt>
      <trkpt lat="43.7869" lon="6.59518">
        <ele>1013</ele>
        <time>2015-05-03T13:03:47Z</time>
      </trkpt>
      <trkpt lat="43.78687" lon="6.59504">
        <ele>1013</ele>
        <time>2015-05-03T13:03:55Z</time>
      </trkpt>
      <trkpt lat="43.78689" lon="6.59488">
        <ele>1013</ele>
        <time>2015-05-03T13:04:05Z</time>
      </trkpt>
      <trkpt lat="43.78698" lon="6.59474">
        <ele>1013</ele>
        <time>2015-05-03T13:04:12Z</time>
      </trkpt>
      <trkpt lat="43.78693" lon="6.59484">
        <ele>1015.4</ele>
        <time>2015-05-03T13:04:30Z</time>
      </trkpt>
      <trkpt lat="43.78693" lon="6.59485">
        <ele>1015.7</ele>
        <time>2015-05-03T13:04:31Z</time>
      </trkpt>
      <trkpt lat="43.78708" lon="6.59476">
        <ele>1021.5</ele>
        <time>2015-05-03T13:05:09Z</time>
      </trkpt>
      <trkpt lat="43.78713" lon="6.59466">
        <ele>1022</ele>
        <time>2015-05-03T13:05:14Z</time>
      </trkpt>
      <trkpt lat="43.78722" lon="6.59467">
        <ele>1024.6</ele>
        <time>2015-05-03T13:05:23Z</time>
      </trkpt>
      <trkpt lat="43.78729" lon="6.59461">
        <ele>1026</ele>
        <time>2015-05-03T13:05:38Z</time>
      </trkpt>
      <trkpt lat="43.78729" lon="6.5946">
        <ele>1026</ele>
        <time>2015-05-03T13:05:39Z</time>
      </trkpt>
      <trkpt lat="43.78733" lon="6.59461">
        <ele>1026.5</ele>
        <time>2015-05-03T13:08:09Z</time>
      </trkpt>
      <trkpt lat="43.78733" lon="6.59462">
        <ele>1026.9</ele>
        <time>2015-05-03T13:08:10Z</time>
      </trkpt>
      <trkpt lat="43.78782" lon="6.5952">
        <ele>1025.7</ele>
        <time>2015-05-03T13:10:32Z</time>
      </trkpt>
      <trkpt lat="43.78743" lon="6.5945">
        <ele>1026</ele>
        <time>2015-05-03T13:10:38Z</time>
      </trkpt>
      <trkpt lat="43.78737" lon="6.59435">
        <ele>1026.5</ele>
        <time>2015-05-03T13:10:41Z</time>
      </trkpt>
      <trkpt lat="43.78729" lon="6.59431">
        <ele>1026.7</ele>
        <time>2015-05-03T13:11:53Z</time>
      </trkpt>
      <trkpt lat="43.78728" lon="6.59431">
        <ele>1026.3</ele>
        <time>2015-05-03T13:11:54Z</time>
      </trkpt>
      <trkpt lat="43.78712" lon="6.59423">
        <ele>1022</ele>
        <time>2015-05-03T13:12:19Z</time>
      </trkpt>
      <trkpt lat="43.78717" lon="6.59411">
        <ele>1021</ele>
        <time>2015-05-03T13:12:27Z</time>
      </trkpt>
      <trkpt lat="43.78708" lon="6.59409">
        <ele>1020</ele>
        <time>2015-05-03T13:12:39Z</time>
      </trkpt>
      <trkpt lat="43.78698" lon="6.5942">
        <ele>1018</ele>
        <time>2015-05-03T13:12:51Z</time>
      </trkpt>
      <trkpt lat="43.78689" lon="6.59428">
        <ele>1019</ele>
        <time>2015-05-03T13:12:59Z</time>
      </trkpt>
      <trkpt lat="43.78687" lon="6.59432">
        <ele>1019.5</ele>
        <time>2015-05-03T13:13:01Z</time>
      </trkpt>
      <trkpt lat="43.78677" lon="6.59448">
        <ele>1019.1</ele>
        <time>2015-05-03T13:13:10Z</time>
      </trkpt>
      <trkpt lat="43.78671" lon="6.59457">
        <ele>1018.9</ele>
        <time>2015-05-03T13:13:16Z</time>
      </trkpt>
      <trkpt lat="43.78664" lon="6.59463">
        <ele>1019.3</ele>
        <time>2015-05-03T13:13:23Z</time>
      </trkpt>
      <trkpt lat="43.78659" lon="6.59473">
        <ele>1020.1</ele>
        <time>2015-05-03T13:13:36Z</time>
      </trkpt>
      <trkpt lat="43.78652" lon="6.59478">
        <ele>1020.8</ele>
        <time>2015-05-03T13:13:45Z</time>
      </trkpt>
      <trkpt lat="43.78644" lon="6.59482">
        <ele>1022.9</ele>
        <time>2015-05-03T13:14:00Z</time>
      </trkpt>
      <trkpt lat="43.78639" lon="6.5949">
        <ele>1022.7</ele>
        <time>2015-05-03T13:14:07Z</time>
      </trkpt>
      <trkpt lat="43.78638" lon="6.59493">
        <ele>1022.7</ele>
        <time>2015-05-03T13:14:08Z</time>
      </trkpt>
      <trkpt lat="43.78634" lon="6.59514">
        <ele>1022</ele>
        <time>2015-05-03T13:14:21Z</time>
      </trkpt>
      <trkpt lat="43.78633" lon="6.59533">
        <ele>1022</ele>
        <time>2015-05-03T13:14:33Z</time>
      </trkpt>
      <trkpt lat="43.7863" lon="6.59546">
        <ele>1023</ele>
        <time>2015-05-03T13:14:42Z</time>
      </trkpt>
      <trkpt lat="43.78627" lon="6.59557">
        <ele>1024.1</ele>
        <time>2015-05-03T13:14:52Z</time>
      </trkpt>
      <trkpt lat="43.78629" lon="6.59569">
        <ele>1024.9</ele>
        <time>2015-05-03T13:14:59Z</time>
      </trkpt>
      <trkpt lat="43.78625" lon="6.59582">
        <ele>1025.5</ele>
        <time>2015-05-03T13:15:12Z</time>
      </trkpt>
      <trkpt lat="43.78624" lon="6.59584">
        <ele>1025.6</ele>
        <time>2015-05-03T13:15:13Z</time>
      </trkpt>
      <trkpt lat="43.78612" lon="6.59597">
        <ele>1026.3</ele>
        <time>2015-05-03T13:15:32Z</time>
      </trkpt>
      <trkpt lat="43.78605" lon="6.59603">
        <ele>1027.8</ele>
        <time>2015-05-03T13:15:44Z</time>
      </trkpt>
      <trkpt lat="43.78599" lon="6.59612">
        <ele>1029.1</ele>
        <time>2015-05-03T13:15:52Z</time>
      </trkpt>
      <trkpt lat="43.7859" lon="6.59616">
        <ele>1030</ele>
        <time>2015-05-03T13:16:00Z</time>
      </trkpt>
      <trkpt lat="43.78587" lon="6.59628">
        <ele>1031</ele>
        <time>2015-05-03T13:16:06Z</time>
      </trkpt>
      <trkpt lat="43.78584" lon="6.59639">
        <ele>1031.5</ele>
        <time>2015-05-03T13:16:16Z</time>
      </trkpt>
      <trkpt lat="43.78584" lon="6.59642">
        <ele>1031.6</ele>
        <time>2015-05-03T13:16:17Z</time>
      </trkpt>
      <trkpt lat="43.78575" lon="6.59657">
        <ele>1031.8</ele>
        <time>2015-05-03T13:16:29Z</time>
      </trkpt>
      <trkpt lat="43.78571" lon="6.59668">
        <ele>1032.7</ele>
        <time>2015-05-03T13:16:44Z</time>
      </trkpt>
      <trkpt lat="43.78569" lon="6.59679">
        <ele>1033.4</ele>
        <time>2015-05-03T13:16:51Z</time>
      </trkpt>
      <trkpt lat="43.78569" lon="6.59692">
        <ele>1034.5</ele>
        <time>2015-05-03T13:16:57Z</time>
      </trkpt>
      <trkpt lat="43.78571" lon="6.59703">
        <ele>1034.2</ele>
        <time>2015-05-03T13:17:03Z</time>
      </trkpt>
      <trkpt lat="43.78571" lon="6.59715">
        <ele>1035.2</ele>
        <time>2015-05-03T13:17:11Z</time>
      </trkpt>
      <trkpt lat="43.7857" lon="6.59726">
        <ele>1035.2</ele>
        <time>2015-05-03T13:17:20Z</time>
      </trkpt>
      <trkpt lat="43.78571" lon="6.59728">
        <ele>1034.8</ele>
        <time>2015-05-03T13:17:21Z</time>
      </trkpt>
      <trkpt lat="43.78579" lon="6.59746">
        <ele>1036.9</ele>
        <time>2015-05-03T13:17:35Z</time>
      </trkpt>
      <trkpt lat="43.78581" lon="6.59758">
        <ele>1038.3</ele>
        <time>2015-05-03T13:17:45Z</time>
      </trkpt>
      <trkpt lat="43.78581" lon="6.59769">
        <ele>1037.8</ele>
        <time>2015-05-03T13:17:54Z</time>
      </trkpt>
      <trkpt lat="43.78576" lon="6.59779">
        <ele>1037.6</ele>
        <time>2015-05-03T13:18:03Z</time>
      </trkpt>
      <trkpt lat="43.78571" lon="6.59789">
        <ele>1036.5</ele>
        <time>2015-05-03T13:18:11Z</time>
      </trkpt>
      <trkpt lat="43.78569" lon="6.598">
        <ele>1037.1</ele>
        <time>2015-05-03T13:18:16Z</time>
      </trkpt>
      <trkpt lat="43.78568" lon="6.59811">
        <ele>1037.1</ele>
        <time>2015-05-03T13:18:23Z</time>
      </trkpt>
      <trkpt lat="43.78568" lon="6.59812">
        <ele>1037.2</ele>
        <time>2015-05-03T13:18:24Z</time>
      </trkpt>
      <trkpt lat="43.78565" lon="6.59835">
        <ele>1036.2</ele>
        <time>2015-05-03T13:18:37Z</time>
      </trkpt>
      <trkpt lat="43.78567" lon="6.59846">
        <ele>1034.9</ele>
        <time>2015-05-03T13:18:45Z</time>
      </trkpt>
      <trkpt lat="43.78566" lon="6.59857">
        <ele>1033.6</ele>
        <time>2015-05-03T13:18:53Z</time>
      </trkpt>
      <trkpt lat="43.78561" lon="6.59866">
        <ele>1031.4</ele>
        <time>2015-05-03T13:19:00Z</time>
      </trkpt>
      <trkpt lat="43.78554" lon="6.59875">
        <ele>1030.5</ele>
        <time>2015-05-03T13:19:06Z</time>
      </trkpt>
      <trkpt lat="43.7855" lon="6.59884">
        <ele>1030.6</ele>
        <time>2015-05-03T13:19:14Z</time>
      </trkpt>
      <trkpt lat="43.78546" lon="6.59893">
        <ele>1030.1</ele>
        <time>2015-05-03T13:19:24Z</time>
      </trkpt>
      <trkpt lat="43.78544" lon="6.59894">
        <ele>1030.2</ele>
        <time>2015-05-03T13:19:25Z</time>
      </trkpt>
      <trkpt lat="43.7853" lon="6.59897">
        <ele>1029.2</ele>
        <time>2015-05-03T13:20:02Z</time>
      </trkpt>
      <trkpt lat="43.7852" lon="6.59903">
        <ele>1028</ele>
        <time>2015-05-03T13:20:09Z</time>
      </trkpt>
      <trkpt lat="43.78515" lon="6.59913">
        <ele>1027.7</ele>
        <time>2015-05-03T13:20:18Z</time>
      </trkpt>
      <trkpt lat="43.78507" lon="6.59915">
        <ele>1025.4</ele>
        <time>2015-05-03T13:20:26Z</time>
      </trkpt>
      <trkpt lat="43.78506" lon="6.59916">
        <ele>1025</ele>
        <time>2015-05-03T13:20:27Z</time>
      </trkpt>
      <trkpt lat="43.78491" lon="6.59917">
        <ele>1023.7</ele>
        <time>2015-05-03T13:20:42Z</time>
      </trkpt>
      <trkpt lat="43.78482" lon="6.59919">
        <ele>1023.5</ele>
        <time>2015-05-03T13:20:49Z</time>
      </trkpt>
      <trkpt lat="43.78475" lon="6.59926">
        <ele>1023.2</ele>
        <time>2015-05-03T13:20:53Z</time>
      </trkpt>
      <trkpt lat="43.78461" lon="6.59924">
        <ele>1021</ele>
        <time>2015-05-03T13:21:06Z</time>
      </trkpt>
      <trkpt lat="43.7845" lon="6.59923">
        <ele>1019</ele>
        <time>2015-05-03T13:21:14Z</time>
      </trkpt>
      <trkpt lat="43.78437" lon="6.59922">
        <ele>1018</ele>
        <time>2015-05-03T13:21:26Z</time>
      </trkpt>
      <trkpt lat="43.78436" lon="6.59921">
        <ele>1018.4</ele>
        <time>2015-05-03T13:21:28Z</time>
      </trkpt>
      <trkpt lat="43.78414" lon="6.5992">
        <ele>1016</ele>
        <time>2015-05-03T13:21:48Z</time>
      </trkpt>
      <trkpt lat="43.78403" lon="6.59922">
        <ele>1015</ele>
        <time>2015-05-03T13:22:00Z</time>
      </trkpt>
      <trkpt lat="43.78391" lon="6.59917">
        <ele>1015</ele>
        <time>2015-05-03T13:22:12Z</time>
      </trkpt>
      <trkpt lat="43.7838" lon="6.59917">
        <ele>1015</ele>
        <time>2015-05-03T13:22:20Z</time>
      </trkpt>
      <trkpt lat="43.78369" lon="6.59915">
        <ele>1015</ele>
        <time>2015-05-03T13:22:32Z</time>
      </trkpt>
      <trkpt lat="43.78367" lon="6.59914">
        <ele>1015.4</ele>
        <time>2015-05-03T13:22:34Z</time>
      </trkpt>
      <trkpt lat="43.7835" lon="6.59914">
        <ele>1013</ele>
        <time>2015-05-03T13:22:49Z</time>
      </trkpt>
      <trkpt lat="43.78342" lon="6.59906">
        <ele>1013</ele>
        <time>2015-05-03T13:22:57Z</time>
      </trkpt>
      <trkpt lat="43.78334" lon="6.59898">
        <ele>1012</ele>
        <time>2015-05-03T13:23:09Z</time>
      </trkpt>
      <trkpt lat="43.78325" lon="6.59892">
        <ele>1011</ele>
        <time>2015-05-03T13:23:20Z</time>
      </trkpt>
      <trkpt lat="43.78317" lon="6.59886">
        <ele>1008.7</ele>
        <time>2015-05-03T13:23:30Z</time>
      </trkpt>
      <trkpt lat="43.7831" lon="6.59891">
        <ele>1007.8</ele>
        <time>2015-05-03T13:23:39Z</time>
      </trkpt>
      <trkpt lat="43.78309" lon="6.59892">
        <ele>1007.6</ele>
        <time>2015-05-03T13:23:40Z</time>
      </trkpt>
      <trkpt lat="43.78292" lon="6.59903">
        <ele>1004</ele>
        <time>2015-05-03T13:24:28Z</time>
      </trkpt>
      <trkpt lat="43.78285" lon="6.59911">
        <ele>1003</ele>
        <time>2015-05-03T13:24:36Z</time>
      </trkpt>
      <trkpt lat="43.78273" lon="6.59914">
        <ele>1002</ele>
        <time>2015-05-03T13:24:48Z</time>
      </trkpt>
      <trkpt lat="43.78273" lon="6.59914">
        <ele>1002.6</ele>
        <time>2015-05-03T13:24:50Z</time>
      </trkpt>
      <trkpt lat="43.78256" lon="6.59908">
        <ele>1001</ele>
        <time>2015-05-03T13:25:12Z</time>
      </trkpt>
      <trkpt lat="43.78252" lon="6.59921">
        <ele>1000</ele>
        <time>2015-05-03T13:25:38Z</time>
      </trkpt>
      <trkpt lat="43.78245" lon="6.5993">
        <ele>1000</ele>
        <time>2015-05-03T13:25:48Z</time>
      </trkpt>
      <trkpt lat="43.78244" lon="6.5993">
        <ele>1000.3</ele>
        <time>2015-05-03T13:25:52Z</time>
      </trkpt>
      <trkpt lat="43.78241" lon="6.59912">
        <ele>1000</ele>
        <time>2015-05-03T13:26:22Z</time>
      </trkpt>
      <trkpt lat="43.78239" lon="6.59924">
        <ele>1000</ele>
        <time>2015-05-03T13:26:30Z</time>
      </trkpt>
      <trkpt lat="43.78237" lon="6.59936">
        <ele>1000</ele>
        <time>2015-05-03T13:26:45Z</time>
      </trkpt>
      <trkpt lat="43.78237" lon="6.59947">
        <ele>1000.4</ele>
        <time>2015-05-03T13:26:54Z</time>
      </trkpt>
      <trkpt lat="43.78236" lon="6.5995">
        <ele>1000.4</ele>
        <time>2015-05-03T13:26:55Z</time>
      </trkpt>
      <trkpt lat="43.78235" lon="6.59969">
        <ele>1000.2</ele>
        <time>2015-05-03T13:28:00Z</time>
      </trkpt>
      <trkpt lat="43.78235" lon="6.59971">
        <ele>1000.3</ele>
        <time>2015-05-03T13:28:01Z</time>
      </trkpt>
      <trkpt lat="43.7825" lon="6.5998">
        <ele>1000.8</ele>
        <time>2015-05-03T13:28:20Z</time>
      </trkpt>
      <trkpt lat="43.78258" lon="6.59979">
        <ele>1001</ele>
        <time>2015-05-03T13:28:31Z</time>
      </trkpt>
      <trkpt lat="43.78267" lon="6.59979">
        <ele>1002.6</ele>
        <time>2015-05-03T13:28:46Z</time>
      </trkpt>
      <trkpt lat="43.78272" lon="6.59988">
        <ele>1002.7</ele>
        <time>2015-05-03T13:28:53Z</time>
      </trkpt>
      <trkpt lat="43.78275" lon="6.59999">
        <ele>1003.8</ele>
        <time>2015-05-03T13:29:05Z</time>
      </trkpt>
      <trkpt lat="43.78275" lon="6.60001">
        <ele>1004.1</ele>
        <time>2015-05-03T13:29:06Z</time>
      </trkpt>
      <trkpt lat="43.78284" lon="6.60022">
        <ele>1005.3</ele>
        <time>2015-05-03T13:29:19Z</time>
      </trkpt>
      <trkpt lat="43.7829" lon="6.60031">
        <ele>1005</ele>
        <time>2015-05-03T13:29:27Z</time>
      </trkpt>
      <trkpt lat="43.78299" lon="6.60034">
        <ele>1005</ele>
        <time>2015-05-03T13:29:35Z</time>
      </trkpt>
      <trkpt lat="43.78308" lon="6.60038">
        <ele>1005.8</ele>
        <time>2015-05-03T13:29:45Z</time>
      </trkpt>
      <trkpt lat="43.78314" lon="6.60046">
        <ele>1007.2</ele>
        <time>2015-05-03T13:29:54Z</time>
      </trkpt>
      <trkpt lat="43.78322" lon="6.6005">
        <ele>1008.7</ele>
        <time>2015-05-03T13:30:04Z</time>
      </trkpt>
      <trkpt lat="43.7833" lon="6.60055">
        <ele>1008.8</ele>
        <time>2015-05-03T13:30:11Z</time>
      </trkpt>
      <trkpt lat="43.78331" lon="6.60056">
        <ele>1008.8</ele>
        <time>2015-05-03T13:30:12Z</time>
      </trkpt>
      <trkpt lat="43.78333" lon="6.60072">
        <ele>1011</ele>
        <time>2015-05-03T13:30:43Z</time>
      </trkpt>
      <trkpt lat="43.78326" lon="6.6008">
        <ele>1009.6</ele>
        <time>2015-05-03T13:31:10Z</time>
      </trkpt>
      <trkpt lat="43.78318" lon="6.60081">
        <ele>1011.9</ele>
        <time>2015-05-03T13:31:29Z</time>
      </trkpt>
      <trkpt lat="43.78317" lon="6.60082">
        <ele>1011.6</ele>
        <time>2015-05-03T13:31:30Z</time>
      </trkpt>
      <trkpt lat="43.78303" lon="6.60089">
        <ele>1014.5</ele>
        <time>2015-05-03T13:31:49Z</time>
      </trkpt>
      <trkpt lat="43.78296" lon="6.60095">
        <ele>1015.6</ele>
        <time>2015-05-03T13:32:01Z</time>
      </trkpt>
      <trkpt lat="43.78291" lon="6.60106">
        <ele>1015.6</ele>
        <time>2015-05-03T13:32:10Z</time>
      </trkpt>
      <trkpt lat="43.78292" lon="6.60119">
        <ele>1017</ele>
        <time>2015-05-03T13:32:24Z</time>
      </trkpt>
      <trkpt lat="43.783" lon="6.60133">
        <ele>1018</ele>
        <time>2015-05-03T13:32:37Z</time>
      </trkpt>
      <trkpt lat="43.783" lon="6.60134">
        <ele>1019.4</ele>
        <time>2015-05-03T13:32:40Z</time>
      </trkpt>
      <trkpt lat="43.78308" lon="6.60165">
        <ele>1022</ele>
        <time>2015-05-03T13:33:02Z</time>
      </trkpt>
      <trkpt lat="43.78311" lon="6.60176">
        <ele>1022.9</ele>
        <time>2015-05-03T13:33:18Z</time>
      </trkpt>
      <trkpt lat="43.78311" lon="6.60189">
        <ele>1024</ele>
        <time>2015-05-03T13:33:37Z</time>
      </trkpt>
      <trkpt lat="43.78312" lon="6.60203">
        <ele>1025.8</ele>
        <time>2015-05-03T13:33:47Z</time>
      </trkpt>
      <trkpt lat="43.78312" lon="6.60204">
        <ele>1025.9</ele>
        <time>2015-05-03T13:33:48Z</time>
      </trkpt>
      <trkpt lat="43.78314" lon="6.6023">
        <ele>1030</ele>
        <time>2015-05-03T13:34:28Z</time>
      </trkpt>
      <trkpt lat="43.78323" lon="6.6025">
        <ele>1032</ele>
        <time>2015-05-03T13:34:39Z</time>
      </trkpt>
      <trkpt lat="43.78324" lon="6.60263">
        <ele>1032</ele>
        <time>2015-05-03T13:34:48Z</time>
      </trkpt>
      <trkpt lat="43.78324" lon="6.60264">
        <ele>1033.7</ele>
        <time>2015-05-03T13:34:51Z</time>
      </trkpt>
      <trkpt lat="43.78333" lon="6.60283">
        <ele>1034.8</ele>
        <time>2015-05-03T13:35:12Z</time>
      </trkpt>
      <trkpt lat="43.78341" lon="6.6029">
        <ele>1035.2</ele>
        <time>2015-05-03T13:35:24Z</time>
      </trkpt>
      <trkpt lat="43.78339" lon="6.60301">
        <ele>1036.4</ele>
        <time>2015-05-03T13:35:35Z</time>
      </trkpt>
      <trkpt lat="43.78336" lon="6.60312">
        <ele>1038.6</ele>
        <time>2015-05-03T13:35:49Z</time>
      </trkpt>
      <trkpt lat="43.78328" lon="6.60318">
        <ele>1040.1</ele>
        <time>2015-05-03T13:36:08Z</time>
      </trkpt>
      <trkpt lat="43.78327" lon="6.60318">
        <ele>1040.6</ele>
        <time>2015-05-03T13:36:09Z</time>
      </trkpt>
      <trkpt lat="43.78312" lon="6.60324">
        <ele>1043.9</ele>
        <time>2015-05-03T13:36:32Z</time>
      </trkpt>
      <trkpt lat="43.78304" lon="6.60331">
        <ele>1045</ele>
        <time>2015-05-03T13:36:46Z</time>
      </trkpt>
      <trkpt lat="43.78299" lon="6.6034">
        <ele>1046</ele>
        <time>2015-05-03T13:36:53Z</time>
      </trkpt>
      <trkpt lat="43.78291" lon="6.60341">
        <ele>1047.2</ele>
        <time>2015-05-03T13:37:03Z</time>
      </trkpt>
      <trkpt lat="43.78283" lon="6.60347">
        <ele>1047.1</ele>
        <time>2015-05-03T13:37:10Z</time>
      </trkpt>
      <trkpt lat="43.78282" lon="6.60348">
        <ele>1047.1</ele>
        <time>2015-05-03T13:37:11Z</time>
      </trkpt>
      <trkpt lat="43.78267" lon="6.60348">
        <ele>1046.6</ele>
        <time>2015-05-03T13:37:32Z</time>
      </trkpt>
      <trkpt lat="43.78259" lon="6.60349">
        <ele>1047.2</ele>
        <time>2015-05-03T13:37:40Z</time>
      </trkpt>
      <trkpt lat="43.7825" lon="6.60352">
        <ele>1049.2</ele>
        <time>2015-05-03T13:37:56Z</time>
      </trkpt>
      <trkpt lat="43.78241" lon="6.60352">
        <ele>1048.3</ele>
        <time>2015-05-03T13:38:06Z</time>
      </trkpt>
      <trkpt lat="43.78234" lon="6.60356">
        <ele>1048.6</ele>
        <time>2015-05-03T13:38:11Z</time>
      </trkpt>
      <trkpt lat="43.78225" lon="6.60354">
        <ele>1050.2</ele>
        <time>2015-05-03T13:38:22Z</time>
      </trkpt>
      <trkpt lat="43.78223" lon="6.60355">
        <ele>1050</ele>
        <time>2015-05-03T13:38:23Z</time>
      </trkpt>
      <trkpt lat="43.78212" lon="6.60367">
        <ele>1049.2</ele>
        <time>2015-05-03T13:38:32Z</time>
      </trkpt>
      <trkpt lat="43.78206" lon="6.60372">
        <ele>1049.2</ele>
        <time>2015-05-03T13:38:35Z</time>
      </trkpt>
      <trkpt lat="43.78198" lon="6.60375">
        <ele>1049</ele>
        <time>2015-05-03T13:38:39Z</time>
      </trkpt>
      <trkpt lat="43.7819" lon="6.60378">
        <ele>1049.1</ele>
        <time>2015-05-03T13:38:46Z</time>
      </trkpt>
      <trkpt lat="43.78185" lon="6.60387">
        <ele>1050.7</ele>
        <time>2015-05-03T13:38:55Z</time>
      </trkpt>
      <trkpt lat="43.78178" lon="6.60391">
        <ele>1050.7</ele>
        <time>2015-05-03T13:39:08Z</time>
      </trkpt>
      <trkpt lat="43.78171" lon="6.60399">
        <ele>1051.3</ele>
        <time>2015-05-03T13:39:16Z</time>
      </trkpt>
      <trkpt lat="43.78163" lon="6.60403">
        <ele>1051.3</ele>
        <time>2015-05-03T13:39:27Z</time>
      </trkpt>
      <trkpt lat="43.78162" lon="6.60403">
        <ele>1051.2</ele>
        <time>2015-05-03T13:39:28Z</time>
      </trkpt>
      <trkpt lat="43.7815" lon="6.60418">
        <ele>1052</ele>
        <time>2015-05-03T13:39:43Z</time>
      </trkpt>
      <trkpt lat="43.78143" lon="6.60426">
        <ele>1052.8</ele>
        <time>2015-05-03T13:39:58Z</time>
      </trkpt>
      <trkpt lat="43.7814" lon="6.60437">
        <ele>1053.3</ele>
        <time>2015-05-03T13:40:16Z</time>
      </trkpt>
      <trkpt lat="43.78132" lon="6.60435">
        <ele>1053.9</ele>
        <time>2015-05-03T13:40:51Z</time>
      </trkpt>
      <trkpt lat="43.78131" lon="6.60435">
        <ele>1054.1</ele>
        <time>2015-05-03T13:40:52Z</time>
      </trkpt>
      <trkpt lat="43.78115" lon="6.60439">
        <ele>1055.8</ele>
        <time>2015-05-03T13:41:10Z</time>
      </trkpt>
      <trkpt lat="43.78107" lon="6.60441">
        <ele>1057.8</ele>
        <time>2015-05-03T13:41:21Z</time>
      </trkpt>
      <trkpt lat="43.78099" lon="6.60438">
        <ele>1058.8</ele>
        <time>2015-05-03T13:41:29Z</time>
      </trkpt>
      <trkpt lat="43.7809" lon="6.60441">
        <ele>1059.4</ele>
        <time>2015-05-03T13:41:43Z</time>
      </trkpt>
      <trkpt lat="43.78082" lon="6.60443">
        <ele>1059.7</ele>
        <time>2015-05-03T13:41:52Z</time>
      </trkpt>
      <trkpt lat="43.7808" lon="6.60445">
        <ele>1059.6</ele>
        <time>2015-05-03T13:41:53Z</time>
      </trkpt>
      <trkpt lat="43.78071" lon="6.60462">
        <ele>1057.7</ele>
        <time>2015-05-03T13:42:12Z</time>
      </trkpt>
      <trkpt lat="43.78064" lon="6.60469">
        <ele>1057.6</ele>
        <time>2015-05-03T13:42:22Z</time>
      </trkpt>
      <trkpt lat="43.7806" lon="6.60477">
        <ele>1056.5</ele>
        <time>2015-05-03T13:42:29Z</time>
      </trkpt>
      <trkpt lat="43.78057" lon="6.60488">
        <ele>1055.5</ele>
        <time>2015-05-03T13:42:36Z</time>
      </trkpt>
      <trkpt lat="43.78049" lon="6.60494">
        <ele>1055</ele>
        <time>2015-05-03T13:42:44Z</time>
      </trkpt>
      <trkpt lat="43.78041" lon="6.60495">
        <ele>1055.5</ele>
        <time>2015-05-03T13:42:52Z</time>
      </trkpt>
      <trkpt lat="43.78043" lon="6.60507">
        <ele>1055.1</ele>
        <time>2015-05-03T13:43:03Z</time>
      </trkpt>
      <trkpt lat="43.78043" lon="6.60508">
        <ele>1054.9</ele>
        <time>2015-05-03T13:43:04Z</time>
      </trkpt>
      <trkpt lat="43.78028" lon="6.60517">
        <ele>1055.3</ele>
        <time>2015-05-03T13:43:23Z</time>
      </trkpt>
      <trkpt lat="43.78023" lon="6.60525">
        <ele>1056</ele>
        <time>2015-05-03T13:43:33Z</time>
      </trkpt>
      <trkpt lat="43.78022" lon="6.60543">
        <ele>1055</ele>
        <time>2015-05-03T13:43:40Z</time>
      </trkpt>
      <trkpt lat="43.78018" lon="6.60559">
        <ele>1055</ele>
        <time>2015-05-03T13:43:52Z</time>
      </trkpt>
      <trkpt lat="43.78006" lon="6.60564">
        <ele>1056</ele>
        <time>2015-05-03T13:44:04Z</time>
      </trkpt>
      <trkpt lat="43.78004" lon="6.60563">
        <ele>1056.5</ele>
        <time>2015-05-03T13:44:06Z</time>
      </trkpt>
      <trkpt lat="43.77986" lon="6.60569">
        <ele>1056</ele>
        <time>2015-05-03T13:44:26Z</time>
      </trkpt>
      <trkpt lat="43.77975" lon="6.60567">
        <ele>1056</ele>
        <time>2015-05-03T13:44:34Z</time>
      </trkpt>
      <trkpt lat="43.7797" lon="6.60582">
        <ele>1057</ele>
        <time>2015-05-03T13:44:46Z</time>
      </trkpt>
      <trkpt lat="43.77968" lon="6.606">
        <ele>1058</ele>
        <time>2015-05-03T13:44:58Z</time>
      </trkpt>
      <trkpt lat="43.77963" lon="6.60617">
        <ele>1060</ele>
        <time>2015-05-03T13:45:14Z</time>
      </trkpt>
      <trkpt lat="43.77963" lon="6.6062">
        <ele>1060.8</ele>
        <time>2015-05-03T13:45:16Z</time>
      </trkpt>
      <trkpt lat="43.77953" lon="6.60643">
        <ele>1063</ele>
        <time>2015-05-03T13:45:48Z</time>
      </trkpt>
      <trkpt lat="43.77946" lon="6.60653">
        <ele>1064</ele>
        <time>2015-05-03T13:46:00Z</time>
      </trkpt>
      <trkpt lat="43.77935" lon="6.60652">
        <ele>1064</ele>
        <time>2015-05-03T13:46:16Z</time>
      </trkpt>
      <trkpt lat="43.77934" lon="6.60652">
        <ele>1064.1</ele>
        <time>2015-05-03T13:46:18Z</time>
      </trkpt>
      <trkpt lat="43.77915" lon="6.6066">
        <ele>1061</ele>
        <time>2015-05-03T13:46:36Z</time>
      </trkpt>
      <trkpt lat="43.77907" lon="6.60672">
        <ele>1060</ele>
        <time>2015-05-03T13:46:48Z</time>
      </trkpt>
      <trkpt lat="43.77897" lon="6.60674">
        <ele>1059</ele>
        <time>2015-05-03T13:47:00Z</time>
      </trkpt>
      <trkpt lat="43.77885" lon="6.60669">
        <ele>1058</ele>
        <time>2015-05-03T13:47:08Z</time>
      </trkpt>
      <trkpt lat="43.77877" lon="6.60684">
        <ele>1058</ele>
        <time>2015-05-03T13:47:22Z</time>
      </trkpt>
      <trkpt lat="43.77876" lon="6.60686">
        <ele>1058.5</ele>
        <time>2015-05-03T13:47:24Z</time>
      </trkpt>
      <trkpt lat="43.77856" lon="6.60688">
        <ele>1057</ele>
        <time>2015-05-03T13:47:38Z</time>
      </trkpt>
      <trkpt lat="43.77848" lon="6.60702">
        <ele>1056</ele>
        <time>2015-05-03T13:47:50Z</time>
      </trkpt>
      <trkpt lat="43.77839" lon="6.60703">
        <ele>1056</ele>
        <time>2015-05-03T13:47:58Z</time>
      </trkpt>
      <trkpt lat="43.77826" lon="6.60692">
        <ele>1056</ele>
        <time>2015-05-03T13:48:06Z</time>
      </trkpt>
      <trkpt lat="43.77815" lon="6.60694">
        <ele>1056</ele>
        <time>2015-05-03T13:48:14Z</time>
      </trkpt>
      <trkpt lat="43.77811" lon="6.60706">
        <ele>1056</ele>
        <time>2015-05-03T13:48:22Z</time>
      </trkpt>
      <trkpt lat="43.77802" lon="6.60711">
        <ele>1054</ele>
        <time>2015-05-03T13:48:42Z</time>
      </trkpt>
      <trkpt lat="43.77801" lon="6.6071">
        <ele>1055</ele>
        <time>2015-05-03T13:48:44Z</time>
      </trkpt>
      <trkpt lat="43.77781" lon="6.60718">
        <ele>1053</ele>
        <time>2015-05-03T13:49:12Z</time>
      </trkpt>
      <trkpt lat="43.77771" lon="6.60716">
        <ele>1053</ele>
        <time>2015-05-03T13:49:20Z</time>
      </trkpt>
      <trkpt lat="43.7776" lon="6.60718">
        <ele>1053</ele>
        <time>2015-05-03T13:49:32Z</time>
      </trkpt>
      <trkpt lat="43.7775" lon="6.60722">
        <ele>1053</ele>
        <time>2015-05-03T13:49:44Z</time>
      </trkpt>
      <trkpt lat="43.7775" lon="6.60724">
        <ele>1054.4</ele>
        <time>2015-05-03T13:49:46Z</time>
      </trkpt>
      <trkpt lat="43.77736" lon="6.60739">
        <ele>1054</ele>
        <time>2015-05-03T13:50:04Z</time>
      </trkpt>
      <trkpt lat="43.77726" lon="6.60741">
        <ele>1054</ele>
        <time>2015-05-03T13:50:12Z</time>
      </trkpt>
      <trkpt lat="43.77718" lon="6.6075">
        <ele>1054</ele>
        <time>2015-05-03T13:50:24Z</time>
      </trkpt>
      <trkpt lat="43.7771" lon="6.60759">
        <ele>1054</ele>
        <time>2015-05-03T13:50:36Z</time>
      </trkpt>
      <trkpt lat="43.77702" lon="6.60773">
        <ele>1052</ele>
        <time>2015-05-03T13:50:48Z</time>
      </trkpt>
      <trkpt lat="43.77701" lon="6.60774">
        <ele>1053</ele>
        <time>2015-05-03T13:50:50Z</time>
      </trkpt>
      <trkpt lat="43.7768" lon="6.60766">
        <ele>1051</ele>
        <time>2015-05-03T13:51:12Z</time>
      </trkpt>
      <trkpt lat="43.77668" lon="6.60764">
        <ele>1050</ele>
        <time>2015-05-03T13:51:20Z</time>
      </trkpt>
      <trkpt lat="43.77656" lon="6.60763">
        <ele>1048</ele>
        <time>2015-05-03T13:51:36Z</time>
      </trkpt>
      <trkpt lat="43.77648" lon="6.60756">
        <ele>1047</ele>
        <time>2015-05-03T13:51:44Z</time>
      </trkpt>
      <trkpt lat="43.77641" lon="6.60747">
        <ele>1046</ele>
        <time>2015-05-03T13:51:56Z</time>
      </trkpt>
      <trkpt lat="43.7764" lon="6.60747">
        <ele>1046.9</ele>
        <time>2015-05-03T13:51:58Z</time>
      </trkpt>
      <trkpt lat="43.77624" lon="6.60739">
        <ele>1044</ele>
        <time>2015-05-03T13:52:20Z</time>
      </trkpt>
      <trkpt lat="43.77617" lon="6.60725">
        <ele>1042</ele>
        <time>2015-05-03T13:52:28Z</time>
      </trkpt>
      <trkpt lat="43.77611" lon="6.60712">
        <ele>1041</ele>
        <time>2015-05-03T13:52:40Z</time>
      </trkpt>
      <trkpt lat="43.77604" lon="6.60696">
        <ele>1039</ele>
        <time>2015-05-03T13:52:52Z</time>
      </trkpt>
      <trkpt lat="43.7759" lon="6.60685">
        <ele>1038</ele>
        <time>2015-05-03T13:53:08Z</time>
      </trkpt>
      <trkpt lat="43.77587" lon="6.6068">
        <ele>1038.8</ele>
        <time>2015-05-03T13:53:10Z</time>
      </trkpt>
      <trkpt lat="43.77567" lon="6.60664">
        <ele>1039</ele>
        <time>2015-05-03T13:53:29Z</time>
      </trkpt>
      <trkpt lat="43.77568" lon="6.6069">
        <ele>1039</ele>
        <time>2015-05-03T13:53:50Z</time>
      </trkpt>
      <trkpt lat="43.77559" lon="6.60685">
        <ele>1039</ele>
        <time>2015-05-03T13:54:09Z</time>
      </trkpt>
      <trkpt lat="43.77557" lon="6.60683">
        <ele>1039.3</ele>
        <time>2015-05-03T13:54:11Z</time>
      </trkpt>
      <trkpt lat="43.77561" lon="6.60678">
        <ele>1038.6</ele>
        <time>2015-05-03T13:54:38Z</time>
      </trkpt>
      <trkpt lat="43.7757" lon="6.60687">
        <ele>1038</ele>
        <time>2015-05-03T13:54:44Z</time>
      </trkpt>
      <trkpt lat="43.77573" lon="6.60693">
        <ele>1038.6</ele>
        <time>2015-05-03T13:54:46Z</time>
      </trkpt>
      <trkpt lat="43.77576" lon="6.60702">
        <ele>1039</ele>
        <time>2015-05-03T13:54:48Z</time>
      </trkpt>
      <trkpt lat="43.7757" lon="6.60689">
        <ele>1038</ele>
        <time>2015-05-03T13:55:19Z</time>
      </trkpt>
      <trkpt lat="43.7757" lon="6.60684">
        <ele>1038.9</ele>
        <time>2015-05-03T13:55:23Z</time>
      </trkpt>
      <trkpt lat="43.77565" lon="6.60665">
        <ele>1039.3</ele>
        <time>2015-05-03T13:55:39Z</time>
      </trkpt>
      <trkpt lat="43.77564" lon="6.60652">
        <ele>1038</ele>
        <time>2015-05-03T13:55:46Z</time>
      </trkpt>
      <trkpt lat="43.77566" lon="6.60665">
        <ele>1038</ele>
        <time>2015-05-03T13:56:05Z</time>
      </trkpt>
      <trkpt lat="43.77557" lon="6.60661">
        <ele>1038</ele>
        <time>2015-05-03T13:57:06Z</time>
      </trkpt>
      <trkpt lat="43.77556" lon="6.60661">
        <ele>1038.9</ele>
        <time>2015-05-03T13:57:10Z</time>
      </trkpt>
      <trkpt lat="43.77558" lon="6.60638">
        <ele>1038</ele>
        <time>2015-05-03T13:57:36Z</time>
      </trkpt>
      <trkpt lat="43.77556" lon="6.60628">
        <ele>1037.5</ele>
        <time>2015-05-03T13:57:44Z</time>
      </trkpt>
      <trkpt lat="43.77553" lon="6.60616">
        <ele>1037.4</ele>
        <time>2015-05-03T13:57:51Z</time>
      </trkpt>
      <trkpt lat="43.77551" lon="6.60606">
        <ele>1037.3</ele>
        <time>2015-05-03T13:57:57Z</time>
      </trkpt>
      <trkpt lat="43.77546" lon="6.60597">
        <ele>1036.5</ele>
        <time>2015-05-03T13:58:05Z</time>
      </trkpt>
      <trkpt lat="43.77539" lon="6.6059">
        <ele>1036</ele>
        <time>2015-05-03T13:58:13Z</time>
      </trkpt>
      <trkpt lat="43.77538" lon="6.60588">
        <ele>1036</ele>
        <time>2015-05-03T13:58:14Z</time>
      </trkpt>
      <trkpt lat="43.77537" lon="6.60565">
        <ele>1036.5</ele>
        <time>2015-05-03T13:58:31Z</time>
      </trkpt>
      <trkpt lat="43.77535" lon="6.60554">
        <ele>1036.5</ele>
        <time>2015-05-03T13:58:39Z</time>
      </trkpt>
      <trkpt lat="43.77531" lon="6.60544">
        <ele>1036.2</ele>
        <time>2015-05-03T13:58:47Z</time>
      </trkpt>
      <trkpt lat="43.77527" lon="6.60534">
        <ele>1035.6</ele>
        <time>2015-05-03T13:58:55Z</time>
      </trkpt>
      <trkpt lat="43.77524" lon="6.60523">
        <ele>1034.4</ele>
        <time>2015-05-03T13:59:03Z</time>
      </trkpt>
      <trkpt lat="43.77519" lon="6.60514">
        <ele>1034</ele>
        <time>2015-05-03T13:59:09Z</time>
      </trkpt>
      <trkpt lat="43.77516" lon="6.60503">
        <ele>1033.6</ele>
        <time>2015-05-03T13:59:17Z</time>
      </trkpt>
      <trkpt lat="43.77516" lon="6.60501">
        <ele>1033.3</ele>
        <time>2015-05-03T13:59:18Z</time>
      </trkpt>
      <trkpt lat="43.77505" lon="6.60485">
        <ele>1032.1</ele>
        <time>2015-05-03T13:59:35Z</time>
      </trkpt>
      <trkpt lat="43.77501" lon="6.60475">
        <ele>1032.1</ele>
        <time>2015-05-03T13:59:44Z</time>
      </trkpt>
      <trkpt lat="43.77498" lon="6.60464">
        <ele>1031.7</ele>
        <time>2015-05-03T13:59:52Z</time>
      </trkpt>
      <trkpt lat="43.77493" lon="6.60456">
        <ele>1031.6</ele>
        <time>2015-05-03T13:59:58Z</time>
      </trkpt>
      <trkpt lat="43.77489" lon="6.60447">
        <ele>1030.7</ele>
        <time>2015-05-03T14:00:04Z</time>
      </trkpt>
      <trkpt lat="43.77486" lon="6.60435">
        <ele>1031.2</ele>
        <time>2015-05-03T14:00:12Z</time>
      </trkpt>
      <trkpt lat="43.77482" lon="6.60425">
        <ele>1031.3</ele>
        <time>2015-05-03T14:00:18Z</time>
      </trkpt>
      <trkpt lat="43.77482" lon="6.60423">
        <ele>1030.8</ele>
        <time>2015-05-03T14:00:19Z</time>
      </trkpt>
      <trkpt lat="43.77477" lon="6.60402">
        <ele>1029.9</ele>
        <time>2015-05-03T14:00:33Z</time>
      </trkpt>
      <trkpt lat="43.77474" lon="6.6039">
        <ele>1029.3</ele>
        <time>2015-05-03T14:00:41Z</time>
      </trkpt>
      <trkpt lat="43.77473" lon="6.60378">
        <ele>1028.6</ele>
        <time>2015-05-03T14:00:52Z</time>
      </trkpt>
      <trkpt lat="43.77468" lon="6.6037">
        <ele>1028.4</ele>
        <time>2015-05-03T14:01:01Z</time>
      </trkpt>
      <trkpt lat="43.77464" lon="6.60362">
        <ele>1027.8</ele>
        <time>2015-05-03T14:01:06Z</time>
      </trkpt>
      <trkpt lat="43.77458" lon="6.60353">
        <ele>1028.6</ele>
        <time>2015-05-03T14:01:12Z</time>
      </trkpt>
      <trkpt lat="43.77451" lon="6.60348">
        <ele>1028.6</ele>
        <time>2015-05-03T14:01:20Z</time>
      </trkpt>
      <trkpt lat="43.7745" lon="6.60347">
        <ele>1028.5</ele>
        <time>2015-05-03T14:01:21Z</time>
      </trkpt>
      <trkpt lat="43.77437" lon="6.60335">
        <ele>1028</ele>
        <time>2015-05-03T14:01:33Z</time>
      </trkpt>
      <trkpt lat="43.77432" lon="6.60327">
        <ele>1027.9</ele>
        <time>2015-05-03T14:01:41Z</time>
      </trkpt>
      <trkpt lat="43.77428" lon="6.60316">
        <ele>1028.7</ele>
        <time>2015-05-03T14:01:48Z</time>
      </trkpt>
      <trkpt lat="43.77422" lon="6.60307">
        <ele>1028.2</ele>
        <time>2015-05-03T14:01:56Z</time>
      </trkpt>
      <trkpt lat="43.77417" lon="6.60298">
        <ele>1029.1</ele>
        <time>2015-05-03T14:02:06Z</time>
      </trkpt>
      <trkpt lat="43.77412" lon="6.6029">
        <ele>1028.6</ele>
        <time>2015-05-03T14:02:11Z</time>
      </trkpt>
      <trkpt lat="43.77407" lon="6.60279">
        <ele>1029.8</ele>
        <time>2015-05-03T14:02:19Z</time>
      </trkpt>
      <trkpt lat="43.77403" lon="6.60269">
        <ele>1029.6</ele>
        <time>2015-05-03T14:02:26Z</time>
      </trkpt>
      <trkpt lat="43.77403" lon="6.60268">
        <ele>1029.7</ele>
        <time>2015-05-03T14:02:27Z</time>
      </trkpt>
      <trkpt lat="43.77393" lon="6.6025">
        <ele>1029.2</ele>
        <time>2015-05-03T14:02:42Z</time>
      </trkpt>
      <trkpt lat="43.77388" lon="6.60241">
        <ele>1029.4</ele>
        <time>2015-05-03T14:02:50Z</time>
      </trkpt>
      <trkpt lat="43.77385" lon="6.6023">
        <ele>1029.3</ele>
        <time>2015-05-03T14:02:58Z</time>
      </trkpt>
      <trkpt lat="43.77382" lon="6.60218">
        <ele>1029.4</ele>
        <time>2015-05-03T14:03:06Z</time>
      </trkpt>
      <trkpt lat="43.77378" lon="6.60209">
        <ele>1028.7</ele>
        <time>2015-05-03T14:03:13Z</time>
      </trkpt>
      <trkpt lat="43.77373" lon="6.60199">
        <ele>1028.7</ele>
        <time>2015-05-03T14:03:21Z</time>
      </trkpt>
      <trkpt lat="43.77368" lon="6.6019">
        <ele>1028.8</ele>
        <time>2015-05-03T14:03:28Z</time>
      </trkpt>
      <trkpt lat="43.77368" lon="6.60188">
        <ele>1028.6</ele>
        <time>2015-05-03T14:03:29Z</time>
      </trkpt>
      <trkpt lat="43.77357" lon="6.60173">
        <ele>1028.9</ele>
        <time>2015-05-03T14:03:42Z</time>
      </trkpt>
      <trkpt lat="43.77352" lon="6.60165">
        <ele>1028.9</ele>
        <time>2015-05-03T14:03:49Z</time>
      </trkpt>
      <trkpt lat="43.77347" lon="6.60155">
        <ele>1028.8</ele>
        <time>2015-05-03T14:03:57Z</time>
      </trkpt>
      <trkpt lat="43.77343" lon="6.60146">
        <ele>1028.2</ele>
        <time>2015-05-03T14:04:04Z</time>
      </trkpt>
      <trkpt lat="43.77338" lon="6.60137">
        <ele>1027.7</ele>
        <time>2015-05-03T14:04:11Z</time>
      </trkpt>
      <trkpt lat="43.77333" lon="6.60128">
        <ele>1027.6</ele>
        <time>2015-05-03T14:04:19Z</time>
      </trkpt>
      <trkpt lat="43.7733" lon="6.60118">
        <ele>1027.6</ele>
        <time>2015-05-03T14:04:25Z</time>
      </trkpt>
      <trkpt lat="43.77324" lon="6.60108">
        <ele>1027.3</ele>
        <time>2015-05-03T14:04:33Z</time>
      </trkpt>
      <trkpt lat="43.77324" lon="6.60108">
        <ele>1027.6</ele>
        <time>2015-05-03T14:04:34Z</time>
      </trkpt>
      <trkpt lat="43.77312" lon="6.60093">
        <ele>1027.3</ele>
        <time>2015-05-03T14:04:48Z</time>
      </trkpt>
      <trkpt lat="43.77306" lon="6.60086">
        <ele>1026.7</ele>
        <time>2015-05-03T14:04:55Z</time>
      </trkpt>
      <trkpt lat="43.77301" lon="6.60078">
        <ele>1026.6</ele>
        <time>2015-05-03T14:05:02Z</time>
      </trkpt>
      <trkpt lat="43.77294" lon="6.60071">
        <ele>1026.2</ele>
        <time>2015-05-03T14:05:09Z</time>
      </trkpt>
      <trkpt lat="43.77287" lon="6.60064">
        <ele>1025</ele>
        <time>2015-05-03T14:05:17Z</time>
      </trkpt>
      <trkpt lat="43.7728" lon="6.60058">
        <ele>1023.4</ele>
        <time>2015-05-03T14:05:24Z</time>
      </trkpt>
      <trkpt lat="43.77273" lon="6.60052">
        <ele>1022.2</ele>
        <time>2015-05-03T14:05:34Z</time>
      </trkpt>
      <trkpt lat="43.77272" lon="6.60051">
        <ele>1021.9</ele>
        <time>2015-05-03T14:05:35Z</time>
      </trkpt>
      <trkpt lat="43.77258" lon="6.6004">
        <ele>1018.1</ele>
        <time>2015-05-03T14:05:53Z</time>
      </trkpt>
      <trkpt lat="43.77251" lon="6.60037">
        <ele>1015.8</ele>
        <time>2015-05-03T14:06:05Z</time>
      </trkpt>
      <trkpt lat="43.77244" lon="6.6003">
        <ele>1013.3</ele>
        <time>2015-05-03T14:06:17Z</time>
      </trkpt>
      <trkpt lat="43.77237" lon="6.60024">
        <ele>1011.1</ele>
        <time>2015-05-03T14:06:29Z</time>
      </trkpt>
      <trkpt lat="43.77231" lon="6.60017">
        <ele>1008.9</ele>
        <time>2015-05-03T14:06:36Z</time>
      </trkpt>
      <trkpt lat="43.7723" lon="6.60016">
        <ele>1009</ele>
        <time>2015-05-03T14:06:37Z</time>
      </trkpt>
      <trkpt lat="43.7722" lon="6.6">
        <ele>1006.9</ele>
        <time>2015-05-03T14:06:53Z</time>
      </trkpt>
      <trkpt lat="43.77213" lon="6.59992">
        <ele>1005.2</ele>
        <time>2015-05-03T14:07:01Z</time>
      </trkpt>
      <trkpt lat="43.77208" lon="6.59982">
        <ele>1003.6</ele>
        <time>2015-05-03T14:07:12Z</time>
      </trkpt>
      <trkpt lat="43.77203" lon="6.59974">
        <ele>1003.4</ele>
        <time>2015-05-03T14:07:19Z</time>
      </trkpt>
      <trkpt lat="43.77201" lon="6.59962">
        <ele>1001.3</ele>
        <time>2015-05-03T14:07:32Z</time>
      </trkpt>
      <trkpt lat="43.77196" lon="6.59953">
        <ele>1001</ele>
        <time>2015-05-03T14:07:39Z</time>
      </trkpt>
      <trkpt lat="43.77195" lon="6.59952">
        <ele>1001.1</ele>
        <time>2015-05-03T14:07:40Z</time>
      </trkpt>
      <trkpt lat="43.77185" lon="6.59937">
        <ele>999.3</ele>
        <time>2015-05-03T14:11:05Z</time>
      </trkpt>
      <trkpt lat="43.77185" lon="6.59935">
        <ele>998.9</ele>
        <time>2015-05-03T14:11:06Z</time>
      </trkpt>
      <trkpt lat="43.77175" lon="6.59919">
        <ele>995.9</ele>
        <time>2015-05-03T14:11:25Z</time>
      </trkpt>
      <trkpt lat="43.77167" lon="6.59923">
        <ele>995.1</ele>
        <time>2015-05-03T14:11:35Z</time>
      </trkpt>
      <trkpt lat="43.7716" lon="6.59928">
        <ele>992.7</ele>
        <time>2015-05-03T14:11:48Z</time>
      </trkpt>
      <trkpt lat="43.77152" lon="6.59932">
        <ele>991.6</ele>
        <time>2015-05-03T14:11:56Z</time>
      </trkpt>
      <trkpt lat="43.77143" lon="6.59928">
        <ele>986.9</ele>
        <time>2015-05-03T14:13:00Z</time>
      </trkpt>
      <trkpt lat="43.77143" lon="6.59928">
        <ele>986.8</ele>
        <time>2015-05-03T14:13:01Z</time>
      </trkpt>
      <trkpt lat="43.77131" lon="6.59916">
        <ele>985.9</ele>
        <time>2015-05-03T14:13:14Z</time>
      </trkpt>
      <trkpt lat="43.77126" lon="6.59906">
        <ele>983.8</ele>
        <time>2015-05-03T14:13:28Z</time>
      </trkpt>
      <trkpt lat="43.77122" lon="6.59916">
        <ele>982.6</ele>
        <time>2015-05-03T14:13:51Z</time>
      </trkpt>
      <trkpt lat="43.77123" lon="6.59928">
        <ele>982.4</ele>
        <time>2015-05-03T14:14:08Z</time>
      </trkpt>
      <trkpt lat="43.77123" lon="6.59929">
        <ele>982.5</ele>
        <time>2015-05-03T14:14:09Z</time>
      </trkpt>
      <trkpt lat="43.77116" lon="6.59948">
        <ele>980.9</ele>
        <time>2015-05-03T14:14:25Z</time>
      </trkpt>
      <trkpt lat="43.77108" lon="6.5995">
        <ele>980.6</ele>
        <time>2015-05-03T14:14:30Z</time>
      </trkpt>
      <trkpt lat="43.77101" lon="6.5995">
        <ele>980.8</ele>
        <time>2015-05-03T14:14:36Z</time>
      </trkpt>
      <trkpt lat="43.77093" lon="6.59946">
        <ele>980.4</ele>
        <time>2015-05-03T14:14:40Z</time>
      </trkpt>
      <trkpt lat="43.77085" lon="6.59943">
        <ele>979.1</ele>
        <time>2015-05-03T14:14:48Z</time>
      </trkpt>
      <trkpt lat="43.7708" lon="6.59953">
        <ele>978.2</ele>
        <time>2015-05-03T14:14:58Z</time>
      </trkpt>
      <trkpt lat="43.77083" lon="6.59963">
        <ele>978.1</ele>
        <time>2015-05-03T14:15:04Z</time>
      </trkpt>
      <trkpt lat="43.77083" lon="6.59974">
        <ele>977.7</ele>
        <time>2015-05-03T14:15:11Z</time>
      </trkpt>
      <trkpt lat="43.77084" lon="6.59976">
        <ele>978</ele>
        <time>2015-05-03T14:15:12Z</time>
      </trkpt>
      <trkpt lat="43.77079" lon="6.59975">
        <ele>977.6</ele>
        <time>2015-05-03T14:17:01Z</time>
      </trkpt>
      <trkpt lat="43.77079" lon="6.59974">
        <ele>977.7</ele>
        <time>2015-05-03T14:17:02Z</time>
      </trkpt>
      <trkpt lat="43.77096" lon="6.59979">
        <ele>977.5</ele>
        <time>2015-05-03T14:18:47Z</time>
      </trkpt>
      <trkpt lat="43.77097" lon="6.59979">
        <ele>977.3</ele>
        <time>2015-05-03T14:18:48Z</time>
      </trkpt>
      <trkpt lat="43.77087" lon="6.59983">
        <ele>978.2</ele>
        <time>2015-05-03T14:19:54Z</time>
      </trkpt>
    </trkseg>
  </trk>
</gpx>